[[[{"header":{"parameterUnit":"kt","parameterCategory":2,"dx":1,"dy":1,"la1":29.285339999999998,"la2":30.599998999999997,"lo1":-89.70041500000002,"lo2":-87.6738589999976,"nx":112,"ny":82,"refTime":"2022-10-22T18:00:00:Z","depth":0,"parameterNumber":1,"parameterNumberName":"U-component_of_WINDS"},"data":[-9.6277,-9.5911,0.0,-9.0091,-8.6663,0.0,-7.8061,0.0,-7.279,0.0,0.0,0.0,0.0,0.0,0.0,0.0,0.0,0.0,0.0,0.0,0.0,0.0,0.0,0.0,0.0,0.0,0.0,0.0,0.0,0.0,0.0,0.0,-7.1196,-7.4079,-7.4881,-7.6562,-7.917,-7.7756,-7.7518,-7.8467,-7.9538,-7.9953,-7.9818,-8.1388,-8.1837,-8.1277,-8.1779,-8.0973,-7.9392,-7.9523,-7.8537,-7.6938,-7.5834,-7.538,-7.5381,-7.5442,-7.4466,-7.2793,-7.0772,-7.049,-7.083,-6.9631,-6.9146,-6.8952,-6.8542,-6.8193,-6.7779,-6.7512,-6.7186,-6.6698,-6.609,-6.5889,-6.566,-6.4752,-6.4219,-6.3848,-6.3432,-6.3362,-6.3293,-6.3014,-6.3153,-6.3293,-6.3014,-6.29,-6.283,-6.283,-6.3235,-6.3186,-6.2165,-6.2064,-6.1635,-6.0163,-5.9352,-5.866,-5.8062,-5.7687,-5.7158,-5.6372,-5.6473,-5.6473,-5.6166,-5.619,-5.6013,-5.5759,-5.5759,-5.5474,-5.4853,-5.4698,-5.4778,-5.4998,-5.5009,-5.5015,0.0,0.0,-9.015,-8.6164,0.0,0.0,0.0,0.0,0.0,0.0,0.0,0.0,0.0,0.0,0.0,0.0,0.0,0.0,0.0,0.0,0.0,0.0,0.0,0.0,0.0,0.0,0.0,0.0,0.0,0.0,0.0,-6.9283,-7.2786,-7.58,-7.5533,-7.6751,-7.9552,-7.8644,-7.8558,-7.9377,-8.104,-8.1677,-8.1273,-8.2485,-8.2934,-8.2812,-8.2812,-8.2188,-8.11,-8.1292,-8.0362,-7.8601,-7.743,-7.7033,-7.7061,-7.7061,-7.5867,-7.4191,-7.309,-7.2412,-7.1764,-6.9998,-6.9275,-6.9083,-6.8732,-6.8257,-6.7779,-6.7613,-6.7223,-6.6698,-6.609,-6.5889,-6.5688,-6.4916,-6.4452,-6.4054,-6.364,-6.3501,-6.3293,-6.3014,-6.3223,-6.3362,-6.3223,-6.3083,-6.3014,-6.3014,-6.3448,-6.3559,-6.2904,-6.2759,-6.2328,-6.1185,-6.0143,-5.9204,-5.8536,-5.7987,-5.7361,-5.683,-5.6754,-5.6702,-5.6549,-5.6549,-5.6396,-5.5966,-5.5966,-5.5682,-5.5009,-5.4853,-5.4887,-5.4939,-5.4801,-5.4377,0.0,0.0,0.0,-8.007,0.0,0.0,0.0,0.0,-6.53,0.0,0.0,0.0,0.0,0.0,0.0,0.0,0.0,0.0,0.0,0.0,0.0,0.0,0.0,0.0,0.0,0.0,0.0,0.0,0.0,0.0,-6.8198,-7.2163,-7.58,-7.9008,-7.7875,-7.8132,-8.0045,-7.9098,-7.8453,-7.8106,-8.0922,-8.1978,-8.1395,-8.2788,-8.3177,-8.2812,-8.2812,-8.269,-8.235,-8.1067,-8.0889,-8.1196,-7.8507,-7.7862,-7.8436,-7.8405,-7.733,-7.6135,-7.712,-7.519,-7.199,-7.0032,-6.9433,-6.9309,-6.9112,-6.8449,-6.7843,-6.7843,-6.739,-6.6698,-6.6062,-6.5889,-6.5688,-6.4916,-6.4452,-6.4054,-6.364,-6.3293,-6.3014,-6.3014,-6.3014,-6.3083,-6.3501,-6.3223,-6.3014,-6.3014,-6.2813,-6.3077,-6.4185,-6.3035,-6.227,-6.2576,-6.1287,-5.9844,-5.861,-5.8536,-5.8137,-5.7261,-5.7185,-5.6958,-5.6625,-5.6549,-5.6396,-5.5966,-5.5966,-5.5759,-5.542,-5.5009,-5.4853,-5.4775,-5.4431,-5.3724,-8.1302,0.0,0.0,0.0,0.0,0.0,0.0,0.0,0.0,0.0,0.0,0.0,0.0,0.0,0.0,0.0,0.0,0.0,0.0,0.0,0.0,0.0,0.0,0.0,0.0,0.0,0.0,0.0,0.0,0.0,-7.3187,-7.5137,-7.6923,-7.8773,-7.8119,-7.8315,-7.95,-8.0116,-8.072,-8.1355,-8.3014,-8.3674,-8.3498,-8.3439,-8.333,-8.3209,-8.2934,-8.2751,-8.2659,-8.2099,-8.1823,-8.1511,-7.9527,-7.9496,-8.0417,-7.9181,-7.7705,-7.657,-7.8561,-7.5846,-7.1414,-7.02,-6.9649,-6.9309,-6.9112,-6.8449,-6.7843,-6.7843,-6.739,-6.6764,-6.6301,-6.6062,-6.5822,-6.5256,-6.4821,-6.4452,-6.4054,-6.3709,-6.3293,-6.3014,-6.3014,-6.3014,-6.3153,-6.3083,-6.3014,-6.3014,-6.3501,-6.3974,-6.4291,-6.4427,-6.4263,-6.352,-6.2569,-6.1244,-5.9501,-5.913,-5.861,-5.7811,-5.7711,-5.7485,-5.6982,-5.6958,-5.6654,-5.5966,-5.5966,-5.5759,-5.542,-5.5265,-5.4954,-5.4431,-5.4275,-5.414,0.0,0.0,0.0,0.0,0.0,0.0,-6.6463,0.0,-6.1109,0.0,0.0,0.0,0.0,0.0,0.0,0.0,0.0,0.0,0.0,0.0,0.0,0.0,0.0,0.0,0.0,0.0,0.0,0.0,0.0,-7.1719,-7.5094,-7.6853,-7.8081,-7.8853,-7.8362,-7.8318,-7.8721,-7.9808,-8.0754,-8.1556,-8.2969,-8.379,-8.41,-8.3896,-8.363,-8.339,-8.3148,-8.2934,-8.2812,-8.2629,-8.2383,-8.1979,-8.0704,-8.0174,-8.0014,-7.8898,-7.7182,-7.5625,-7.7406,-7.5097,-7.1355,-7.1256,-7.0402,-6.9309,-6.9112,-6.8449,-6.7843,-6.7843,-6.7483,-6.6961,-6.6405,-6.6101,-6.5822,-6.5391,-6.5052,-6.4616,-6.4192,-6.3985,-6.364,-6.3083,-6.3153,-6.3223,-6.3223,-6.304,-6.283,-6.2944,-6.3342,-6.3974,-6.4852,-6.4994,-6.5009,-6.5174,-6.3941,-6.2521,-6.1043,-5.9997,-5.9056,-5.8461,-5.8136,-5.7811,-5.746,-5.746,-5.7082,-5.6219,-5.6219,-5.5936,-5.542,-5.542,-5.511,-5.4486,-5.4275,-5.4118,0.0,0.0,0.0,0.0,-6.8006,0.0,0.0,0.0,-6.049,-5.9104,0.0,0.0,0.0,0.0,0.0,0.0,0.0,0.0,0.0,0.0,0.0,0.0,0.0,0.0,0.0,-6.5734,-6.8061,-7.146,-7.2658,-7.3939,-7.5447,-7.7844,-7.9108,-7.9061,-7.8635,-7.8216,-7.794,-7.9029,-7.9762,-8.0257,-8.2022,-8.3207,-8.3923,-8.4191,-8.3955,-8.345,-8.333,-8.3117,-8.2812,-8.2812,-8.2629,-8.2321,-8.1573,-8.011,-7.8375,-7.7967,-7.6169,-7.4104,-7.5129,-7.3675,-7.1536,-7.2583,-7.1334,-6.94,-6.9175,-6.8576,-6.7908,-6.7843,-6.7678,-6.7251,-6.6538,-6.6168,-6.5795,-6.5458,-6.5052,-6.4684,-6.4288,-6.4192,-6.3917,-6.3293,-6.3362,-6.3501,-6.3571,-6.3067,-6.2786,-6.2944,-6.2892,-6.3605,-6.5621,-6.5194,-6.531,-6.6979,-6.5357,-6.3854,-6.2884,-6.1071,-5.9774,-5.9305,-5.841,-5.791,-5.791,-5.791,-5.7433,-5.6549,-5.6549,-5.6166,-5.5497,-5.542,-5.5265,-5.4853,-5.4509,-5.4095,0.0,0.0,0.0,0.0,0.0,-6.1631,0.0,0.0,0.0,0.0,0.0,0.0,0.0,0.0,0.0,0.0,0.0,0.0,0.0,0.0,0.0,0.0,0.0,0.0,0.0,-7.0498,-7.1959,-7.6007,-7.6458,-7.7211,-7.8587,-7.9145,-7.9215,-7.8839,-7.8697,-7.8458,-7.794,-7.999,-8.1055,-8.1068,-8.3301,-8.4401,-8.4574,-8.41,-8.3805,-8.3686,-8.3177,-8.2873,-8.2812,-8.2812,-8.2506,-8.1823,-8.0672,-7.9744,-7.894,-7.7524,-7.6022,-7.4738,-7.5501,-7.4012,-7.1895,-7.2675,-7.1488,-6.9865,-6.9803,-6.9083,-6.8257,-6.7908,-6.7678,-6.7316,-6.6895,-6.65,-6.6168,-6.5862,-6.5458,-6.512,-6.4684,-6.4356,-6.4123,-6.3985,-6.3501,-6.3223,-6.3501,-6.3432,-6.3293,-6.3014,-6.3741,-6.4667,-6.5727,-6.6543,-6.7123,-6.752,-6.7178,-6.6192,-6.4472,-6.264,-6.128,-6.0553,-5.8903,-5.791,-5.791,-5.7536,-5.7058,-5.6549,-5.6219,-5.6066,-5.5836,-5.5551,-5.5342,-5.5265,-5.4876,-5.462,0.0,0.0,0.0,-6.2613,0.0,0.0,0.0,-6.1238,-6.0155,-6.0805,-5.9068,-5.7401,-5.7285,0.0,-5.7911,0.0,0.0,0.0,0.0,0.0,0.0,0.0,0.0,0.0,-7.3994,-7.3872,-7.4932,-7.7908,-7.8693,-7.9216,-7.9676,-7.9697,-7.9861,-8.019,-8.019,-8.0285,-8.0445,-8.1628,-8.2351,-8.2646,-8.3652,-8.4472,-8.5011,-8.4367,-8.3982,-8.3745,-8.3298,-8.2995,-8.2812,-8.2812,-8.2413,-8.1729,-8.0797,-7.9711,-7.8568,-7.6909,-7.5626,-7.4585,-7.3861,-7.2892,-7.1923,-7.1956,-7.1137,-7.0082,-6.9773,-6.9338,-6.8772,-6.8036,-6.7714,-6.7548,-6.7027,-6.6538,-6.6273,-6.6101,-6.5728,-6.5256,-6.5052,-6.4752,-6.4356,-6.4192,-6.3848,-6.364,-6.3848,-6.3709,-6.3501,-6.3293,-6.3563,-6.453,-6.6319,-6.6663,-6.7304,-6.8723,-6.8146,-6.7234,-6.6249,-6.4474,-6.2846,-6.1509,-6.0126,-5.8926,-5.7935,-5.7636,-5.7409,-5.7258,-5.6625,-5.6143,-5.5966,-5.5759,-5.5628,-5.542,-5.5009,-5.4853,0.0,0.0,0.0,0.0,0.0,0.0,-6.1364,-6.1305,-6.1371,0.0,-6.0217,-5.9656,-6.0137,-6.1737,-6.2583,-6.1279,0.0,0.0,0.0,0.0,0.0,0.0,0.0,0.0,-7.6163,-7.644,-7.7116,-7.8544,-7.9762,-8.0305,-7.9925,-7.9879,-8.0382,-8.1511,-8.1578,-8.2089,-8.3097,-8.3246,-8.3619,-8.4208,-8.4126,-8.4556,-8.5387,-8.469,-8.4132,-8.3745,-8.3418,-8.3056,-8.2812,-8.2751,-8.2351,-8.1792,-8.1161,-7.9979,-7.8253,-7.663,-7.5382,-7.4251,-7.2196,-7.1713,-7.1802,-7.1235,-7.0722,-7.0205,-6.9744,-6.9433,-6.915,-6.8391,-6.8008,-6.7714,-6.7157,-6.6698,-6.6405,-6.6339,-6.5901,-6.5458,-6.5323,-6.5052,-6.4752,-6.4425,-6.4356,-6.4288,-6.4288,-6.4012,-6.3778,-6.3709,-6.3619,-6.4442,-6.698,-6.6745,-6.7373,-6.9983,-6.8932,-6.8043,-6.8146,-6.6251,-6.4376,-6.2721,-6.1559,-6.0048,-5.8328,-5.8032,-5.791,-5.791,-5.7182,-5.6549,-5.6143,-5.6196,-5.5989,-5.5652,-5.5241,-5.5063,0.0,0.0,0.0,0.0,0.0,0.0,-6.0416,-6.0904,-6.1258,0.0,-6.396,-6.4872,-6.3801,-6.591,-6.7463,-6.6262,-6.775,0.0,0.0,0.0,0.0,0.0,0.0,0.0,-7.8036,-7.829,-7.84,-7.8359,-7.9709,-8.0305,-7.9925,-7.9879,-8.0323,-8.1258,-8.1291,-8.2026,-8.3512,-8.424,-8.4696,-8.5017,-8.5575,-8.5746,-8.5662,-8.4806,-8.4132,-8.3713,-8.3177,-8.2873,-8.2812,-8.2567,-8.2166,-8.1792,-8.1476,-8.0357,-7.869,-7.7187,-7.5837,-7.4549,-7.2757,-7.2096,-7.1862,-7.1444,-7.0722,-7.005,-7.0205,-6.9679,-6.9049,-6.9213,-6.8582,-6.7779,-6.7447,-6.7092,-6.6698,-6.6339,-6.6206,-6.6007,-6.5458,-6.5256,-6.5256,-6.5188,-6.4889,-6.4684,-6.4684,-6.4616,-6.4452,-6.4123,-6.4931,-6.5978,-6.7161,-6.766,-6.8705,-7.0527,-6.9803,-6.9412,-6.9855,-6.7711,-6.5871,-6.4988,-6.2312,-6.037,-5.935,-5.8423,-5.791,-5.791,-5.7835,-5.7357,-5.6473,-5.6906,-5.683,-5.6396,-5.6066,-5.5836,0.0,0.0,0.0,0.0,0.0,0.0,-6.1527,-6.3516,-6.5169,0.0,-6.7943,-6.9228,-6.9445,-7.1188,-7.2242,-7.1252,-7.3472,-7.5984,0.0,0.0,0.0,0.0,0.0,0.0,0.0,-8.012,-8.012,-8.0036,-8.1297,-8.1554,-8.0284,-8.0015,-8.0819,-8.2754,-8.2821,-8.4057,-8.6502,-8.6819,-8.7036,-8.7155,-8.7151,-8.6863,-8.6374,-8.5111,-8.4393,-8.4009,-8.2352,-8.2118,-8.275,-8.1628,-8.1011,-8.0735,-8.1261,-8.0883,-7.9766,-7.7586,-7.6449,-7.5621,-7.315,-7.2096,-7.1862,-7.1444,-7.0844,-7.0205,-7.0327,-6.9835,-6.9242,-6.9371,-6.8835,-6.8065,-6.7577,-6.7186,-6.683,-6.6698,-6.6472,-6.6206,-6.594,-6.5565,-6.5323,-6.5323,-6.5188,-6.4984,-6.478,-6.4711,-6.4684,-6.452,-6.4722,-6.5612,-6.768,-6.7772,-6.8521,-7.0858,-7.0584,-7.0196,-7.0145,-6.9252,-6.7869,-6.6076,-6.4047,-6.2088,-6.0393,-5.9002,-5.8186,-5.791,-5.791,-5.7584,-5.6906,-5.7034,-5.7034,-5.6906,-5.6525,-5.6296,-5.3068,0.0,0.0,0.0,0.0,0.0,0.0,0.0,-6.8743,-7.0329,-7.1791,-7.3228,-7.4551,-7.5622,-7.6207,-7.5742,-7.789,-7.9721,-8.0138,0.0,0.0,0.0,0.0,0.0,0.0,0.0,0.0,0.0,-8.271,-8.2582,-8.1204,-8.0769,-8.1664,-8.4031,-8.4453,-8.5962,-8.8719,-8.8753,-8.8719,-8.8635,-8.8178,-8.7607,-8.6884,-8.5676,-8.4857,-8.4244,-8.2079,-8.1752,-8.2602,-8.0824,-8.0093,-8.0202,-8.1138,-8.1286,-8.0504,-7.7801,-7.6787,-7.6327,-7.3333,-7.2096,-7.1862,-7.1444,-7.0874,-7.0388,-7.051,-7.0257,-6.9903,-6.9613,-6.9379,-6.8911,-6.7986,-6.7418,-6.7157,-6.7027,-6.683,-6.6538,-6.6339,-6.5901,-6.5565,-6.5565,-6.5458,-6.5188,-6.4916,-6.4848,-6.4711,-6.4711,-6.452,-6.5186,-6.7565,-6.7291,-6.7946,-7.0746,-7.0561,-7.0313,-7.0507,-7.0301,-6.928,-6.7271,-6.5716,-6.3843,-6.1352,-6.0027,-5.8857,-5.791,-5.8061,-5.7861,-5.7361,-5.7185,-5.7185,-5.7361,-5.6854,-5.6473,0.0,0.0,0.0,0.0,0.0,0.0,-6.3899,0.0,-7.0737,-7.3705,-7.5455,-7.6871,-7.8299,-7.8597,-7.8867,-7.9608,-7.98,-7.9981,-8.0393,-8.0699,-8.0958,0.0,0.0,0.0,0.0,0.0,0.0,0.0,-8.3257,-8.307,-8.2744,-8.2507,-8.2988,-8.4271,-8.572,-8.7268,-8.9019,-8.9019,-8.8869,-8.8652,-8.8382,-8.7816,-8.7037,-8.6407,-8.546,-8.4244,-8.2578,-8.2145,-8.2472,-8.0377,-7.9971,-8.0712,-8.1511,-8.1414,-8.0504,-7.7801,-7.6787,-7.6327,-7.3333,-7.2096,-7.1862,-7.1444,-7.0874,-7.0449,-7.0783,-7.1091,-7.1134,-7.0218,-7.043,-7.0492,-6.886,-6.8129,-6.7714,-6.7512,-6.7447,-6.7251,-6.6405,-6.6273,-6.6273,-6.6273,-6.5767,-6.5323,-6.5323,-6.4984,-6.4711,-6.4711,-6.4684,-6.5148,-6.6376,-6.6187,-6.7011,-6.9914,-6.9417,-6.9526,-7.1195,-7.0611,-6.978,-6.8837,-6.7245,-6.5226,-6.2425,-6.1683,-6.0228,-5.7935,-5.8261,-5.8261,-5.791,-5.7385,-5.7361,-5.791,-5.6954,-5.6396,-5.0473,0.0,0.0,0.0,0.0,-6.3887,-6.7665,0.0,-7.5148,-7.693,-7.8587,-7.9847,-8.0347,-8.0685,-8.1062,-8.1511,-8.0982,-8.0646,-8.0958,-8.1205,-8.1408,-8.1492,-8.1665,0.0,0.0,0.0,0.0,0.0,0.0,0.0,-8.288,-8.4451,-8.4671,-8.3123,-8.5311,-8.696,-8.789,-8.789,-8.7299,-8.6187,-8.6798,-8.6636,-8.5813,-8.6002,-8.5653,-8.4728,-8.2094,-8.101,-8.1112,-8.0464,-8.0026,-7.9939,-8.0712,-8.1231,-8.1137,-7.7985,-7.6787,-7.6541,-7.4641,-7.3064,-7.2013,-7.2771,-7.1836,-7.0388,-7.051,-7.0316,-6.9957,-6.9705,-6.9626,-6.9475,-6.8628,-6.8321,-6.81,-6.7807,-6.7548,-6.7382,-6.7092,-6.7544,-6.7907,-6.7638,-6.6524,-6.5593,-6.5323,-6.4984,-6.4711,-6.4711,-6.4711,-6.5148,-6.6321,-6.6344,-6.6943,-6.8839,-6.8713,-6.8657,-6.8869,-6.8478,-6.7954,-6.7298,-6.5589,-6.4032,-6.2569,-6.1302,-5.9876,-5.8336,-5.8461,-5.8336,-5.791,-5.7735,-5.7735,-5.791,-5.7233,-5.6882,0.0,0.0,0.0,-6.1252,-6.4388,-6.7062,-7.1058,-7.5037,-7.8379,-8.0242,-8.1554,-8.2501,-8.294,-8.3474,-8.3643,-8.2835,-8.2174,-8.1659,-8.1401,-8.2064,-8.2361,-8.1776,-8.2354,-8.2621,-8.2033,-8.1782,0.0,0.0,0.0,-8.5047,-8.4444,-8.6071,-8.6099,-8.4108,-8.5807,-8.7203,-8.802,-8.7524,-8.6424,-8.4837,-8.587,-8.585,-8.4998,-8.5848,-8.5877,-8.5014,-8.2818,-8.1868,-8.1868,-8.1759,-8.1343,-8.0826,-8.1661,-8.1995,-8.1636,-7.8321,-7.6969,-7.6603,-7.5193,-7.3461,-7.2074,-7.3316,-7.2196,-7.0388,-7.051,-7.0345,-6.9986,-6.9705,-6.9656,-6.9533,-6.8785,-6.8669,-6.8542,-6.8321,-6.8001,-6.7771,-6.7642,-6.7978,-6.8214,-6.7812,-6.6832,-6.5968,-6.57,-6.5228,-6.4916,-6.4916,-6.4848,-6.4984,-6.5748,-6.5857,-6.6364,-6.7565,-6.7702,-6.7794,-6.7942,-6.7633,-6.7222,-6.6754,-6.5447,-6.418,-6.2878,-6.1789,-6.0492,-5.8759,-5.8759,-5.8536,-5.8111,-5.7811,-5.7735,-5.791,-5.7233,-5.6906,0.0,-5.266,0.0,-6.3832,-6.6861,0.0,0.0,0.0,-8.0432,-8.3398,-8.4262,-8.483,-8.6065,-8.684,-8.6463,-8.3864,-8.3403,-8.3081,-8.2023,-8.3203,-8.368,-8.2257,-8.3638,-8.4107,-8.2621,-8.2112,-8.3097,-8.5978,-8.575,-8.6047,-8.7245,-8.7334,-8.7239,-8.6932,-8.7239,-8.8082,-8.9412,-8.7946,-8.6207,-8.4319,-8.5424,-8.5514,-8.4671,-8.5923,-8.6011,-8.516,-8.4659,-8.4381,-8.4249,-8.408,-8.3614,-8.3008,-8.3925,-8.3535,-8.21,-7.8955,-7.7331,-7.6603,-7.5044,-7.3372,-7.2104,-7.3134,-7.2104,-7.0449,-7.0783,-7.1061,-7.1075,-7.0156,-7.0401,-7.0592,-6.9335,-6.9015,-6.9015,-6.9015,-6.8732,-6.8321,-6.7972,-6.7707,-6.7467,-6.7046,-6.6594,-6.6273,-6.6273,-6.5767,-6.5323,-6.5323,-6.4984,-6.4711,-6.4711,-6.4711,-6.5148,-6.6267,-6.6376,-6.691,-6.8129,-6.7779,-6.7371,-6.7134,-6.6567,-6.5374,-6.3222,-6.3122,-6.1843,-5.9204,-5.9179,-5.8883,-5.8536,-5.7587,-5.746,-5.791,-5.703,-5.6625,0.0,0.0,-5.9306,-6.7764,-7.0556,-7.232,0.0,0.0,-8.1941,0.0,-8.5311,-8.6623,-8.8059,-8.7938,-8.7331,-8.6639,-8.5081,-8.4273,-8.5151,-8.4801,-8.4718,-8.5369,-8.5903,-8.5973,-8.5633,-8.5347,-8.5928,-8.7604,-8.7506,-8.7438,-8.7582,-8.8401,-8.8456,-8.7475,-8.8388,-8.9135,-8.9703,-8.6939,-8.3998,-8.1116,-8.3104,-8.3763,-8.3251,-8.5614,-8.6385,-8.5877,-8.5739,-8.4688,-8.3148,-8.3921,-8.3437,-8.2192,-8.2817,-8.3089,-8.2741,-7.9075,-7.7542,-7.6967,-7.5343,-7.352,-7.2074,-7.3376,-7.2408,-7.0722,-7.0357,-7.041,-7.0464,-6.9514,-6.9505,-6.9651,-6.9136,-6.9015,-6.9015,-6.9015,-6.8952,-6.8732,-6.8385,-6.8718,-6.9011,-6.8412,-6.725,-6.6273,-6.6273,-6.5767,-6.5323,-6.5323,-6.4984,-6.4711,-6.4711,-6.4711,-6.4821,-6.5121,-6.5148,-6.5353,-6.5654,-6.528,-6.4974,-6.4931,-6.4272,-6.3644,-6.3068,-6.2264,-6.1413,-6.0426,-5.9794,-5.9204,-5.8536,-5.7961,-5.7811,-5.791,-5.7309,-5.6958,-4.9094,-5.4521,-6.1046,0.0,-7.3133,-7.4886,-7.8354,-8.1299,-8.3744,-8.5313,-8.6994,-8.8441,-8.9388,-8.9212,-8.8798,-8.8329,-8.7179,-8.6451,-8.6869,-8.6924,-8.6896,-8.7035,-8.7578,-8.7633,-8.6938,-8.6616,-8.7059,-8.8323,-8.8181,-8.8261,-8.8772,-8.9308,-8.928,-8.8605,-8.9246,-8.9348,-8.8844,-8.6939,-8.4316,-8.0993,-8.1985,-8.2499,-8.269,-8.4737,-8.5925,-8.6319,-8.5642,-8.4664,-8.3549,-8.3454,-8.3244,-8.2946,-8.3026,-8.3347,-8.34,-7.9902,-7.8284,-7.7537,-7.5757,-7.3813,-7.228,-7.3467,-7.2439,-7.0662,-7.0479,-7.0205,-6.9867,-6.9521,-6.9334,-6.9179,-6.9078,-6.9015,-6.9015,-6.9015,-6.9015,-6.8952,-6.8732,-6.8933,-6.9033,-6.8508,-6.7413,-6.6538,-6.6538,-6.6101,-6.5767,-6.5767,-6.5458,-6.5256,-6.5256,-6.5256,-6.5256,-6.5256,-6.5052,-6.4984,-6.4984,-6.4616,-6.4356,-6.4192,-6.3778,-6.3362,-6.3014,-6.2292,-6.1606,-6.0861,-6.0233,-5.9573,-5.8759,-5.8411,-5.8136,-5.791,-5.7636,-5.7361,0.0,0.0,-6.1675,0.0,-7.4801,-7.6671,0.0,0.0,-8.5337,0.0,-8.866,-8.9921,-9.0204,-9.0471,-9.0378,-8.9465,-8.9214,-8.8899,-8.8202,-8.9081,-8.9361,-8.8208,-8.9048,-8.9201,-8.7843,-8.7402,-8.7664,-8.8856,-8.8626,-8.8947,-9.017,-8.999,-8.9744,-8.9526,-8.9696,-8.9117,-8.765,-8.7381,-8.582,-8.3013,-8.2075,-8.2066,-8.3006,-8.4052,-8.533,-8.668,-8.5165,-8.4533,-8.4445,-8.3129,-8.3119,-8.4065,-8.3886,-8.4076,-8.402,-8.1079,-7.9312,-7.8155,-7.6368,-7.4277,-7.2599,-7.3374,-7.2228,-7.0571,-7.0783,-7.0266,-6.962,-6.9897,-6.9584,-6.9175,-6.9049,-6.9078,-6.9078,-6.9015,-6.9015,-6.9015,-6.9015,-6.8669,-6.8321,-6.7972,-6.739,-6.6961,-6.6961,-6.6538,-6.6273,-6.6273,-6.6062,-6.5889,-6.5889,-6.5889,-6.5889,-6.5889,-6.5593,-6.5391,-6.5323,-6.4984,-6.4616,-6.426,-6.4192,-6.3848,-6.3153,-6.2786,-6.2106,-6.1077,-6.0669,-5.9988,-5.9253,-5.8809,-5.8411,-5.7986,-5.7986,-5.7711,0.0,0.0,-6.15,-7.2668,-7.5444,0.0,-8.1663,-8.3719,-8.5197,-8.716,-8.8943,-9.0238,-9.0471,-9.0747,-9.0904,-9.093,-9.0245,-9.0011,-9.0996,-9.0374,-9.013,-9.1073,-9.1279,-9.122,-9.0941,-9.069,-9.053,-9.0593,-9.0503,-9.038,-9.0204,-9.0191,-8.9503,-8.8072,-8.9185,-8.8987,-8.7334,-8.7109,-8.6695,-8.6105,-8.4315,-8.4012,-8.4888,-8.5326,-8.6069,-8.6971,-8.5727,-8.4574,-8.3646,-8.41,-8.3638,-8.2784,-8.4637,-8.4925,-8.4116,-8.2221,-8.0417,-7.8697,-7.674,-7.4768,-7.3086,-7.2691,-7.1952,-7.1055,-7.0632,-7.0571,-7.0601,-7.0111,-7.005,-7.002,-6.9463,-6.9338,-6.9275,-6.9078,-6.9015,-6.9015,-6.9015,-6.8669,-6.8385,-6.8321,-6.7836,-6.7382,-6.7382,-6.6764,-6.6273,-6.6273,-6.6062,-6.5889,-6.5889,-6.5889,-6.5889,-6.5889,-6.5822,-6.5688,-6.5323,-6.5256,-6.5052,-6.4684,-6.4356,-6.4123,-6.3985,-6.3067,-6.246,-6.2345,-6.158,-6.0861,-6.0087,-5.9327,-5.8759,-5.8411,-5.8411,-5.8186,0.0,0.0,0.0,-6.9007,0.0,-7.8011,-8.1377,-8.3715,-8.5752,-8.7758,-8.8832,-8.9645,-9.0609,-9.0441,-9.0472,-9.149,-9.138,-9.1423,-9.2249,-9.164,-9.1381,-9.2081,-9.1889,-9.1742,-9.1742,-9.1532,-9.1277,-9.1188,-9.1053,-9.0838,-9.0609,-9.0471,-8.9942,-8.9024,-8.9661,-8.9177,-8.7475,-8.7952,-8.7401,-8.5841,-8.5465,-8.5158,-8.4829,-8.5364,-8.5707,-8.5748,-8.3688,-8.2599,-8.2296,-8.2448,-8.2371,-8.239,-8.3984,-8.4585,-8.4381,-8.2822,-8.1633,-8.0366,-7.7818,-7.5863,-7.4353,-7.2978,-7.2006,-7.1265,-7.0844,-7.0662,-7.0601,-7.0266,-7.0143,-7.0082,-6.9773,-6.9558,-6.9371,-6.9242,-6.9179,-6.9208,-6.9078,-6.8888,-6.8669,-6.8449,-6.8158,-6.7836,-6.7512,-6.7157,-6.683,-6.6604,-6.65,-6.6395,-6.6395,-6.6395,-6.6395,-6.6395,-6.6262,-6.6034,-6.5834,-6.5526,-6.5256,-6.5052,-6.4684,-6.4356,-6.4123,-6.3667,-6.3207,-6.2786,-6.2407,-6.1697,-6.0571,-6.0207,-5.9622,-5.8809,-5.8411,-5.8186,-4.9527,-5.4549,0.0,-6.4835,-7.1557,-7.7794,-8.0714,-8.3442,-8.5943,-8.781,-8.8441,-8.9097,-9.0776,-9.0438,-9.04,-9.1772,-9.2271,-9.2514,-9.2755,-9.2555,-9.2354,-9.2396,-9.2052,-9.1794,-9.188,-9.162,-9.1444,-9.1444,-9.1188,-9.1053,-9.0963,-9.0747,-9.038,-8.9758,-8.9973,-8.9285,-8.7603,-8.881,-8.8224,-8.588,-8.643,-8.6188,-8.5316,-8.5432,-8.5091,-8.4351,-8.1835,-8.0953,-8.1291,-8.0757,-8.1004,-8.1864,-8.2744,-8.3411,-8.3686,-8.256,-8.1837,-8.1091,-7.8549,-7.6757,-7.5303,-7.3531,-7.2269,-7.1474,-7.1175,-7.0783,-7.051,-7.051,-7.0357,-7.0173,-7.0082,-6.9835,-6.962,-6.9496,-6.9433,-6.9338,-6.9049,-6.9015,-6.8888,-6.8605,-6.8449,-6.8286,-6.7771,-6.7577,-6.7382,-6.7157,-6.7027,-6.6961,-6.6961,-6.6895,-6.6895,-6.6895,-6.6604,-6.6405,-6.6273,-6.5767,-6.5391,-6.5323,-6.4916,-6.4547,-6.4192,-6.4192,-6.3917,-6.3293,-6.3153,-6.2452,-6.1221,-6.0933,-6.028,-5.9204,-5.8486,-5.8261,-5.0965,-5.5923,-6.0859,-6.3113,-6.7714,-7.3392,-8.0077,-8.2989,-8.4821,-8.6555,0.0,-8.9176,-9.0999,-9.1428,-9.1741,-9.2194,-9.2479,-9.2796,-9.3034,-9.2638,-9.2396,-9.2673,-9.2229,-9.2024,-9.2271,-9.1923,-9.1742,-9.1742,-9.1488,-9.1232,-9.1008,-9.0963,-9.0115,-8.8272,-8.9285,-8.9048,-8.7368,-8.8713,-8.9291,-8.9005,-8.7816,-8.7609,-8.8197,-8.6215,-8.4727,-8.3596,-8.2171,-8.1578,-8.1578,-8.1035,-8.061,-8.0405,-8.1309,-8.1338,-8.0823,-8.0694,-7.9944,-7.8764,-7.8151,-7.6704,-7.4941,-7.3899,-7.2963,-7.2124,-7.1504,-7.1085,-7.0873,-7.0873,-7.0873,-7.0813,-7.0449,-7.0327,-7.0175,-6.9959,-6.9649,-6.9338,-6.9049,-6.9015,-6.9015,-6.8952,-6.8669,-6.8385,-6.8321,-6.7836,-6.7512,-6.7714,-6.7548,-6.7382,-6.7382,-6.7092,-6.6895,-6.6895,-6.683,-6.6698,-6.6339,-6.5995,-6.5688,-6.5323,-6.4916,-6.4547,-6.4192,-6.452,-6.4452,-6.4054,-6.3709,-6.318,-6.246,-6.1365,-6.0426,-5.9598,-5.9204,-5.861,-4.8487,-5.2701,-5.7473,-6.1631,-6.6085,-7.1054,-7.7301,0.0,0.0,0.0,-8.5666,-8.6808,-8.9648,-8.9795,0.0,-9.2198,-9.2796,-9.2993,-9.3074,-9.2638,-9.2354,-9.2479,-9.2151,-9.1947,-9.2109,-9.188,-9.1742,-9.1742,-9.1488,-9.1311,-9.1188,-9.1188,-9.0687,-8.9646,-8.9883,-8.9635,-8.8803,-8.832,-8.8231,-8.8327,-8.6512,-8.6116,-8.6888,-8.4129,-8.2914,-8.2963,-8.1862,-8.0981,-8.0385,-8.0876,-8.0791,-8.0409,-8.1166,-8.1294,-8.1046,-8.0633,-8.0311,-7.9903,-7.8732,-7.74,-7.6053,-7.465,-7.3387,-7.2474,-7.189,-7.1475,-7.1145,-7.0994,-7.0934,-7.0934,-7.0722,-7.051,-7.0327,-7.005,-6.9865,-6.9617,-6.9141,-6.9015,-6.9015,-6.9015,-6.8888,-6.8669,-6.8449,-6.8193,-6.8001,-6.7843,-6.7714,-6.7613,-6.7447,-6.7316,-6.7092,-6.6895,-6.6895,-6.683,-6.6698,-6.6301,-6.5995,-6.5688,-6.5323,-6.5025,-6.4861,-6.4752,-6.4616,-6.452,-6.4315,-6.3901,-6.318,-6.1982,-6.1077,-6.0379,-5.8982,-5.8461,-4.6374,-5.054,-5.5537,-5.9633,0.0,0.0,0.0,-7.5393,0.0,0.0,-8.3742,-8.5252,-8.8302,-8.8335,0.0,-9.1553,-9.2248,-9.2619,-9.3038,-9.2638,-9.2354,-9.2437,-9.2194,-9.2109,-9.2151,-9.1931,-9.1837,-9.1837,-9.1532,-9.1356,-9.1356,-9.1277,-9.1053,-9.0609,-9.0251,-9.0003,-8.9799,-8.819,-8.7475,-8.7663,-8.5248,-8.4373,-8.4691,-8.2791,-8.2015,-8.23,-8.1662,-8.0727,-7.9743,-8.0539,-8.0451,-7.99,-8.0159,-8.0238,-8.0133,-7.9644,-7.9623,-7.9612,-7.845,-7.7446,-7.6518,-7.5067,-7.3949,-7.302,-7.233,-7.1831,-7.1475,-7.1145,-7.0994,-7.0934,-7.0934,-7.0722,-7.0449,-7.0173,-7.0111,-6.9926,-6.9426,-6.9238,-6.9112,-6.9112,-6.9078,-6.8952,-6.8669,-6.8385,-6.8193,-6.8036,-6.7908,-6.7779,-6.7613,-6.7707,-6.7577,-6.7092,-6.6961,-6.6895,-6.6895,-6.6538,-6.6206,-6.6062,-6.5593,-6.5323,-6.5323,-6.5052,-6.4752,-6.4547,-6.4547,-6.415,-6.3362,-6.2452,-6.1626,-6.0789,-5.9426,-5.8833,-4.5519,-5.0604,-5.6294,-5.6845,0.0,0.0,-7.0793,-7.1966,-7.3758,-7.8733,-8.2413,-8.5307,-8.7154,-8.7799,0.0,-9.015,-9.0625,-9.1348,-9.2902,-9.2638,-9.2437,-9.2679,-9.2514,-9.2437,-9.2679,-9.2271,-9.1947,-9.1947,-9.1585,-9.1356,-9.1356,-9.1098,-9.0838,-9.0609,-9.0063,-8.9812,-8.9799,-8.8413,-8.7663,-8.7629,-8.4637,-8.2801,-8.2089,-8.2989,-8.2758,-8.1625,-8.1645,-8.102,-8.0059,-7.9936,-7.9282,-7.8298,-7.7792,-7.7444,-7.721,-7.721,-7.704,-7.6816,-7.6784,-7.639,-7.5729,-7.5216,-7.4587,-7.3893,-7.2963,-7.233,-7.1862,-7.1444,-7.1145,-7.0934,-7.0934,-7.0934,-7.0873,-7.0449,-7.0359,-7.0266,-7.005,-6.9649,-6.9371,-6.9371,-6.9208,-6.9015,-6.9015,-6.8385,-6.7972,-6.8385,-6.81,-6.7843,-6.7843,-6.8193,-6.8158,-6.7512,-6.7092,-6.6895,-6.6895,-6.6538,-6.6273,-6.6273,-6.5633,-6.5323,-6.5323,-6.5323,-6.4957,-6.4192,-6.4123,-6.3778,-6.3014,-6.2593,-6.184,-6.0861,-6.0789,-5.9988,-4.3347,-4.759,-5.221,-5.4008,0.0,0.0,-6.8289,-7.1661,-7.4494,-7.6139,-7.914,-8.2328,-8.5332,0.0,0.0,0.0,-9.1626,-9.2549,-9.3003,-9.2638,-9.2354,-9.2437,-9.2396,-9.2354,-9.2437,-9.2312,-9.2151,-9.1982,-9.1759,-9.1532,-9.1365,-9.1098,-9.0838,-9.0609,-9.0251,-9.0097,-9.005,-8.8473,-8.7209,-8.6332,-8.483,-8.3892,-8.3469,-8.2612,-8.2535,-8.3033,-8.1315,-8.0488,-8.0315,-8.006,-7.9605,-7.9028,-7.7973,-7.7628,-7.7644,-7.7328,-7.7127,-7.7025,-7.6803,-7.639,-7.5749,-7.5431,-7.4892,-7.432,-7.3588,-7.2905,-7.2358,-7.189,-7.1475,-7.1175,-7.0994,-7.0934,-7.0873,-7.0449,-7.0359,-7.0266,-7.005,-6.9649,-6.9371,-6.9371,-6.9208,-6.9015,-6.9015,-6.8796,-6.8669,-6.8796,-6.8732,-6.8669,-6.8669,-6.8257,-6.8065,-6.8129,-6.7642,-6.7186,-6.6895,-6.6764,-6.6538,-6.6339,-6.6073,-6.594,-6.594,-6.5565,-6.512,-6.4547,-6.4288,-6.3917,-6.3362,-6.2733,-6.2027,-6.1196,-6.0716,-6.0014,-4.3255,-4.7336,-5.1526,-5.3612,-5.7847,0.0,0.0,-6.9332,-7.1746,-7.3066,-7.4977,0.0,0.0,0.0,-8.654,-8.944,-9.0751,-9.1599,-9.2005,-9.2327,-9.2227,-9.1547,-9.2045,-9.2473,-9.2354,-9.2354,-9.2194,-9.1947,-9.1837,-9.162,-9.14,-9.1008,-9.0747,-9.0609,-9.0238,-9.005,-9.005,-8.8473,-8.7278,-8.6423,-8.5155,-8.4765,-8.4983,-8.2755,-8.262,-8.3911,-8.1332,-8.0315,-8.0437,-8.006,-7.9697,-7.9295,-7.8362,-7.8022,-7.8071,-7.7628,-7.7328,-7.7127,-7.7007,-7.6513,-7.5992,-7.5697,-7.5302,-7.4814,-7.4233,-7.3506,-7.2763,-7.2243,-7.1682,-7.1325,-7.1145,-7.1055,-7.0873,-7.0662,-7.0571,-7.054,-7.0357,-6.9959,-6.9649,-6.9649,-6.9271,-6.9015,-6.9015,-6.8888,-6.8796,-6.8796,-6.8796,-6.8796,-6.8796,-6.8449,-6.8257,-6.8193,-6.7807,-6.7418,-6.6895,-6.6895,-6.6764,-6.6538,-6.6472,-6.6405,-6.6273,-6.5901,-6.5431,-6.4984,-6.4589,-6.415,-6.3778,-6.3293,-6.2663,-6.1956,-6.1339,-6.0486,-4.4551,-4.9037,-5.3319,-5.5019,-5.8069,0.0,-6.4492,-6.538,0.0,-6.944,0.0,0.0,0.0,-7.8673,-8.2798,-8.7358,-8.8388,-8.9022,-9.0225,-9.1588,-9.1894,-9.0255,-9.1607,-9.2561,-9.2179,-9.2284,-9.2194,-9.1947,-9.1837,-9.162,-9.14,-9.0872,-9.0563,-9.0563,-9.0131,-8.9847,-8.9847,-8.846,-8.7709,-8.7582,-8.5685,-8.5306,-8.6195,-8.3382,-8.2916,-8.4265,-8.1648,-8.0481,-8.0437,-8.0026,-7.9605,-7.9108,-7.8792,-7.8554,-7.8265,-7.8071,-7.7628,-7.7177,-7.7177,-7.6822,-7.6338,-7.594,-7.5644,-7.5323,-7.4846,-7.4074,-7.3227,-7.259,-7.1948,-7.1414,-7.1385,-7.1145,-7.0994,-7.0934,-7.0934,-7.0934,-7.0934,-7.0448,-6.9988,-6.9988,-6.9488,-6.9015,-6.9015,-6.8732,-6.8449,-6.8449,-6.8449,-6.8449,-6.8449,-6.8732,-6.8669,-6.7972,-6.7843,-6.7585,-6.6961,-6.6895,-6.6895,-6.6895,-6.6895,-6.6764,-6.6339,-6.6339,-6.6034,-6.5323,-6.4916,-6.4547,-6.4123,-6.4123,-6.3778,-6.2917,-6.2513,-6.1135,-4.3099,-4.7541,-5.1806,-5.34,0.0,0.0,0.0,0.0,0.0,0.0,0.0,0.0,0.0,-7.4525,-7.9235,-8.407,-8.6714,-8.8718,-9.0185,-9.0517,-9.0547,-9.0352,-9.1566,-9.2022,-9.0985,-9.1735,-9.2194,-9.1947,-9.1837,-9.162,-9.14,-9.0872,-9.0563,-9.0563,-9.0471,-9.0285,-9.0097,-8.8844,-8.7941,-8.7381,-8.6689,-8.5745,-8.4647,-8.3064,-8.2561,-8.281,-8.1395,-8.0656,-8.0437,-7.9812,-7.9526,-7.9341,-7.8649,-7.8395,-7.8265,-7.8071,-7.7628,-7.7177,-7.7177,-7.6822,-7.6338,-7.594,-7.5644,-7.5377,-7.5063,-7.4517,-7.3906,-7.3227,-7.2706,-7.221,-7.1533,-7.1325,-7.1205,-7.0994,-7.0934,-7.0934,-7.0934,-7.0448,-6.9988,-6.9988,-6.9488,-6.9015,-6.9015,-6.8952,-6.8888,-6.8888,-6.8888,-6.8888,-6.8888,-6.8669,-6.8605,-6.8732,-6.8029,-6.7548,-6.7585,-6.7418,-6.7186,-6.6895,-6.7157,-6.7157,-6.6764,-6.6405,-6.6073,-6.5605,-6.5025,-6.4547,-6.4123,-6.4123,-6.3778,-6.2987,-6.1944,-6.0794,-4.3585,-4.774,-5.1279,-5.1928,-5.5329,-5.8757,0.0,0.0,0.0,0.0,0.0,0.0,0.0,0.0,-7.4996,-8.0036,-8.3825,-8.6469,-8.724,-8.8386,-8.8866,-8.8163,0.0,-9.1109,-9.022,-9.156,-9.2312,-9.1889,-9.1846,-9.1673,-9.14,-9.0974,-9.0747,-9.0747,-9.0517,-9.0297,-9.0204,-8.8169,-8.7222,-8.7286,-8.6302,-8.5286,-8.4299,-8.2988,-8.2484,-8.2519,0.0,-8.0052,-8.0203,-7.9071,-7.8889,-7.9295,-7.8873,-7.8635,-7.8506,-7.8362,-7.8071,-7.7677,-7.7278,-7.6822,-7.6338,-7.615,-7.5749,-7.5377,-7.5248,-7.4791,-7.4105,-7.3454,-7.3139,-7.2821,-7.2124,-7.1652,-7.1325,-7.1145,-7.1025,-7.0934,-7.0934,-7.054,-7.0143,-7.0143,-6.9617,-6.9208,-6.9208,-6.9112,-6.9015,-6.9015,-6.9015,-6.9015,-6.9015,-6.8825,-6.8669,-6.8732,-6.8065,-6.7613,-6.7678,-6.7353,-6.7186,-6.7157,-6.7418,-6.7418,-6.6895,-6.6698,-6.6472,-6.6273,-6.5739,-6.5268,-6.4929,-6.4793,-6.4084,-6.2997,-6.1985,-6.0564,-4.4483,-4.8059,-5.0612,-5.0461,-5.2586,-5.525,-5.7072,0.0,0.0,0.0,0.0,0.0,0.0,-6.7528,-7.058,-7.5089,-7.9603,-8.2799,-8.3611,-8.6251,-8.7507,-8.6016,0.0,-9.0517,-8.9939,-9.1519,-9.2348,-9.1786,-9.1802,-9.1724,-9.1444,-9.1188,-9.1053,-9.1053,-9.0322,-8.9908,-8.9849,-8.7313,-8.6458,-8.7286,-8.5455,-8.4468,-8.4197,-8.2788,-8.2236,-8.2315,0.0,-7.9422,-8.0002,-7.852,-7.8431,-7.9155,-7.9108,-7.9014,-7.8792,-7.8745,-7.8554,-7.8249,-7.7478,-7.6905,-7.6442,-7.639,-7.594,-7.5431,-7.5431,-7.4923,-7.4216,-7.3568,-7.3454,-7.3341,-7.2821,-7.2093,-7.1474,-7.1355,-7.1145,-7.0934,-7.0934,-7.0662,-7.0359,-7.0359,-6.9867,-6.9371,-6.9371,-6.9208,-6.9015,-6.9015,-6.9015,-6.9015,-6.9015,-6.9015,-6.8888,-6.8542,-6.81,-6.7714,-6.7512,-6.7223,-6.7157,-6.7447,-6.7613,-6.7455,-6.6961,-6.6895,-6.6895,-6.6895,-6.6472,-6.614,-6.5929,-6.5526,-6.4516,-6.3044,-6.2067,-6.031,-4.3382,-4.5829,-4.7765,-4.8679,-4.957,-5.0952,-5.3966,0.0,0.0,0.0,0.0,0.0,0.0,-6.301,-6.665,-6.8652,-7.2958,-7.7777,-8.2761,-8.614,-8.8045,-8.7987,-9.0546,0.0,-9.0457,-9.1324,-9.1974,-9.1786,-9.1576,-9.1498,-9.1699,-9.1444,-9.1277,-9.1277,-8.9729,-8.8716,-8.8375,-8.7712,-8.7331,-8.7286,-8.5643,-8.4112,-8.2675,-8.1366,-8.0777,-8.0821,-8.0606,0.0,-8.0059,-7.97,-7.9541,-7.9434,-7.9202,-7.9108,-7.9014,-7.8792,-7.8554,-7.8249,-7.771,-7.7159,-7.6649,-7.6442,-7.594,-7.5431,-7.5431,-7.5032,-7.4548,-7.4216,-7.4074,-7.3906,-7.2963,-7.2443,-7.2006,-7.1504,-7.1145,-7.0934,-7.0934,-7.0662,-7.0359,-7.0359,-6.9867,-6.9371,-6.9371,-6.9208,-6.9015,-6.9015,-6.9015,-6.9015,-6.9015,-6.9015,-6.9015,-6.8952,-6.8257,-6.7843,-6.7779,-6.7714,-6.7613,-6.7447,-6.7157,-6.7092,-6.7382,-6.7027,-6.6895,-6.6895,-6.6472,-6.6273,-6.6234,-6.5565,-6.465,-6.344,-6.1624,-5.9792,-4.3064,-4.5333,-4.7122,-4.8304,-4.9357,-5.0736,-5.3082,0.0,0.0,0.0,0.0,0.0,0.0,-6.111,-6.4064,-6.8358,-7.0776,-7.4228,-8.0326,-8.3714,-8.5931,-8.7038,-8.8851,-9.0101,-9.0396,-9.1359,-9.1811,-9.1576,-9.1629,-9.1629,-9.1532,-9.1629,-9.1203,-9.0142,-8.9161,-8.8461,-8.8032,-8.6982,-8.6797,-8.7475,-8.759,-8.6259,-8.3785,-8.3333,-8.2619,-8.1636,-8.0309,-7.9508,-7.9128,-7.8933,-7.8712,-7.8521,-7.9099,-7.9341,-7.9295,-7.8887,-7.8649,-7.8458,-7.7809,-7.7311,-7.6956,-7.6546,-7.6045,-7.559,-7.5484,-7.514,-7.4823,-7.4682,-7.4462,-7.4074,-7.3424,-7.2879,-7.2358,-7.1772,-7.1415,-7.1115,-7.0994,-7.0783,-7.0662,-7.0662,-7.0266,-6.9929,-6.9929,-6.9525,-6.9242,-6.9242,-6.9112,-6.9015,-6.9015,-6.9015,-6.9015,-6.9015,-6.8542,-6.8036,-6.7843,-6.7843,-6.7779,-6.7678,-6.7353,-6.7251,-6.7447,-6.647,-6.588,-6.588,-6.575,-6.5555,-6.5331,-6.5032,-6.376,-6.1523,-6.0692,-5.9258,-4.4101,0.0,-4.7682,-4.8891,-4.9807,-5.0942,0.0,-5.3348,0.0,0.0,0.0,0.0,0.0,-5.9841,-6.2188,-6.7613,-6.9293,-7.1825,-7.7383,-8.0575,0.0,-8.5802,-8.7084,-8.836,-9.0141,-9.0926,-9.1341,-9.1365,-9.1716,-9.1802,-9.1498,-9.1505,-9.0772,-8.9196,-8.8209,-8.7427,-8.6914,-8.5546,-8.5467,-8.6697,-8.8212,-8.7231,-8.4104,-8.466,-8.3796,-8.1724,-7.9925,-7.8622,-7.7841,-7.8253,-7.8102,-7.768,-7.9059,-7.9572,-7.9434,-7.8934,-7.8745,-7.8649,-7.7875,-7.7428,-7.7127,-7.67,-7.6254,-7.5749,-7.559,-7.5409,-7.5172,-7.5063,-7.4737,-7.4296,-7.3906,-7.331,-7.2706,-7.2243,-7.1772,-7.1385,-7.1235,-7.1115,-7.1055,-7.1055,-7.0693,-7.0359,-7.0359,-6.9867,-6.9496,-6.9433,-6.9242,-6.9049,-6.9015,-6.9015,-6.9015,-6.9015,-6.8669,-6.8321,-6.7972,-6.7972,-6.7908,-6.7843,-6.7678,-6.737,-6.6992,-6.6174,-6.5359,-6.4702,-6.4984,-6.4828,-6.4228,-6.4164,-6.27,-6.009,-5.9967,-5.8936,0.0,-4.8712,-4.9314,-5.0594,-4.9931,-4.9751,-5.2888,-5.271,0.0,-5.4408,-5.501,-5.5313,-5.5665,-5.8242,-6.0863,-6.2659,-6.6712,-7.0843,-7.4321,-7.7262,0.0,0.0,-8.7155,-8.8426,-8.9864,-8.9774,-9.0055,-9.1261,-9.162,-9.1837,-9.1897,-9.0786,-8.9904,-8.9382,-8.6459,-8.4418,-8.3534,-8.3549,-8.3603,-8.374,-8.5502,-8.4678,-8.1548,-8.3064,-8.1976,0.0,-7.9966,-7.8792,-7.6372,-7.8906,-7.9024,-7.768,-7.9262,-7.9743,-7.9434,-7.8934,-7.8745,-7.8649,-7.8086,-7.7628,-7.7177,-7.7127,-7.6565,-7.5802,-7.5802,-7.5749,-7.5644,-7.5172,-7.5041,-7.4846,-7.4383,-7.3737,-7.317,-7.2763,-7.2271,-7.1892,-7.1892,-7.1594,-7.1325,-7.1325,-7.0814,-7.0359,-7.0359,-7.0143,-6.9835,-6.9433,-6.9371,-6.9275,-6.9078,-6.9015,-6.9015,-6.9015,-6.8669,-6.8385,-6.8385,-6.8385,-6.8257,-6.7843,-6.7843,-6.7171,-6.5684,-6.6708,-6.6032,-6.3397,-6.4469,-6.4497,-6.3278,-6.2875,-6.2078,-6.0731,-6.0152,-5.8998,0.0,-5.0486,-5.1311,-5.1635,-5.2073,-5.2682,-5.3551,-5.3669,-5.3759,-5.4634,-5.5037,-5.5243,-5.5394,-5.6417,-5.8717,-6.3236,-6.5451,-6.8748,0.0,0.0,0.0,-8.389,-8.7206,-8.9782,-9.1501,-9.1051,-9.0863,-9.1331,-9.1673,-9.1349,-9.0194,-9.0191,-8.9537,-8.7891,-8.5681,-8.4641,-8.4737,-8.5002,-8.5492,-8.6285,-8.6297,-8.5452,-8.3803,-8.3767,-8.2728,-8.098,-8.0651,-7.8783,0.0,-7.8974,-7.8727,-7.6797,-7.9026,-7.9743,-7.9434,-7.8934,-7.8602,-7.841,-7.8071,-7.7727,-7.7378,-7.7228,-7.6822,-7.639,-7.6202,-7.615,-7.6097,-7.5622,-7.5409,-7.514,-7.4627,-7.4296,-7.3875,-7.2905,-7.2532,-7.233,-7.198,-7.1594,-7.1325,-7.1325,-7.1025,-7.0722,-7.0722,-7.0449,-7.0205,-6.9991,-6.9682,-6.9371,-6.9242,-6.9112,-6.9049,-6.9242,-6.8957,-6.8859,-6.9024,-6.9024,-6.8928,-6.8576,-6.8321,-6.7835,-6.7,-6.5971,-6.528,-6.5018,-6.3902,-6.3409,-6.3537,-6.2593,-6.1245,-5.959,-5.941,-5.874,-5.2589,-5.3985,-5.453,-5.3779,-5.4468,-5.5,-5.4154,-5.4282,-5.4585,-5.4765,-5.5037,-5.5217,-5.5319,-5.5729,-5.7814,-6.3179,-6.4843,0.0,0.0,0.0,0.0,-8.3188,-8.6281,-8.8905,-9.1065,-9.0591,-9.0376,-9.0898,-9.1241,-9.0836,-8.9494,-8.9502,-8.872,-8.6847,-8.4835,-8.4199,-8.5105,-8.4877,-8.5196,-8.6096,-8.5971,-8.5248,-8.4032,-8.3767,-8.271,-8.0983,-8.0487,-7.8654,-7.6202,-7.8974,-7.878,-7.6949,-7.9136,-7.9755,-7.9434,-7.8934,-7.8554,-7.8346,-7.8119,-7.7825,-7.7561,-7.7428,-7.7159,-7.6733,-7.6546,-7.6442,-7.6338,-7.6045,-7.5749,-7.5431,-7.4978,-7.4846,-7.4486,-7.3418,-7.3077,-7.2848,-7.2332,-7.1831,-7.1534,-7.1534,-7.1235,-7.0934,-7.0934,-7.0722,-7.051,-7.0388,-6.9991,-6.9682,-6.9587,-6.9396,-6.9334,-6.9371,-6.9305,-6.9396,-6.9587,-6.9496,-6.9338,-6.9146,-6.8864,-6.82,-6.6888,-6.5969,-6.5309,-6.4875,-6.3552,-6.2943,-6.3125,-6.1936,-6.0619,-5.9185,-5.9185,-5.8831,-5.8574,-5.9464,-5.9088,-5.7399,-5.6774,-5.6155,0.0,0.0,-5.4503,-5.4765,-5.5037,-5.5226,-5.5226,-5.6484,-5.8572,-6.1704,0.0,0.0,-7.3909,-7.7208,-8.0392,0.0,-8.4352,-8.5349,-8.7869,-8.7843,-8.8351,-8.9923,-9.0271,-9.0357,-9.0171,-8.8681,-8.7468,-8.6558,-8.3748,-8.2725,-8.3785,-8.2513,-8.1877,-8.1877,-8.3672,-8.3397,-8.129,-8.273,-8.1384,-7.8065,-7.9329,-7.8426,0.0,-7.8974,-7.939,-7.8444,-7.9617,-7.9869,-7.9434,-7.8934,-7.8554,-7.8346,-7.8346,-7.8006,-7.7578,-7.7875,-7.7428,-7.6784,-7.6784,-7.663,-7.639,-7.639,-7.6097,-7.5749,-7.5484,-7.527,-7.486,-7.4226,-7.3868,-7.3531,-7.2998,-7.2391,-7.1951,-7.1951,-7.1385,-7.0934,-7.0934,-7.0934,-7.0783,-7.0449,-7.0359,-7.0266,-7.005,-6.9988,-6.9835,-6.9433,-6.9773,-6.9959,-6.9959,-6.9591,-6.9404,-6.9312,-6.9312,-6.7982,-6.4872,-6.7092,-6.6444,-6.2379,-6.3495,-6.3403,-6.1848,-6.0915,-6.0228,-5.9854,-5.9854,-5.9417,-5.9271,-5.9968,-5.989,-5.9188,-5.8129,-5.7107,0.0,0.0,-5.4879,-5.5037,-5.514,-5.5226,-5.5226,-5.6562,-5.8672,0.0,0.0,-6.8762,-7.3784,-7.6285,-7.9253,-8.3677,0.0,-8.5704,-8.9469,-8.9503,-8.9841,-9.1121,-9.136,-9.0954,-8.9697,-8.8318,-8.7881,-8.8544,-8.5501,-8.451,-8.5839,-8.4523,-8.3801,-8.3603,-8.3321,-8.2518,-8.129,-8.1862,-8.112,-7.9329,-7.979,-7.8923,0.0,-7.9282,-7.939,-7.8444,-7.9617,-7.9869,-7.9434,-7.8934,-7.8458,-7.8071,-7.8298,-7.8119,-7.7875,-7.7924,-7.7528,-7.7025,-7.7025,-7.6752,-7.6442,-7.6597,-7.6442,-7.6202,-7.6338,-7.5992,-7.5431,-7.486,-7.4368,-7.3868,-7.3506,-7.2763,-7.2154,-7.198,-7.1534,-7.1145,-7.0994,-7.0934,-7.0934,-7.0783,-7.051,-7.0327,-7.0266,-7.0111,-6.9926,-6.9835,-6.9465,-6.8814,-6.7596,-6.7655,-6.7537,-6.7123,-6.7064,-6.6853,-6.6395,-6.6189,-6.6389,-6.7023,-6.4674,-6.3629,-6.385,-6.1722,-6.0429,-5.9854,-5.9854,-5.9622,-6.1645,-6.2204,-6.2054,-6.1239,-5.9796,-5.8418,-5.761,0.0,-5.5088,-5.5166,-5.5226,-5.5226,-5.5226,-5.6553,-5.8637,0.0,0.0,0.0,-7.4826,-7.7077,-7.9906,-8.4704,-8.5308,0.0,0.0,0.0,-8.992,-9.0961,-9.1234,-9.1094,-9.045,-8.8545,-8.8288,-9.0116,-8.5924,-8.4668,-8.6834,-8.4907,-8.3829,-8.3668,-8.2845,-8.1993,-8.1086,-8.1248,-8.0811,-7.9879,-8.0004,-7.9258,0.0,-7.9583,-7.9564,-7.8664,-7.9705,-7.9869,-7.9434,-7.8934,-7.841,-7.8022,-7.8216,-7.8168,-7.7973,-7.8071,-7.7727,-7.7278,-7.7177,-7.6873,-7.6578,-7.6597,-7.6494,-7.6442,-7.6733,-7.6442,-7.5887,-7.5323,-7.4728,-7.4178,-7.3756,-7.2963,-7.2241,-7.2126,-7.1831,-7.1475,-7.1175,-7.1085,-7.1055,-7.0994,-7.0722,-7.0571,-7.0571,-7.0479,-7.0118,-6.9433,-6.8427,-6.7446,-6.6382,-6.6526,-6.6526,-6.612,-6.6592,-6.6769,-6.6465,-6.6574,-6.7153,-6.82,-6.5408,-6.4184,-6.4756,-6.2213,-6.0771,-6.0257,-6.0142,-6.0056,-6.5064,-6.5563,-6.5181,-6.3656,-6.1869,-6.0027,-5.8208,0.0,0.0,-5.5252,-5.5217,-5.5226,-5.5226,-5.6746,0.0,0.0,0.0,-7.0118,-7.6426,-7.8959,-8.173,-8.6158,0.0,0.0,-9.0188,-8.9348,-8.909,-9.0074,-9.0307,-9.0828,-9.1877,-8.9256,-8.8846,-9.134,-8.5571,-8.3957,-8.7077,-8.4157,-8.2659,-8.262,-8.2393,-8.1795,-8.0915,-8.0915,-8.0559,-7.9925,-8.0048,-7.9579,0.0,-7.9991,-7.9925,-7.9094,-7.9782,-7.9824,-7.94,-7.8887,-7.841,-7.8022,-7.8265,-7.8216,-7.8022,-7.8265,-7.8006,-7.7511,-7.7278,-7.7007,-7.6752,-7.6546,-7.6442,-7.6494,-7.6752,-7.663,-7.6286,-7.5729,-7.514,-7.4572,-7.3899,-7.3077,-7.2416,-7.2358,-7.2126,-7.1862,-7.1444,-7.1385,-7.1265,-7.1055,-7.0994,-7.0904,-7.0815,-7.0815,-7.0066,-6.8278,-6.6856,-6.5941,-6.5823,-6.5794,-6.5765,-6.5765,-6.6976,-6.7034,-6.5592,-6.7658,-6.8379,-6.7273,-6.5876,-6.4998,-6.4756,-6.2386,-6.111,-6.0855,-6.0572,-6.0429,-6.7156,-6.7471,-6.749,-6.6899,-6.4454,-6.1799,-6.022,-5.8453,0.0,0.0,-5.5445,-5.5344,-5.5217,0.0,-6.1676,0.0,-6.8255,-7.3886,-7.669,-7.9751,-8.2616,0.0,-8.6325,0.0,-8.8925,-8.8821,0.0,-9.1374,-9.0823,-9.0828,-9.1877,-9.0269,-9.0088,-9.1784,-8.6868,-8.5237,-8.7358,-8.455,-8.2937,-8.2784,-8.2481,-8.1964,-8.1171,-8.1171,-8.0786,-8.0093,-8.0271,-8.0112,-7.9796,-8.0301,-8.02,-7.984,-8.0013,-7.9733,-7.9155,-7.8839,-7.8506,-7.8298,-7.8554,-7.8458,-7.8265,-7.8554,-7.8119,-7.7561,-7.7511,-7.7278,-7.7076,-7.7025,-7.6854,-7.6784,-7.7025,-7.6905,-7.6681,-7.6546,-7.5834,-7.5108,-7.4541,-7.3899,-7.3191,-7.2443,-7.2241,-7.2154,-7.1862,-7.1534,-7.1385,-7.1684,-7.1265,-7.0665,-6.9852,-6.9555,-6.8451,-6.5915,-6.5351,-6.4784,-6.377,-6.3461,-6.327,-6.3078,-6.4232,-6.5179,-6.5651,-6.7026,-6.8106,-6.8899,-6.6373,-6.5118,-6.5058,-6.2472,-6.111,-6.0855,-6.0572,-6.0286,-6.8151,-6.8293,-6.8355,-6.8159,-6.5584,-6.2627,-6.1025,0.0,0.0,0.0,-5.5544,-5.5359,-5.5319,-5.9288,0.0,-6.4416,-7.033,-7.5842,-7.8959,-8.1195,-8.3028,-8.4471,-8.6857,-8.8439,-8.8612,-8.9317,-9.039,-9.1815,-9.1044,-9.0793,-9.1447,-9.1197,-9.0989,-9.0934,-8.6259,-8.4585,-8.6444,-8.4018,-8.2826,-8.2826,-8.2244,-8.172,-8.1256,-8.1129,-8.0752,-8.0315,-8.0569,-8.0213,-7.9601,-8.0219,-8.004,-7.9385,-7.9655,-7.963,-7.9248,-7.8887,-7.8649,-7.8554,-7.8697,-7.8554,-7.8395,-7.8649,-7.8313,-7.7727,-7.7611,-7.7428,-7.7328,-7.7228,-7.7076,-7.7058,-7.7278,-7.7159,-7.7007,-7.7109,-7.6597,-7.5887,-7.5302,-7.4399,-7.3475,-7.2879,-7.2679,-7.2505,-7.2154,-7.1831,-7.1653,-7.1653,-7.0694,-6.9797,-6.9284,-6.8654,-6.7156,-6.4292,-6.3884,-6.3506,-6.282,-6.2682,-6.2495,-6.2251,-6.3406,-6.4647,-6.5856,-6.6762,-6.7959,-6.9342,-6.6671,-6.5267,-6.5118,-6.2673,-6.1308,-6.0855,-6.0714,-6.0372,-6.8959,-6.9251,-6.9369,-6.8988,-6.6566,-6.3732,-6.1738,-6.0092,0.0,0.0,-5.6054,-5.5881,-5.5846,-5.978,-6.4045,-6.7182,-7.224,-7.7275,-8.1435,-8.2713,-8.3653,0.0,-8.7754,-8.9474,-8.8998,-9.0126,0.0,-9.1584,-9.103,-9.0825,-9.1221,-9.2061,-9.1694,-8.9898,-8.5956,-8.432,-8.5297,-8.3447,-8.2633,-8.2749,-8.1964,-8.1514,-8.134,-8.112,-8.0872,-8.0656,-8.0915,-8.036,-7.939,-8.0232,-7.9864,-7.8878,-7.9385,-7.9526,-7.9387,-7.8934,-7.8792,-7.8792,-7.8792,-7.8602,-7.841,-7.8649,-7.841,-7.7891,-7.7759,-7.7628,-7.7611,-7.7378,-7.7278,-7.7278,-7.7511,-7.7378,-7.7278,-7.7511,-7.721,-7.67,-7.6097,-7.4914,-7.3787,-7.3341,-7.3055,-7.2767,-7.2474,-7.2185,-7.1921,-7.1623,-7.0422,-6.9315,-6.8865,-6.7807,-6.6088,-6.3269,-6.2761,-6.2682,-6.2682,-6.2628,-6.2495,-6.2251,-6.3462,-6.4673,-6.562,-6.6705,-6.7755,-6.8821,-6.6677,-6.5328,-6.4828,-6.2756,-6.142,-6.0884,-6.0828,-6.0486,-7.0886,-7.187,-7.2511,-7.1117,-6.9246,-6.6933,-6.3768,-6.2761,-6.1648,-5.8613,0.0,-5.774,-5.7755,-6.1507,-6.5701,-6.8946,0.0,-7.9491,-8.1718,-8.3643,-8.527,-8.6442,-8.8191,-8.9508,-9.0097,-9.037,-9.0432,-9.0447,-9.0743,-9.1355,-9.2414,-9.2942,-9.2186,-9.0034,-8.9362,-8.7775,-8.5207,-8.3749,-8.2972,-8.2659,-8.2314,-8.1964,-8.1761,-8.1583,-8.1526,-8.1492,-8.1526,-8.1313,-8.0939,-8.0847,-8.0433,-7.9878,-7.9869,-7.9559,-7.9155,-7.9108,-7.9061,-7.9061,-7.9061,-7.892,-7.8697,-7.8711,-7.841,-7.8022,-7.8201,-7.8071,-7.7924,-7.7875,-7.7677,-7.7511,-7.7561,-7.7561,-7.7511,-7.7561,-7.7328,-7.7025,-7.67,-7.5729,-7.4564,-7.3511,-7.3055,-7.2856,-7.2825,-7.2505,-7.2358,-7.2651,-7.2063,-7.0682,-6.8321,-6.6702,-6.5065,-6.3179,-6.2976,-6.2922,-6.2922,-6.2736,-6.2495,-6.2251,-6.3655,-6.4372,-6.4096,-6.674,-6.7686,-6.6534,-6.5974,-6.5035,-6.3749,-6.209,-6.1252,-6.1166,-6.0743,-6.0458,-7.0792,-7.1179,-7.0984,-7.1123,-6.9108,-6.6489,-6.4011,-6.3259,-6.244,-6.0202,-6.0275,0.0,-6.0851,-6.4864,-6.9146,0.0,0.0,0.0,-8.3095,-8.4485,-8.5364,0.0,-8.7831,0.0,-8.8175,-8.9539,-9.0445,-9.0326,-8.9903,-8.9954,-9.0701,-9.066,-9.0034,-8.8852,-8.8018,-8.6469,-8.4067,-8.3214,-8.2706,-8.2581,-8.2108,-8.1871,-8.1842,-8.17,-8.1651,-8.1651,-8.1492,-8.129,-8.1001,-8.0578,-8.0227,-7.9981,-7.9572,-7.9387,-7.9341,-7.9155,-7.9202,-7.9341,-7.9341,-7.9108,-7.8745,-7.8745,-7.841,-7.794,-7.8071,-7.8071,-7.794,-7.794,-7.7875,-7.7776,-7.7776,-7.7776,-7.7776,-7.7776,-7.7578,-7.7361,-7.726,-7.6565,-7.5729,-7.4674,-7.3762,-7.3086,-7.2913,-7.2563,-7.2358,-7.2563,-7.1576,-7.0189,-6.8384,-6.7538,-6.622,-6.378,-6.3327,-6.322,-6.322,-6.2952,-6.2682,-6.244,-6.3054,-6.3652,-6.4198,-6.5176,-6.615,-6.7183,-6.6327,-6.5827,-6.5768,-6.4566,-6.3398,-6.2326,-6.1925,-6.1146,-6.9604,-6.9881,-6.9784,-7.0428,-6.8619,-6.6277,-6.46,-6.3942,-6.3247,-6.1845,-6.2618,-6.364,0.0,0.0,0.0,-7.4983,-7.8233,0.0,-8.4323,-8.4753,0.0,-8.5384,0.0,-8.7834,-8.6981,-8.8777,0.0,-8.9763,-8.9128,-8.9005,-8.9579,-8.8929,-8.8163,-8.7351,-8.6272,-8.4938,-8.3277,-8.2752,-8.2516,-8.2542,-8.2102,-8.1946,-8.2039,-8.1946,-8.1858,-8.1782,-8.1507,-8.1256,-8.0915,-8.0403,-8.0093,-7.9891,-7.9387,-7.9387,-7.9572,-7.9387,-7.9467,-7.9618,-7.9526,-7.9168,-7.8745,-7.8745,-7.841,-7.7973,-7.8022,-7.8071,-7.8071,-7.8071,-7.8071,-7.8022,-7.7973,-7.794,-7.794,-7.794,-7.7727,-7.7561,-7.7561,-7.7109,-7.6442,-7.5697,-7.4486,-7.3511,-7.3227,-7.2852,-7.2532,-7.2532,-7.1506,-7.0293,-6.9145,-6.8687,-6.7423,-6.4758,-6.3917,-6.3614,-6.3861,-6.34,-6.3072,-6.3104,-6.2861,-6.3074,-6.3889,-6.3934,-6.4912,-6.7035,-6.6444,-6.6239,-6.6471,-6.6062,-6.4742,-6.2703,-6.2734,-6.1808,-6.7301,-6.9098,-7.1003,-6.9336,-6.8727,-6.8051,-6.6338,-6.5753,-6.517,-6.3725,-6.464,-6.5845,0.0,0.0,-7.2303,-7.7013,-7.9075,-8.1265,-8.4618,-8.3945,-8.4187,0.0,0.0,0.0,0.0,0.0,0.0,-8.8018,-8.864,-8.9503,-9.0609,-8.9383,-8.7751,-8.5891,-8.575,-8.4975,-8.3391,-8.2981,-8.2633,-8.2239,-8.2467,-8.2581,-8.2581,-8.2581,-8.2428,-8.216,-8.1924,-8.1555,-8.1171,-8.0656,-8.0315,-8.0015,-7.963,-7.9618,-7.9868,-7.9834,-7.9834,-7.9834,-7.9572,-7.9168,-7.8745,-7.8745,-7.841,-7.7989,-7.8216,-7.8346,-7.8346,-7.8346,-7.8346,-7.8265,-7.7989,-7.794,-7.794,-7.794,-7.7727,-7.7561,-7.7561,-7.6956,-7.6286,-7.5855,-7.514,-7.4462,-7.4035,-7.3593,-7.3227,-7.3227,-7.2967,-7.2241,-7.0798,-6.9348,-6.7758,-6.5971,-6.4674,-6.4356,-6.5295,-6.4132,-6.3653,-6.4412,-6.3501,-6.2766,-6.234,-6.3962,-6.4677,-6.4377,-6.5529,-6.5355,-6.3748,-6.4713,-6.3838,-6.1368,-6.2329,-6.1924,-6.7661,-6.8362,-6.8519,-6.8954,-6.8024,-6.683,-6.6354,-6.6673,-6.7017,-6.6729,-6.8642,-7.0456,-7.0736,-7.3511,-7.658,-7.9157,-8.1074,-8.2911,-8.4857,-8.4772,-8.4808,-8.5632,-8.5998,-8.5946,0.0,0.0,0.0,-8.6861,-8.7373,-8.7766,-8.801,-8.6663,-8.5917,-8.5975,-8.4985,-8.4137,-8.3393,-8.2981,-8.2749,-8.2594,-8.2624,-8.2624,-8.2745,-8.2659,-8.2467,-8.2199,-8.1871,-8.1458,-8.0958,-8.0447,-8.0093,-7.9936,-7.9834,-7.9743,-7.9663,-7.9834,-7.9788,-7.9663,-7.9824,-7.9596,-7.9168,-7.9061,-7.8745,-7.8377,-7.8168,-7.8216,-7.8298,-7.8119,-7.8216,-7.8298,-7.7989,-7.794,-7.794,-7.794,-7.7727,-7.7561,-7.7561,-7.721,-7.6719,-7.6254,-7.5622,-7.4978,-7.4541,-7.3931,-7.3511,-7.3511,-7.3284,-7.2588,-7.117,-6.9655,-6.8453,-6.7824,-6.6409,-6.5974,-6.7265,-6.6516,-6.5732,-6.5176,-6.4557,-6.3819,-6.2766,-6.2965,-6.3837,-6.5265,-6.565,-6.6356,-6.732,-6.7667,-6.6934,-6.521,-6.4386,-6.328,-6.5301,-6.6026,-6.6243,-6.7335,-6.6883,-6.6259,-6.6331,-6.7231,-6.8186,-6.8453,-7.0923,-7.3163,-7.333,-7.6222,-7.9031,-8.0376,-8.2115,-8.374,-8.5086,-8.4866,-8.4659,-8.4908,-8.5443,0.0,0.0,0.0,-8.8264,-8.7827,-8.7622,-8.741,-8.7231,-8.5419,-8.464,-8.5308,-8.4318,-8.3608,-8.3318,-8.2978,-8.2826,-8.2826,-8.2663,-8.2741,-8.2902,-8.2668,-8.2393,-8.2079,-8.1665,-8.1248,-8.0829,-8.0281,-8.0093,-8.0071,-7.9925,-7.9879,-7.9812,-7.9936,-7.98,-7.9663,-7.9947,-7.9812,-7.948,-7.9295,-7.9061,-7.8745,-7.8216,-7.8313,-7.8539,-7.8168,-7.8313,-7.8506,-7.8168,-7.8168,-7.8183,-7.8119,-7.7875,-7.771,-7.7776,-7.7478,-7.7076,-7.6719,-7.615,-7.5569,-7.4978,-7.4462,-7.4074,-7.3906,-7.3737,-7.3283,-7.232,-7.0688,-6.9556,-6.9477,-6.8055,-6.7702,-6.8998,-6.8273,-6.7357,-6.6395,-6.5973,-6.4996,-6.3173,-6.3129,-6.3837,-6.5294,-6.5239,-6.5856,-6.7316,-6.8193,-6.7726,-6.597,-6.5201,-6.4122,-6.0253,-6.2183,-6.4624,-6.4423,-6.541,-6.6425,-6.6438,-6.7579,-6.8625,-6.8681,-7.1219,-7.351,-7.3529,-7.6367,-7.9206,-8.062,-8.2063,-8.3589,-8.5292,-8.4124,-8.3637,-8.5149,-8.4155,-8.4192,-8.6378,-8.9365,-9.1027,-9.0757,-8.9454,-8.8608,-8.8541,-8.5881,-8.4178,-8.3788,-8.3788,-8.3607,-8.3199,-8.294,-8.2826,-8.2826,-8.2663,-8.2854,-8.3164,-8.2675,-8.2244,-8.1802,-8.1423,-8.1086,-8.0829,-8.0281,-8.0271,-8.0437,-8.006,-8.0116,-8.0437,-8.0193,-8.0037,-7.9879,-7.9879,-7.9743,-7.9526,-7.9526,-7.9341,-7.9014,-7.8539,-7.873,-7.9014,-7.8491,-7.873,-7.9014,-7.8491,-7.8554,-7.8649,-7.8443,-7.8168,-7.8022,-7.8265,-7.7727,-7.7177,-7.7177,-7.6752,-7.615,-7.5537,-7.5194,-7.4846,-7.4383,-7.4272,-7.4241,-7.4272,-7.2469,-7.1133,-7.0859,-6.9661,-6.9275,-7.0255,-6.9186,-6.8282,-6.7797,-6.7517,-6.6204,-6.3447,-6.4312,-6.4643,-6.4171,-6.4114,-6.3859,-6.3198,-6.5757,-6.567,-6.3285,-6.4507,-6.4213,-6.1565,0.0,0.0,-6.4348,-6.4771,-6.5193,-6.6245,-6.759,-6.8984,-7.0176,-7.2063,-7.387,-7.5095,-7.7278,-7.9332,-8.0761,-8.2296,-8.3769,-8.5205,-8.4911,-8.4709,-8.514,-8.5819,-8.6878,-8.8335,-9.0295,-9.0934,-8.9611,-8.9149,-8.7979,-8.5806,-8.4914,-8.4282,-8.3788,-8.386,-8.3609,-8.2902,-8.2864,-8.2826,-8.2826,-8.2749,-8.2899,-8.3199,-8.3051,-8.2555,-8.1802,-8.1624,-8.1248,-8.0829,-8.0281,-8.0271,-8.0437,-8.0138,-8.0093,-8.0193,-8.0104,-8.0059,-8.0048,-8.0048,-8.0004,-7.9914,-7.98,-7.9743,-7.9559,-7.8839,-7.8981,-7.9295,-7.8745,-7.8981,-7.9261,-7.8745,-7.8697,-7.8697,-7.8649,-7.841,-7.8216,-7.8313,-7.7875,-7.7428,-7.7428,-7.6905,-7.6202,-7.5749,-7.5302,-7.49,-7.4572,-7.4517,-7.4493,-7.4272,-7.3507,-7.281,-7.2329,-7.1074,-7.0343,-7.0598,-7.0154,-6.8861,-6.6578,-6.6214,-6.5156,-6.3173,-6.3173,-6.3499,-6.4114,-6.3857,-6.404,-6.4594,-6.5292,-6.5292,-6.4565,-6.3983,-6.3489,-5.8355,0.0,0.0,0.0,-6.3086,-6.3886,-6.5334,-6.6775,-6.8263,-6.9786,-7.1962,-7.4005,-7.5563,-7.7975,-7.9984,0.0,-8.2758,-8.4407,-8.5278,-8.5271,-8.5148,-8.5244,-8.7119,-8.8711,-8.9296,-9.0688,-9.1113,-9.0151,-8.8797,-8.7303,-8.5622,-8.4909,-8.4349,-8.386,-8.3932,-8.3646,-8.2978,-8.294,-8.294,-8.294,-8.294,-8.3054,-8.3279,-8.3092,-8.2671,-8.2045,-8.1665,-8.1248,-8.0829,-8.0281,-8.0315,-8.0578,-8.0237,-8.0237,-8.0369,-8.0148,-8.0148,-8.0271,-8.0148,-8.0104,-8.0059,-7.9992,-7.9936,-7.9788,-7.9248,-7.9341,-7.9618,-7.9295,-7.9434,-7.9572,-7.9168,-7.9075,-7.8981,-7.8792,-7.8602,-7.8506,-7.8506,-7.8201,-7.7858,-7.7727,-7.7328,-7.6822,-7.615,-7.5675,-7.5194,-7.4846,-7.49,-7.49,-7.4572,-7.4296,-7.385,-7.3284,-7.2346,-7.1525,-7.0803,-7.0603,-6.9242,-6.6225,-6.6317,-6.5446,-6.3227,-6.3406,-6.355,-6.3511,-6.3176,-6.3219,-6.3721,-6.4129,-6.4303,-6.4303,-6.3547,-6.285,-5.2586,0.0,0.0,-5.8493,-6.0094,-6.1734,0.0,0.0,-6.6327,-6.7784,-7.067,-7.34,-7.5073,-7.8113,-8.044,-8.0808,-8.3133,-8.5055,-8.5472,-8.5298,-8.5176,-8.5298,-8.7834,-8.9498,-8.9361,-9.0438,-9.1075,-9.1045,-8.8371,-8.6697,-8.6657,-8.5301,-8.431,-8.3754,-8.3896,-8.3647,-8.2956,-8.3132,-8.3202,-8.3202,-8.3202,-8.3277,-8.3356,-8.2981,-8.2671,-8.2402,-8.1631,-8.1129,-8.0872,-8.0325,-8.0447,-8.0829,-8.0325,-8.0447,-8.0786,-8.0281,-8.0227,-8.0393,-8.0138,-8.0059,-8.0059,-8.0059,-7.9992,-7.9834,-7.9572,-7.9709,-7.9925,-7.9879,-7.9879,-7.9879,-7.9618,-7.9526,-7.9387,-7.8934,-7.8806,-7.8806,-7.8806,-7.8602,-7.8346,-7.8086,-7.7973,-7.7545,-7.6546,-7.6045,-7.5558,-7.4981,-7.5206,-7.5323,-7.5063,-7.4791,-7.4407,-7.3737,-7.3454,-7.2614,-7.0921,-7.0465,-6.9066,-6.6196,-6.69,-6.6178,-6.3447,-6.4222,-6.4063,-6.2604,-6.2331,-6.2086,-6.1839,-6.2556,-6.2995,-6.2995,-6.2995,-6.2239,0.0,0.0,0.0,0.0,0.0,0.0,0.0,0.0,-6.1679,-6.4438,-6.6522,-6.9108,-7.316,-7.5645,-7.7939,-8.044,-8.2309,-8.3902,-8.5358,-8.5298,-8.5176,-8.5298,-8.6861,-8.7813,-8.7573,-8.8832,-8.9154,-8.8043,-8.7298,-8.6372,-8.5219,-8.4762,-8.3845,-8.2328,-8.3363,-8.3188,-8.1489,-8.2607,-8.3202,-8.3202,-8.3202,-8.3277,-8.3356,-8.2981,-8.2671,-8.2368,-8.183,-8.145,-8.1129,-8.0578,-8.0612,-8.0829,-8.0491,-8.0447,-8.0525,-8.0193,-8.0048,-8.0015,-7.997,-7.997,-7.997,-7.997,-7.9925,-7.9834,-7.9572,-7.9767,-8.0004,-7.9925,-7.9981,-8.0004,-7.9846,-7.9663,-7.948,-7.9354,-7.9354,-7.9354,-7.9354,-7.9155,-7.8873,-7.8649,-7.7891,-7.7094,-7.6345,-7.5823,-7.5155,-7.4207,-7.4868,-7.5323,-7.5063,-7.4791,-7.4407,-7.3737,-7.3454,-7.2614,-7.0921,-6.874,-6.6592,-6.4507,-6.4606,-6.4219,-6.3113,-6.3269,-6.3137,-6.2604,-6.2331,-6.2196,-6.2141,-6.1765,-6.1799,-6.2052,-6.1742,-6.082,0.0,0.0,0.0,0.0,0.0,0.0,0.0,0.0,0.0,0.0,0.0,-6.5791,-7.0558,0.0,-7.6084,-7.9259,-8.1486,-8.3421,-8.5256,-8.5298,-8.518,-8.5244,-8.6545,-8.7347,-8.7008,-8.7585,-8.7693,-8.7046,-8.6159,-8.534,-8.4721,-8.4619,-8.377,-8.2102,-8.329,-8.3153,-8.1387,-8.2652,-8.3316,-8.3316,-8.2689,-8.276,-8.3321,-8.2362,-8.2095,-8.2402,-8.1918,-8.1507,-8.1213,-8.112,-8.1078,-8.1044,-8.0786,-8.0612,-8.0403,-8.0193,-8.0048,-7.9891,-7.9015,-7.8678,-7.8633,-7.869,-7.86,-7.8599,-7.9531,-7.8957,-7.8238,-7.9061,-7.8136,-7.7043,-7.764,-7.8117,-7.8307,-7.8203,-7.8864,-7.948,-7.9341,-7.8693,-7.8266,-7.8801,-7.7157,-7.5647,-7.579,-7.4581,-7.3396,-7.2877,-7.3358,-7.3652,-7.3268,-7.3079,-7.2709,-7.1872,-7.1575,-7.1076,-7.0231,-6.801,-6.6353,-6.5529,-6.4521,-6.3652,-6.303,-6.2976,-6.2922,-6.2761,-6.1896,-6.1384,-6.1223,-5.9951,-5.9359,-5.9359,-5.8783,-5.8108,0.0,0.0,0.0,0.0,0.0,0.0,0.0,0.0,0.0,0.0,0.0,0.0,0.0,0.0,0.0,-7.7196,-8.0268,-8.2897,-8.4792,-8.4866,-8.4821,-8.5144,-8.6512,-8.7206,-8.6547,-8.6625,-8.6662,-8.6444,-8.5165,-8.4453,-8.4552,-8.4586,-8.3839,-8.2269,-8.311,-8.2939,-8.1664,-8.2551,-8.3111,-8.3393,-8.2446,0.0,-8.3321,-8.198,-8.1753,-8.2402,-8.2004,-8.1631,-8.1256,-8.1534,-8.145,-8.1137,-8.0778,-8.0258,-7.9641,-7.9085,-7.8818,-7.8595,-7.7499,-7.7009,-7.6899,-7.7356,-7.7279,-7.7355,-7.9397,-7.8321,0.0,-7.8222,-7.6633,-7.4755,-7.596,-7.6926,-7.7491,-7.6963,-7.8003,-7.8944,-7.8492,-7.7546,-7.7156,-7.8467,-7.6127,-7.417,-7.5156,-7.3207,-7.1555,-7.1457,-7.191,-7.2071,-7.1474,-7.1442,-7.1057,-7.0128,-6.9866,-6.9561,-6.9153,-6.7504,-6.6452,-6.6257,-6.4703,-6.3348,-6.2387,-6.2117,-6.1824,-6.1503,-6.0465,-5.9848,-5.9669,-5.8052,-5.7224,-5.7036,-5.5547,-5.4921,0.0,0.0,0.0,0.0,0.0,0.0,0.0,0.0,0.0,0.0,0.0,0.0,0.0,0.0,0.0,0.0,-7.8083,-8.145,-8.3049,-8.3241,-8.375,-8.5154,-8.6609,-8.6809,-8.5178,-8.612,-8.6302,-8.4909,-8.4624,-8.4552,-8.4586,-8.4586,0.0,0.0,0.0,-8.2047,-8.1664,-8.1668,-8.2233,-8.3393,-8.3253,-8.3253,-8.3356,-8.2844,-8.2539,-8.2402,-8.2004,-8.1631,-8.1256,-8.1534,-8.1366,-8.0821,-8.0137,-7.86,-7.6661,-7.5123,-7.4252,-7.402,-7.5232,0.0,0.0,-7.672,-7.7111,-7.7355,-7.9317,-7.8879,-7.7813,-7.824,-7.7942,-7.7533,-7.7659,-7.8465,-7.8843,-7.7457,-7.7301,-7.7111,-7.6045,-7.5555,-7.5692,-7.7111,-7.5134,-7.3603,-7.4865,-7.2843,-7.0944,-7.0554,-7.183,-7.2543,-7.1774,-7.181,-7.1447,-7.0441,0.0,0.0,-6.7526,-6.6533,-6.5247,-6.356,-6.3245,-6.2233,-6.028,-5.8991,-5.7686,-5.6303,-5.6992,-5.7384,-5.7522,-5.7176,-5.7171,-5.7376,-5.3324,-5.1979,0.0,0.0,0.0,0.0,0.0,0.0,0.0,0.0,0.0,0.0,0.0,0.0,0.0,0.0,0.0,0.0,-7.4874,-7.7151,-7.871,-8.1342,-8.3265,-8.3698,-8.518,-8.5733,-8.4721,-8.4953,-8.5026,-8.4588,-8.4313,-8.4349,-8.4516,-8.4586,-8.3839,-8.2269,-8.2824,-8.2689,-8.1664,-8.2269,-8.2867,-8.3393,-8.1775,-8.1846,-8.3286,-8.0397,-8.0314,-8.2333,-8.1189,-8.1002,-8.1534,-8.183,-8.159,-8.0889,0.0,0.0,0.0,0.0,-7.4668,-7.4355,-7.5156,-7.5065,-7.4926,-7.682,-7.7234,-7.7355,-7.9306,-7.7808,-7.5663,-7.6712,-7.5123,-7.3248,-7.4009,-7.5799,-7.6969,-7.5409,-7.6223,-7.702,-7.5694,-7.4556,-7.4408,-7.6541,-7.3871,0.0,-7.2913,-7.1208,-6.955,-6.9158,-6.9848,-7.0159,-6.9546,-6.9514,-6.9339,-6.871,-6.8267,-6.7747,-6.71,-6.6485,0.0,0.0,0.0,-6.2191,-6.0415,-5.9484,0.0,0.0,0.0,0.0,0.0,0.0,0.0,0.0,-4.6243,-4.572,0.0,0.0,0.0,0.0,0.0,0.0,0.0,0.0,0.0,0.0,0.0,0.0,0.0,0.0,0.0,0.0,-7.1066,-7.3014,-7.4578,-7.8192,-8.0823,-8.1453,-8.3205,-8.4159,-8.3369,-8.3391,-8.3572,-8.3843,-8.3215,-8.3288,-8.4481,-8.4124,-8.3556,-8.271,-8.2756,-8.2584,-8.2127,-8.2163,-8.2408,-8.2723,-8.0751,-8.0822,-8.2617,-7.9168,-7.9444,-8.245,-8.1177,-8.103,-8.1617,-8.1583,-8.1134,-8.0281,-7.7307,-7.5595,-7.4708,-7.4213,-7.379,-7.3456,-7.3978,-7.3857,-7.3757,-7.5655,-7.6027,-7.6151,-7.8151,-7.6374,-7.388,-7.5129,-7.3203,-7.1063,-7.2404,-7.4586,-7.5977,-7.4488,-7.5647,-7.6531,-7.4761,-7.3607,-7.3565,-7.5503,-7.2821,-7.0565,-7.155,-7.0285,-6.898,-6.842,-6.8555,-6.8555,-6.8023,-6.8023,-6.7977,-6.7667,-6.7104,-6.6818,-6.7056,-6.6373,-6.5265,-6.3737,-6.2948,-6.1741,-5.9931,-5.9241,-5.7754,-5.5134,-5.2035,-4.9466,0.0,0.0,0.0,0.0,0.0,0.0,0.0,0.0,0.0,0.0,0.0,0.0,0.0,0.0,0.0,0.0,0.0,0.0,0.0,0.0,0.0,0.0,0.0,0.0,-7.1489,-7.3105,-7.5308,-7.8283,-8.1051,-8.1977,-8.0192,-8.1283,-8.2073,-8.2107,-8.0686,-8.1214,-8.4374,-8.3125,-8.2781,-8.386,-8.1229,-8.0988,-8.3287,-8.061,-7.987,-8.1138,-8.1032,-8.1032,-8.1138,-8.0853,-8.1475,-8.2787,-8.2629,-8.2154,-8.1548,-8.0317,-7.9381,-7.8533,-7.5623,-7.3375,-7.1482,-7.0128,-6.9432,-6.9371,-7.0665,-7.0805,-7.0784,-7.2465,-7.2849,-7.3041,-7.5267,-7.4759,-7.3589,-7.3991,-7.3917,-7.4063,-7.5496,-7.6849,-7.7524,-7.6087,-7.5816,-7.5079,-7.2292,-7.2378,-7.3186,-7.3527,-7.2155,-7.1066,-7.1638,-7.0722,-6.9633,-6.8735,-6.8857,0.0,-6.8284,-6.842,-6.851,-6.8206,-6.7977,-6.7574,-6.7104,-6.5783,-6.4185,-6.2352,-6.1764,-6.0363,-5.7903,-5.7074,-5.5603,-5.3347,-4.9645,-4.6741,-4.463,0.0,0.0,0.0,0.0,0.0,0.0,0.0,0.0,0.0,0.0,0.0,0.0,0.0,0.0,0.0,0.0,0.0,0.0,0.0,0.0,0.0,0.0,0.0,0.0,-7.0155,-7.3094,-7.4843,-7.694,-7.8184,-7.7982,-7.8452,-7.9266,-8.0401,-7.9844,-8.0019,-8.138,-8.0985,-8.0751,-8.0883,-7.9924,-8.0216,-8.1843,-8.0857,-8.0611,-8.1032,-8.0012,-7.9484,-7.9449,-7.7236,-7.7482,-7.9643,-7.8482,-7.8284,-7.8793,-7.8319,-7.7139,-7.531,-7.2303,-7.0574,-6.9661,-6.8057,-6.7968,-6.8514,-6.8038,-6.9779,-7.2406,-7.2952,-7.3011,-7.3003,-7.37,-7.3707,-7.3507,-7.3636,-7.3203,-7.2789,-7.3224,-7.4446,-7.5236,-7.374,-7.3952,-7.4035,-7.2225,-7.1879,-7.2121,-7.2851,-7.2449,-7.161,-7.0503,-7.0135,-6.9718,-6.899,-6.9046,-6.9013,-6.878,-6.8678,-6.8555,-6.851,-6.7931,-6.7481,-6.734,-6.7064,-6.5645,-6.2929,-6.2391,-6.0552,-5.6823,-5.6034,-5.4517,-5.2134,-4.8675,-4.5762,-4.3609,0.0,0.0,0.0,0.0,0.0,0.0,0.0,0.0,0.0,0.0,0.0,0.0,0.0,0.0,0.0,0.0,0.0,0.0,0.0,0.0,0.0,0.0,0.0,0.0,0.0,0.0,-7.0695,-7.2314,0.0,-7.2912,-7.2456,-7.3054,-7.5257,-7.5271,-7.6327,-7.8857,-7.8527,-7.8579,-7.9352,-7.8789,-7.9086,-8.0364,-7.9695,-7.9379,-7.9414,-7.8359,-7.7866,-7.79,-7.569,-7.5976,-7.8072,-7.695,-7.6722,-7.7098,-7.5328,-7.3404,-7.1335,-6.9199,-6.823,-6.7943,-6.6732,-6.6886,-6.7513,-6.6497,-6.8195,-7.0854,-7.0774,-7.0403,-7.0073,-7.0491,-7.0165,-7.0009,-7.1602,-7.1344,-7.0859,-7.2316,-7.3516,-7.4072,-7.3046,-7.3399,-7.3549,-7.2089,-7.1913,-7.1683,-7.08,-7.0544,-6.9912,-6.8043,-6.781,-6.7688,-6.7185,-6.7445,-6.7843,-6.8325,-6.8586,-6.869,-6.8645,-6.8251,-6.7885,-6.7621,-6.7263,-6.5964,-6.3286,-6.171,-5.9496,-5.6376,-5.4589,-5.2674,-5.0513,-4.7608,-4.4119,0.0,0.0,0.0,0.0,0.0,0.0,0.0,0.0,0.0,0.0,0.0,0.0,0.0,0.0,0.0,0.0,0.0,0.0,0.0,0.0,0.0,0.0,0.0,0.0,0.0,0.0,0.0,-6.6042,-6.7225,0.0,0.0,0.0,0.0,-6.6961,-6.7385,-7.0163,-7.6265,-7.543,-7.6006,-7.8697,-7.74,-7.7347,-7.8843,-7.7022,-7.6217,-7.6562,-7.6217,-7.6217,-7.6457,-7.6041,-7.6606,-7.7897,-7.768,-7.7237,-7.6279,-7.1369,-6.8446,-6.6898,-6.6293,-6.6042,-6.5866,-6.5454,-6.5449,-6.5702,-6.5439,-6.5731,-6.6165,-6.5913,-6.5011,-6.4214,-6.5533,-6.431,0.0,0.0,-6.8218,-6.8394,-7.2448,-7.3672,-7.3843,-7.3843,-7.3911,-7.3452,-7.1832,-7.2182,-7.1636,-6.755,-6.6674,-6.6059,-6.4397,0.0,-6.3721,-6.3572,-6.4283,-6.5397,-6.6954,-6.8226,-6.8901,-6.86,-6.8768,-6.86,-6.7788,-6.6486,-6.4948,-6.3263,-5.9879,-5.74,-5.6131,-5.2665,-4.9971,-4.8237,-4.614,0.0,0.0,0.0,0.0,0.0,0.0,0.0,0.0,0.0,0.0,0.0,0.0,0.0,0.0,0.0,0.0,0.0,0.0,0.0,0.0,0.0,0.0,0.0,0.0,0.0,0.0,-5.7984,-6.1331,-6.2199,-6.1805,-6.1031,0.0,0.0,0.0,0.0,0.0,0.0,-6.5399,-6.7265,-6.8561,-6.9081,-7.0835,-7.2865,-7.5195,-7.4708,-7.5061,-7.6287,-7.5026,-7.46,-7.4732,-7.228,-7.2506,-7.4718,-7.322,-7.2347,-7.1639,-6.7949,-6.599,-6.4989,-6.1567,-5.9469,-5.8255,-5.7079,-5.7285,-5.816,-5.7992,-5.9963,-6.2296,-6.0477,-5.9434,-5.8792,-5.8594,0.0,0.0,0.0,0.0,-6.4957,-6.5996,-6.8676,-7.1181,-7.1181,-7.1621,-7.1681,-7.0352,-7.0004,-6.8901,-6.55,-6.3734,-6.2381,-6.0946,-6.0744,0.0,-6.057,-6.2327,-6.4204,-6.5746,-6.7398,-6.842,-6.8329,-6.7667,-6.6924,-6.6039,-6.5453,-6.3771,-6.0534,-5.918,-5.6443,-5.1938,-5.0091,-4.715,-4.2741,0.0,0.0,0.0,0.0,0.0,0.0,0.0,0.0,0.0,0.0,0.0,0.0,0.0,0.0,0.0,0.0,0.0,0.0,0.0,0.0,0.0,0.0,0.0,0.0,0.0,0.0,0.0,-5.221,-5.666,-5.7048,-5.5772,-5.4385,0.0,0.0,0.0,0.0,0.0,0.0,0.0,0.0,0.0,-6.2587,-6.6117,-6.8681,-7.0019,-7.1169,-7.2158,-7.3031,-7.2092,-7.184,-7.2063,-7.0053,-7.0067,-7.1574,-7.0232,-6.8232,-6.5656,-6.2346,-6.0721,-5.9909,0.0,0.0,0.0,0.0,-5.0822,-5.1466,-5.147,-5.3026,-5.4773,-5.3339,0.0,0.0,0.0,0.0,0.0,0.0,0.0,-6.0271,-6.2061,-6.5274,-6.8195,-6.8917,-6.9267,-6.9267,-6.8611,-6.6107,-6.3043,-6.0045,-5.8258,-5.6839,-5.5477,-5.5241,0.0,0.0,0.0,-6.119,-6.3312,-6.5312,-6.6405,-6.5958,-6.5654,-6.5166,-6.4443,-6.3892,-6.2387,-5.9532,-5.7739,-5.4666,-4.9998,-4.7488,-4.3821,0.0,0.0,0.0,0.0,0.0,0.0,0.0,0.0,0.0,0.0,0.0,0.0,0.0,0.0,0.0,0.0,0.0,0.0,0.0,0.0,0.0,0.0,0.0,0.0,0.0,0.0,0.0,0.0,0.0,-5.0496,-5.0875,0.0,0.0,0.0,0.0,0.0,0.0,0.0,0.0,0.0,0.0,0.0,0.0,0.0,-6.3516,-6.3246,-6.5877,-6.7414,-6.7795,-6.7707,-6.8046,-6.8744,-6.798,-6.7919,-6.8262,-6.6702,0.0,-5.9221,-5.5532,0.0,0.0,0.0,0.0,0.0,0.0,0.0,0.0,0.0,0.0,0.0,0.0,0.0,0.0,0.0,0.0,0.0,0.0,0.0,0.0,0.0,0.0,-6.456,-6.6136,-6.6437,-6.6081,-6.4928,-6.0247,-5.5525,-5.3076,-5.1688,-5.051,0.0,0.0,0.0,0.0,0.0,0.0,-6.0165,-6.2706,-6.3933,-6.3139,-6.3469,-6.3503,-6.2963,-6.1979,-6.0621,-5.892,-5.5498,-5.1832,-4.8179,-4.4552,0.0,0.0,0.0,0.0,0.0,0.0,0.0,0.0,0.0,0.0,0.0,0.0,0.0,0.0,0.0,0.0,0.0,0.0,0.0,0.0,0.0,0.0,0.0,0.0,0.0,0.0,0.0,0.0,0.0,0.0,0.0,0.0,0.0,0.0,0.0,0.0,0.0,0.0,0.0,0.0,0.0,0.0,0.0,0.0,0.0,0.0,0.0,0.0,0.0,0.0,-6.1564,-6.2923,-6.5267,-6.2626,-6.266,-6.4466,-5.7589,-5.4626,-5.4252,-4.9037,0.0,0.0,0.0,0.0,0.0,0.0,0.0,0.0,0.0,0.0,0.0,0.0,0.0,0.0,0.0,0.0,0.0,0.0,0.0,0.0,0.0,0.0,-5.8357,-6.0146,-6.1733,-6.0921,-5.3688,0.0,0.0,0.0,0.0,0.0,0.0,0.0,0.0,0.0,0.0,0.0,-5.7483,-6.1184,-6.3643,-6.3469,-6.2999,-6.23,-6.1489,-6.0072,-5.8073,-5.5292,-5.1742,-4.705,0.0,0.0,0.0,0.0,0.0,0.0,0.0,0.0,0.0,0.0,0.0,0.0,0.0,0.0,0.0,0.0,0.0,0.0,0.0,0.0,0.0,0.0,0.0,0.0,0.0,0.0,0.0,0.0,0.0,0.0,0.0,0.0,0.0,0.0,0.0,0.0,0.0,0.0,0.0,0.0,0.0,0.0,0.0,0.0,0.0,0.0,0.0,0.0,0.0,0.0,0.0,0.0,0.0,0.0,0.0,0.0,0.0,0.0,-4.9293,-4.5692,0.0,0.0,0.0,0.0,0.0,0.0,0.0,0.0,0.0,0.0,0.0,0.0,0.0,0.0,0.0,0.0,0.0,0.0,0.0,0.0,0.0,0.0,0.0,0.0,0.0,0.0,0.0,0.0,0.0,0.0,0.0,0.0,0.0,0.0,0.0,0.0,0.0,0.0,0.0,0.0,-5.5453,-5.8986,-6.1283,-6.1072,-6.0828,-6.0126,-5.8816,-5.8,-5.5809,-5.1648,-4.8056,0.0,0.0,0.0,0.0,0.0,0.0,0.0,0.0,0.0,0.0,0.0,0.0,0.0,0.0,0.0,0.0,0.0,0.0,0.0,0.0,0.0,0.0,0.0,0.0,0.0,0.0,0.0,0.0,0.0,0.0,0.0,0.0,0.0,0.0,0.0,0.0,0.0,0.0,0.0,0.0,0.0,0.0,0.0,0.0,0.0,0.0,0.0,0.0,0.0,0.0,0.0,0.0,0.0,0.0,0.0,0.0,0.0,0.0,0.0,-4.1124,-3.7815,0.0,0.0,0.0,0.0,0.0,0.0,0.0,0.0,0.0,0.0,0.0,0.0,0.0,0.0,0.0,0.0,0.0,0.0,0.0,0.0,0.0,0.0,0.0,0.0,0.0,0.0,0.0,0.0,0.0,0.0,0.0,0.0,0.0,0.0,0.0,0.0,0.0,0.0,0.0,0.0,-5.3924,-5.716,-5.9176,-5.8848,-5.9013,-5.8364,-5.6532,-5.6079,-5.3681,-4.8344,-4.4539,0.0,0.0,0.0,0.0,0.0,0.0,0.0,0.0,0.0,0.0,0.0,0.0,0.0,0.0,0.0,0.0,0.0,0.0,0.0,0.0,0.0,0.0,0.0,0.0,0.0,0.0,0.0,0.0,0.0,0.0,0.0,0.0,0.0,0.0,0.0,0.0,0.0,0.0,0.0,0.0,0.0,0.0,0.0,0.0,0.0,0.0,0.0,0.0,0.0,0.0,0.0,0.0,0.0,0.0,0.0,0.0,0.0,0.0,0.0,0.0,0.0,0.0,0.0,0.0,0.0,0.0,0.0,0.0,0.0,0.0,0.0,0.0,0.0,0.0,0.0,0.0,0.0,0.0,0.0,0.0,0.0,0.0,0.0,0.0,0.0,0.0,0.0,0.0,0.0,0.0,0.0,0.0,0.0,0.0,0.0,0.0,0.0,0.0,0.0,0.0,0.0,-5.2838,-5.6687,-5.9266,-5.9225,-5.9225,-5.8282,-5.5911,-5.4614,-5.1484,-4.5788,0.0,0.0,0.0,0.0,0.0,0.0,0.0,0.0,0.0,0.0,0.0,0.0,0.0,0.0,0.0,0.0,0.0,0.0,0.0,0.0,0.0,0.0,0.0,0.0,0.0,0.0,0.0,0.0,0.0,0.0,0.0,0.0,0.0,0.0,0.0,0.0,0.0,0.0,0.0,0.0,0.0,0.0,0.0,0.0,0.0,0.0,0.0,0.0,0.0,0.0,0.0,0.0,0.0,0.0,0.0,0.0,0.0,0.0,0.0,0.0,0.0,0.0,0.0,0.0,0.0,0.0,0.0,0.0,0.0,0.0,0.0,0.0,0.0,0.0,0.0,0.0,0.0,0.0,0.0,0.0,0.0,0.0,0.0,0.0,0.0,0.0,0.0,0.0,0.0,0.0,0.0,0.0,0.0,0.0,0.0,0.0,0.0,0.0,0.0,0.0,0.0,0.0,-5.2431,-5.584,-5.7971,-5.7916,-5.7884,-5.6605,-5.3412,-5.1509,-4.8053,-4.2269,0.0,0.0,0.0,0.0,0.0,0.0,0.0,0.0,0.0,0.0,0.0,0.0,0.0,0.0,0.0,0.0,0.0,0.0,0.0,0.0,0.0,0.0,0.0,0.0,0.0,0.0,0.0,0.0,0.0,0.0,0.0,0.0,0.0,0.0,0.0,0.0,0.0,0.0,0.0,0.0,0.0,0.0,0.0,0.0,0.0,0.0,0.0,0.0,0.0,0.0,0.0,0.0,0.0,0.0,0.0,0.0,0.0,0.0,0.0,0.0,0.0,0.0,0.0,0.0,0.0,0.0,0.0,0.0,0.0,0.0,0.0,0.0,0.0,0.0,0.0,0.0,0.0,0.0,0.0,0.0,0.0,0.0,0.0,0.0,0.0,0.0,0.0,0.0,0.0,0.0,0.0,0.0,0.0,0.0,0.0,0.0,0.0,0.0,0.0,0.0,0.0,0.0,-5.1146,-5.447,-5.6531,-5.6362,-5.633,-5.4957,-5.1626,-4.9399,-4.561,-3.9596,0.0,0.0,0.0,0.0,0.0,0.0,0.0,0.0,0.0,0.0,0.0,0.0,0.0,0.0,0.0,0.0,0.0,0.0,0.0,0.0,0.0,0.0,0.0,0.0,0.0,0.0,0.0,0.0,0.0,0.0,0.0,0.0,0.0,0.0,0.0,0.0,0.0,0.0,0.0,0.0,0.0,0.0,0.0,0.0,0.0,0.0,0.0,0.0,0.0,0.0,0.0,0.0,0.0,0.0,0.0,0.0,0.0,0.0,0.0,0.0,0.0,0.0,0.0,0.0,0.0,0.0,0.0,0.0,0.0,0.0,0.0,0.0,0.0,0.0,0.0,0.0,0.0,0.0,0.0,0.0,0.0,0.0,0.0,0.0,0.0,0.0,0.0,0.0,0.0,0.0,0.0,0.0,0.0,0.0,0.0,0.0,0.0,0.0,0.0,0.0,0.0,0.0,-4.846,-5.2574,-5.527,-5.4862,-5.4824,-5.3791,-5.1165,-4.8931,-4.4799,0.0,0.0,0.0,0.0,0.0,0.0,0.0,0.0,0.0,0.0,0.0,0.0,0.0,0.0,0.0,0.0,0.0,0.0,0.0,0.0,0.0,0.0,0.0,0.0,0.0,0.0,0.0,0.0,0.0,0.0,0.0,0.0,0.0,0.0,0.0,0.0,0.0,0.0,0.0,0.0,0.0,0.0,0.0,0.0,0.0,0.0,0.0,0.0,0.0,0.0,0.0,0.0,0.0,0.0,0.0,0.0,0.0,0.0,0.0,0.0,0.0,0.0,0.0,0.0,0.0,0.0,0.0,0.0,0.0,0.0,0.0,0.0,0.0,0.0,0.0,0.0,0.0,0.0,0.0,0.0,0.0,0.0,0.0,0.0,0.0,0.0,0.0,0.0,0.0,0.0,0.0,0.0,0.0,0.0,0.0,0.0,0.0,0.0,0.0,0.0,0.0,0.0,0.0,-4.7796,-5.0766,-5.272,-5.3037,-5.3159,-5.1869,-4.8552,-4.5965,-4.2244,-3.6855,0.0,0.0,0.0,0.0,0.0,0.0,0.0,0.0,0.0,0.0,0.0,0.0,0.0,0.0,0.0,0.0,0.0,0.0,0.0,0.0,0.0,0.0,0.0,0.0,0.0,0.0,0.0,0.0,0.0,0.0,0.0,0.0,0.0,0.0,0.0,0.0,0.0,0.0,0.0,0.0,0.0,0.0,0.0,0.0,0.0,0.0,0.0,0.0,0.0,0.0,0.0,0.0,0.0,0.0,0.0,0.0,0.0,0.0,0.0,0.0,0.0,0.0,0.0,0.0,0.0,0.0,0.0,0.0,0.0,0.0,0.0,0.0,0.0,0.0,0.0,0.0,0.0,0.0,0.0,0.0,0.0,0.0,0.0,0.0,0.0,0.0,0.0,0.0,0.0,0.0,0.0,0.0,0.0,0.0,0.0,0.0,0.0,0.0,0.0,0.0,0.0,0.0,0.0,-4.9009,-5.0796,-5.094,-5.089,-4.9645,-4.6644,-4.413,-4.0836,-3.639,0.0,0.0,0.0,0.0,0.0,0.0,0.0,0.0,0.0,0.0,0.0,0.0,0.0,0.0,0.0,0.0,0.0,0.0,0.0,0.0,0.0,0.0,0.0,0.0,0.0,0.0,0.0,0.0,0.0,0.0,0.0,0.0,0.0,0.0,0.0,0.0,0.0,0.0,0.0,0.0,0.0,0.0,0.0,0.0,0.0,0.0,0.0,0.0,0.0,0.0,0.0,0.0,0.0,0.0,0.0,0.0,0.0,0.0,0.0,0.0,0.0,0.0,0.0,0.0,0.0,0.0,0.0,0.0,0.0,0.0,0.0,0.0,0.0,0.0,0.0,0.0,0.0,0.0,0.0,0.0,0.0,0.0,0.0,0.0,0.0,0.0,0.0,0.0,0.0,0.0,0.0,0.0,0.0,0.0,0.0,0.0,0.0,0.0,0.0,0.0,0.0,0.0,0.0,-4.7171,-4.9228,-4.8845,-4.838,-4.7306,-4.5311,-4.3223,-4.032,-3.6417,-3.3735,0.0,0.0,0.0,0.0,0.0,0.0,0.0,0.0,0.0,0.0,0.0,0.0,0.0,0.0,0.0,0.0,0.0,0.0,0.0,0.0,0.0,0.0,0.0,0.0,0.0,0.0,0.0,0.0,0.0,0.0,0.0,0.0,0.0,0.0,0.0,0.0,0.0,0.0,0.0,0.0,0.0,0.0,0.0,0.0,0.0,0.0,0.0,0.0,0.0,0.0,0.0,0.0,0.0,0.0,0.0,0.0,0.0,0.0,0.0,0.0,0.0,0.0,0.0,0.0,0.0,0.0,0.0,0.0,0.0,0.0,0.0,0.0,0.0,0.0,0.0,0.0,0.0,0.0,0.0,0.0,0.0,0.0,0.0,0.0,0.0,0.0,0.0,0.0,0.0,0.0,0.0,0.0,0.0,0.0,0.0,0.0,0.0,0.0,0.0,0.0,0.0,0.0,-4.4841,-4.6256,-4.8686,-4.778,-4.6107,-4.3839,-4.2739,-3.9966,-3.491,-3.3414,0.0,0.0,0.0,0.0,0.0,0.0,0.0,0.0,0.0,0.0,0.0,0.0,0.0,0.0,0.0,0.0,0.0,0.0,0.0,0.0,0.0,0.0,0.0,0.0,0.0,0.0,0.0,0.0,0.0,0.0,0.0,0.0,0.0,0.0,0.0,0.0,0.0,0.0,0.0,0.0,0.0,0.0,0.0,0.0,0.0,0.0,0.0,0.0,0.0,0.0,0.0,0.0,0.0,0.0,0.0,0.0,0.0,0.0,0.0,0.0,0.0,0.0,0.0,0.0,0.0,0.0,0.0,0.0,0.0,0.0,0.0,0.0,0.0,0.0,0.0,0.0,0.0,0.0,0.0,0.0,0.0,0.0,0.0,0.0,0.0,0.0,0.0,0.0,0.0,0.0,0.0,0.0,0.0,0.0,0.0,0.0,0.0,0.0,0.0,0.0,0.0,0.0,-4.0818,-4.361,-4.6954,-4.6263,-4.4734,-4.2617,-4.1299,-3.8779,-3.4519,-3.2466,0.0,0.0,0.0,0.0,0.0,0.0,0.0,0.0,0.0,0.0,0.0,0.0,0.0,0.0,0.0,0.0,0.0,0.0,0.0,0.0,0.0,0.0,0.0,0.0,0.0,0.0,0.0,0.0,0.0,0.0,0.0,0.0,0.0,0.0,0.0,0.0,0.0,0.0,0.0,0.0,0.0,0.0,0.0,0.0,0.0,0.0,0.0,0.0,0.0,0.0,0.0,0.0,0.0,0.0,0.0,0.0,0.0,0.0,0.0,0.0,0.0,0.0,0.0,0.0,0.0,0.0,0.0,0.0,0.0,0.0,0.0,0.0,0.0,0.0,0.0,0.0,0.0,0.0,0.0,0.0,0.0,0.0,0.0,0.0,0.0,0.0,0.0,0.0,0.0,0.0,0.0,0.0,0.0,0.0,0.0,0.0,0.0,0.0,0.0,0.0,0.0,0.0,0.0,-4.1192,-4.3894,-4.4083,-4.3295,-4.1472,-3.9677,-3.7325,-3.422,0.0,0.0,0.0,0.0,0.0,0.0,0.0,0.0,0.0,0.0,0.0,0.0,0.0,0.0,0.0,0.0,0.0,0.0,0.0,0.0,0.0,0.0,0.0,0.0,0.0,0.0,0.0,0.0,0.0,0.0,0.0,0.0,0.0,0.0,0.0,0.0,0.0,0.0,0.0,0.0,0.0,0.0,0.0,0.0,0.0,0.0,0.0,0.0,0.0,0.0,0.0,0.0,0.0,0.0,0.0,0.0,0.0,0.0,0.0,0.0,0.0,0.0,0.0,0.0,0.0,0.0,0.0,0.0,0.0,0.0,0.0,0.0,0.0,0.0,0.0,0.0,0.0,0.0,0.0,0.0,0.0,0.0,0.0,0.0,0.0,0.0,0.0,0.0,0.0,0.0,0.0,0.0,0.0,0.0,0.0,0.0,0.0,0.0,0.0,0.0,0.0,0.0,0.0,0.0,-3.8919,-3.9188,-4.1374,-4.2085,-4.0132,-3.9175,-3.6561,-3.1638,0.0,0.0,0.0,0.0,0.0,0.0,0.0,0.0,0.0,0.0,0.0,0.0,0.0,0.0]}],[{"header":{"parameterUnit":"kt","parameterCategory":2,"dx":1,"dy":1,"la1":29.285339999999998,"la2":30.599998999999997,"lo1":-89.70041500000002,"lo2":-87.6738589999976,"nx":112,"ny":82,"refTime":"2022-10-22T18:00:00:Z","depth":0,"parameterNumber":2,"parameterNumberName":"V-component_of_WINDS"},"data":[4.4257,4.4597,0.0,4.261,4.2034,0.0,3.8707,0.0,3.7189,0.0,0.0,0.0,0.0,0.0,0.0,0.0,0.0,0.0,0.0,0.0,0.0,0.0,0.0,0.0,0.0,0.0,0.0,0.0,0.0,0.0,0.0,0.0,3.977,4.138,4.455,4.6688,4.7806,4.8942,4.9742,5.023,5.1653,5.2544,5.2956,5.4639,5.533,5.521,5.5551,5.5521,5.5204,5.5812,5.5891,5.5515,5.497,5.5398,5.629,5.6207,5.6369,5.6617,5.6421,5.6955,5.7741,5.7527,5.7636,5.7986,5.8411,5.8759,5.9179,5.9598,5.9966,6.0451,6.1227,6.1443,6.1632,6.2531,6.297,6.3293,6.3709,6.3778,6.3848,6.4123,6.3985,6.3848,6.4123,6.4288,6.4356,6.4356,6.5339,6.5861,6.5366,6.6556,6.7263,6.7111,6.7678,6.8229,6.8738,6.9054,6.9492,7.0082,7.005,7.005,7.0296,7.0325,7.0418,7.0571,7.0571,7.0844,7.1325,7.1444,7.2528,7.4496,7.5195,7.5895,0.0,0.0,4.2397,4.0523,0.0,0.0,0.0,0.0,0.0,0.0,0.0,0.0,0.0,0.0,0.0,0.0,0.0,0.0,0.0,0.0,0.0,0.0,0.0,0.0,0.0,0.0,0.0,0.0,0.0,0.0,0.0,3.7814,4.0346,4.1801,4.4492,4.6231,4.7094,4.8667,4.9806,5.0569,5.2127,5.3168,5.3921,5.5115,5.5808,5.5989,5.5989,5.5828,5.5738,5.6395,5.6401,5.6195,5.5742,5.6096,5.6892,5.6892,5.6781,5.6544,5.6976,5.747,5.7855,5.7319,5.7361,5.7711,5.8186,5.8685,5.9179,5.9426,5.9867,6.0451,6.1227,6.1443,6.1658,6.2416,6.2786,6.3083,6.3501,6.364,6.3848,6.4123,6.3917,6.3778,6.3917,6.4054,6.4123,6.4123,6.5132,6.5818,6.571,6.6424,6.6985,6.7212,6.7384,6.7807,6.8385,6.8801,6.9275,6.9711,6.9773,6.9865,6.9988,6.9988,7.0111,7.0359,7.0359,7.0632,7.1205,7.1325,7.2017,7.3405,7.3555,7.3822,0.0,0.0,0.0,3.6701,0.0,0.0,0.0,0.0,3.4721,0.0,0.0,0.0,0.0,0.0,0.0,0.0,0.0,0.0,0.0,0.0,0.0,0.0,0.0,0.0,0.0,0.0,0.0,0.0,0.0,0.0,3.6548,3.959,4.1801,4.2898,4.5074,4.6138,4.6098,4.7998,4.9261,4.9879,5.1677,5.2983,5.3874,5.4796,5.5446,5.5989,5.5989,5.617,5.6466,5.5585,5.6376,5.7917,5.5999,5.6311,5.7907,5.7885,5.7614,5.7372,5.8776,5.8481,5.7391,5.7218,5.7109,5.7261,5.7735,5.8461,5.9105,5.9105,5.9622,6.0451,6.1201,6.1443,6.1658,6.2416,6.2786,6.3083,6.3501,6.3848,6.4123,6.4123,6.4123,6.4054,6.364,6.3917,6.4123,6.4123,6.4479,6.5175,6.6321,6.5847,6.6051,6.7842,6.7324,6.7345,6.8321,6.8385,6.8675,6.9309,6.9371,6.9558,6.9926,6.9988,7.0111,7.0359,7.0359,7.0571,7.0934,7.1205,7.1325,7.1385,7.1743,7.2274,3.6092,0.0,0.0,0.0,0.0,0.0,0.0,0.0,0.0,0.0,0.0,0.0,0.0,0.0,0.0,0.0,0.0,0.0,0.0,0.0,0.0,0.0,0.0,0.0,0.0,0.0,0.0,0.0,0.0,0.0,3.8404,4.0478,4.2201,4.3328,4.4649,4.5901,4.718,4.8735,5.0073,5.1207,5.2632,5.3434,5.3708,5.4705,5.5285,5.5467,5.5808,5.608,5.6148,5.6161,5.6762,5.7473,5.6595,5.6966,5.8026,5.7661,5.7106,5.6918,5.92,5.8067,5.5669,5.6468,5.6906,5.7261,5.7735,5.8461,5.9105,5.9105,5.9622,6.0379,6.0887,6.1201,6.1515,6.2061,6.246,6.2786,6.3083,6.3432,6.3848,6.4123,6.4123,6.4123,6.3985,6.4054,6.4123,6.4123,6.5186,6.6103,6.643,6.7301,6.7719,6.7377,6.7538,6.7721,6.7699,6.7872,6.8321,6.9049,6.9083,6.9271,6.9587,6.9558,6.9806,7.0359,7.0359,7.0571,7.0934,7.1055,7.1295,7.1743,7.1862,7.201,0.0,0.0,0.0,0.0,0.0,0.0,3.5525,0.0,3.3612,0.0,0.0,0.0,0.0,0.0,0.0,0.0,0.0,0.0,0.0,0.0,0.0,0.0,0.0,0.0,0.0,0.0,0.0,0.0,0.0,3.7933,3.9509,4.1295,4.2615,4.326,4.4222,4.5217,4.6486,4.8072,4.9729,5.1458,5.2349,5.3252,5.3965,5.4353,5.483,5.5195,5.5558,5.5808,5.5989,5.626,5.662,5.7003,5.7168,5.7584,5.8,5.7983,5.7112,5.6344,5.8462,5.7234,5.5001,5.63,5.6883,5.7261,5.7735,5.8461,5.9105,5.9105,5.9573,6.016,6.0716,6.1103,6.1515,6.1918,6.2274,6.2672,6.2944,6.3153,6.3501,6.4054,6.3985,6.3917,6.3917,6.415,6.4356,6.4192,6.5023,6.6103,6.7156,6.7598,6.8058,6.8529,6.7971,6.7634,6.7647,6.7666,6.7936,6.8449,6.8825,6.9049,6.9242,6.9242,6.9554,7.0205,7.0205,7.0479,7.0934,7.0934,7.1175,7.1653,7.1862,7.198,0.0,0.0,0.0,0.0,3.5119,0.0,0.0,0.0,3.3789,3.3695,0.0,0.0,0.0,0.0,0.0,0.0,0.0,0.0,0.0,0.0,0.0,0.0,0.0,0.0,0.0,3.5598,3.5998,3.72,3.843,3.9418,4.0221,4.1937,4.2952,4.3038,4.3813,4.4478,4.4885,4.6784,4.8878,5.0884,5.1502,5.2754,5.424,5.3894,5.4261,5.5104,5.5285,5.5537,5.5989,5.5989,5.626,5.671,5.7517,5.7803,5.7862,5.8221,5.7137,5.5715,5.7129,5.6405,5.5015,5.6454,5.6996,5.7209,5.766,5.8312,5.9031,5.9105,5.9352,5.9892,6.0571,6.1031,6.1489,6.1847,6.2274,6.2601,6.29,6.2944,6.3223,6.3848,6.3778,6.364,6.3571,6.4177,6.4452,6.4192,6.4561,6.5721,6.8101,6.7511,6.7927,7.0428,6.8722,6.7583,6.8177,6.7826,6.7711,6.8072,6.8692,6.9015,6.9015,6.9015,6.9363,6.9988,6.9988,7.0296,7.0873,7.0934,7.1055,7.1325,7.1684,7.1949,0.0,0.0,0.0,0.0,0.0,3.3289,0.0,0.0,0.0,0.0,0.0,0.0,0.0,0.0,0.0,0.0,0.0,0.0,0.0,0.0,0.0,0.0,0.0,0.0,0.0,3.6993,3.7062,3.9567,4.0014,4.0623,4.1675,4.2082,4.2675,4.3365,4.3622,4.4051,4.4885,4.7471,4.8944,4.9436,5.1674,5.2996,5.3362,5.3965,5.4423,5.4606,5.5446,5.5899,5.5989,5.5989,5.644,5.716,5.6487,5.6488,5.6829,5.6454,5.5614,5.4926,5.6636,5.6026,5.467,5.6398,5.6864,5.6702,5.6778,5.7711,5.8685,5.9031,5.9352,5.9819,6.0233,6.0669,6.1031,6.1417,6.1847,6.2203,6.2601,6.283,6.3014,6.3153,6.364,6.3917,6.364,6.3709,6.3848,6.4123,6.5005,6.6383,6.8211,6.9058,6.966,7.0225,6.987,6.9448,6.9138,6.8659,6.8659,6.9352,6.912,6.9015,6.9015,6.9179,6.9525,6.9988,7.0205,7.0327,7.051,7.0783,7.0994,7.1055,7.1355,7.1504,0.0,0.0,0.0,3.3467,0.0,0.0,0.0,3.3771,3.3688,3.4314,3.4967,3.5521,3.5709,0.0,3.5924,0.0,0.0,0.0,0.0,0.0,0.0,0.0,0.0,0.0,3.8827,3.7741,3.7666,3.9269,3.9988,4.0799,4.1808,4.1931,4.2351,4.3426,4.3426,4.4046,4.5398,4.6773,4.8026,4.9169,5.0886,5.2018,5.2735,5.3618,5.4149,5.4515,5.5264,5.5718,5.5989,5.5989,5.6509,5.7361,5.7234,5.7252,5.7214,5.6651,5.5705,5.4813,5.5658,5.5178,5.4445,5.5714,5.6206,5.6372,5.6754,5.7285,5.7963,5.8883,5.9253,5.95,6.0087,6.0571,6.0861,6.1103,6.1561,6.2061,6.2274,6.2531,6.283,6.2944,6.3293,6.3501,6.3293,6.3432,6.364,6.3848,6.4541,6.5667,6.7634,6.8731,6.9696,7.07,7.0413,7.008,6.9812,6.9292,6.9036,6.9218,6.932,6.93,6.9044,6.9146,6.9334,6.9459,6.9926,7.0266,7.0359,7.0571,7.0722,7.0934,7.1205,7.1325,0.0,0.0,0.0,0.0,0.0,0.0,3.4014,3.3807,3.3844,0.0,3.5559,3.62,3.7305,3.8111,3.8257,3.7185,0.0,0.0,0.0,0.0,0.0,0.0,0.0,0.0,3.8598,3.8216,3.8134,3.8415,3.9551,4.0587,4.1495,4.1583,4.2179,4.3454,4.349,4.4224,4.5707,4.6144,4.7189,4.8986,4.9801,5.0932,5.2197,5.3178,5.3986,5.4515,5.5083,5.5627,5.5989,5.608,5.6598,5.7404,5.8293,5.8242,5.7772,5.7092,5.6034,5.4818,5.4651,5.4408,5.4353,5.5032,5.5628,5.6219,5.673,5.7109,5.7512,5.8412,5.8858,5.9253,5.994,6.0451,6.0716,6.0789,6.1319,6.1847,6.1989,6.2274,6.2531,6.276,6.283,6.29,6.29,6.318,6.3362,6.3432,6.3898,6.5007,6.698,6.8068,6.9312,7.106,7.0761,7.046,7.0413,6.9967,6.9642,6.9354,6.9579,6.9689,6.9358,6.916,6.9015,6.9015,6.9521,6.9988,7.0266,7.0175,7.0388,7.0752,7.1025,7.1115,0.0,0.0,0.0,0.0,0.0,0.0,3.3921,3.437,3.4746,0.0,3.7958,3.9462,3.8811,3.9799,4.0236,3.8837,3.8919,0.0,0.0,0.0,0.0,0.0,0.0,0.0,3.9014,3.8502,3.845,3.8962,3.9742,4.0587,4.1495,4.1583,4.2372,4.4005,4.4023,4.4421,4.5343,4.6935,4.7675,4.749,4.9656,5.1014,5.1598,5.2993,5.3986,5.4494,5.5446,5.5899,5.5989,5.635,5.6868,5.7404,5.7982,5.7849,5.7303,5.6337,5.5352,5.4412,5.3837,5.3836,5.4275,5.4698,5.5628,5.6473,5.6219,5.693,5.7811,5.7436,5.8188,5.9179,5.9672,6.0014,6.0451,6.0789,6.0933,6.115,6.1847,6.2061,6.2061,6.2132,6.2389,6.2601,6.2601,6.2672,6.2786,6.3014,6.4087,6.5404,6.7014,6.8552,6.9762,7.0681,7.1343,7.1565,7.124,7.1042,7.1259,7.186,7.0586,7.0063,7.0731,6.9626,6.9015,6.9015,6.9078,6.9426,7.005,6.9649,6.9711,7.0111,7.0327,7.051,0.0,0.0,0.0,0.0,0.0,0.0,3.481,3.5844,3.6777,0.0,3.9723,4.0982,4.1213,4.2143,4.2448,4.0827,4.0831,4.0828,0.0,0.0,0.0,0.0,0.0,0.0,0.0,3.8645,3.8645,3.882,3.9871,4.0551,4.0796,4.1321,4.2408,4.4349,4.4385,4.4812,4.5873,4.665,4.6889,4.6586,4.8184,4.9395,5.0246,5.2284,5.3506,5.4037,5.4767,5.5389,5.5947,5.584,5.6068,5.6663,5.7696,5.8094,5.7954,5.6369,5.5544,5.5068,5.3881,5.3836,5.4275,5.4698,5.5474,5.6219,5.6066,5.6678,5.746,5.7185,5.7888,5.8908,5.9525,5.9966,6.0306,6.0451,6.0644,6.0933,6.1221,6.1678,6.1989,6.1989,6.2132,6.2345,6.2557,6.2628,6.2601,6.2716,6.3325,6.4477,6.6219,6.7477,6.8821,7.0242,7.0893,7.1277,7.138,7.1245,7.1363,7.1638,7.051,7.0024,7.0244,6.9235,6.8732,6.9015,6.9015,6.9238,6.9649,6.9496,6.9496,6.9649,6.9959,7.0143,3.0485,0.0,0.0,0.0,0.0,0.0,0.0,0.0,3.8399,3.9993,4.1032,4.1959,4.2934,4.366,4.3556,4.1984,4.1852,4.1721,4.0832,0.0,0.0,0.0,0.0,0.0,0.0,0.0,0.0,0.0,4.0006,4.0613,4.0487,4.1265,4.2512,4.4211,4.4551,4.5107,4.6061,4.6079,4.6061,4.614,4.7008,4.8063,4.9282,5.1352,5.2767,5.367,5.3941,5.4367,5.4803,5.4388,5.479,5.5768,5.7343,5.8249,5.8489,5.6525,5.5789,5.5582,5.4016,5.3836,5.4275,5.4698,5.5373,5.5989,5.5836,5.6639,5.7495,5.713,5.783,5.8856,5.923,5.9647,5.994,6.0087,6.0306,6.0571,6.0789,6.1319,6.1678,6.1678,6.1847,6.2132,6.2416,6.2486,6.2628,6.2628,6.2716,6.3501,6.5247,6.6127,6.7355,6.9219,6.9948,7.0466,7.097,7.1227,7.1429,7.1511,7.0781,7.0285,7.0267,6.9205,6.876,6.9015,6.8888,6.8957,6.9275,6.9371,6.9371,6.9275,6.9741,7.005,0.0,0.0,0.0,0.0,0.0,0.0,3.6706,0.0,3.9109,4.0646,4.1718,4.261,4.3402,4.3567,4.3156,4.1773,4.1652,4.1303,4.0412,3.9796,3.9267,0.0,0.0,0.0,0.0,0.0,0.0,0.0,4.027,4.074,4.1142,4.17,4.2513,4.3752,4.4504,4.5066,4.548,4.548,4.5771,4.6272,4.6623,4.768,4.9243,5.0265,5.1858,5.367,5.3244,5.2584,5.1785,5.1824,5.2931,5.4826,5.6678,5.7938,5.8489,5.6525,5.5789,5.5582,5.4016,5.3836,5.4275,5.4698,5.5373,5.5913,5.5551,5.7056,5.8508,5.6989,5.7929,5.9281,5.8682,5.8833,5.9253,5.9598,5.9672,5.9892,6.0716,6.0861,6.0861,6.0861,6.1463,6.1989,6.1989,6.2345,6.2628,6.2628,6.2601,6.305,6.4238,6.4759,6.5708,6.7515,6.8514,6.9374,7.0116,7.092,7.1631,7.2381,7.164,7.1182,7.1497,7.0027,6.9131,6.9044,6.8669,6.8669,6.9015,6.9305,6.9275,6.9015,6.9708,7.0111,3.0477,0.0,0.0,0.0,0.0,3.6422,3.7604,0.0,4.1015,4.2424,4.3114,4.3579,4.3852,4.3467,4.2762,4.1981,4.0929,3.9989,3.9267,3.8842,3.8503,3.8326,3.7865,0.0,0.0,0.0,0.0,0.0,0.0,0.0,4.121,4.2567,4.3142,4.2582,4.4056,4.4668,4.418,4.418,4.4002,4.3678,4.5064,4.643,4.7934,4.9904,5.1465,5.2687,5.1672,5.1113,5.0808,5.0769,5.1598,5.291,5.4826,5.6483,5.7608,5.6271,5.5789,5.5611,5.4479,5.4188,5.4389,5.5086,5.5621,5.5989,5.5836,5.6687,5.7668,5.7078,5.7651,5.8425,5.8485,5.861,5.8809,5.9204,5.95,5.9745,6.0014,6.0817,6.1548,6.1843,6.1764,6.1704,6.1989,6.2345,6.2628,6.2628,6.2628,6.305,6.4185,6.4489,6.5071,6.6333,6.6791,6.7175,6.7825,6.8328,6.8849,6.9385,6.8815,6.8666,6.9185,6.8232,6.7976,6.8605,6.8449,6.8605,6.9015,6.9112,6.9112,6.9015,6.943,6.962,0.0,0.0,0.0,3.4215,3.6152,3.7749,3.8682,4.0424,4.2225,4.3568,4.3935,4.4098,4.4565,4.3802,4.2733,4.1639,4.0412,3.9388,3.8608,3.8267,3.8078,3.7807,3.764,3.7327,3.7061,3.7702,0.0,0.0,0.0,4.171,4.1987,4.3148,4.3515,4.274,4.3839,4.4193,4.4005,4.3638,4.3207,4.2645,4.4463,4.6129,4.7601,4.9564,5.1091,5.2224,5.0503,4.9801,4.9801,4.9979,5.0582,5.1616,5.354,5.5436,5.6897,5.5737,5.5538,5.5655,5.4882,5.4482,5.4435,5.5499,5.59,5.5989,5.5836,5.6711,5.7692,5.7078,5.7675,5.8474,5.836,5.8261,5.8411,5.861,5.8982,5.9303,5.9451,6.0274,6.1151,6.1596,6.1375,6.1247,6.1535,6.2034,6.2416,6.2416,6.2486,6.2892,6.3631,6.3737,6.4087,6.5247,6.5379,6.5611,6.6331,6.6754,6.7222,6.7633,6.7477,6.7484,6.7873,6.7431,6.7479,6.8193,6.8193,6.8385,6.8796,6.9049,6.9112,6.9015,6.943,6.9649,0.0,3.1407,0.0,3.5747,3.7253,0.0,0.0,0.0,4.2654,4.411,4.4098,4.416,4.5401,4.4486,4.2873,4.1017,4.0229,3.9406,3.8357,3.8247,3.8025,3.7487,3.7566,3.7447,3.6677,3.7529,3.8749,4.0206,4.113,4.2084,4.3261,4.3424,4.3615,4.4055,4.3615,4.3796,4.4701,4.3728,4.3216,4.3079,4.4825,4.643,4.8027,4.9358,5.0791,5.2059,4.9868,4.884,4.8764,4.928,4.9993,5.0992,5.2825,5.4768,5.6294,5.4901,5.5033,5.5655,5.515,5.4665,5.4458,5.5738,5.6081,5.5913,5.5551,5.7033,5.846,5.7065,5.7905,5.9102,5.8179,5.791,5.791,5.791,5.8186,5.861,5.8957,5.9377,5.9821,6.0236,6.0622,6.0861,6.0861,6.1463,6.1989,6.1989,6.2345,6.2628,6.2628,6.2628,6.305,6.4133,6.4238,6.4614,6.5648,6.6172,6.6641,6.6987,6.7444,6.7549,6.7501,6.7542,6.7638,6.7807,6.7779,6.8036,6.8385,6.9087,6.9242,6.9015,6.9646,6.9926,0.0,0.0,3.3725,3.5747,3.7614,3.9063,0.0,0.0,4.2883,0.0,4.4056,4.4494,4.5353,4.4084,4.283,4.2257,4.024,3.8739,3.8918,3.8311,3.7941,3.8344,3.8359,3.839,3.8126,3.867,3.95,4.085,4.1504,4.2175,4.2835,4.3835,4.3982,4.3138,4.3948,4.432,4.4115,4.311,4.2453,4.2002,4.442,4.6073,4.7221,4.9056,5.0378,5.1091,5.0504,4.9142,4.7403,4.8574,4.9026,4.9264,5.1374,5.3573,5.5416,5.4729,5.4801,5.5281,5.474,5.4402,5.4435,5.5419,5.5687,5.5628,5.609,5.651,5.6806,5.743,5.7678,5.78,5.7884,5.791,5.791,5.791,5.7986,5.8186,5.8536,5.9604,6.0654,6.1328,6.1086,6.0861,6.0861,6.1463,6.1989,6.1989,6.2345,6.2628,6.2628,6.2628,6.2733,6.3024,6.305,6.3111,6.3401,6.3732,6.3989,6.4087,6.4694,6.5047,6.5025,6.59,6.6436,6.667,6.7288,6.7807,6.8385,6.8923,6.9049,6.9015,6.9367,6.9558,2.8559,3.0925,3.3491,0.0,3.7767,3.9087,3.9816,4.1312,4.2785,4.3469,4.3849,4.4095,4.4324,4.3391,4.2236,4.1541,3.996,3.8717,3.8336,3.8021,3.7896,3.7957,3.8421,3.8674,3.8367,3.8904,3.9675,4.0834,4.1589,4.2216,4.2818,4.38,4.4028,4.3335,4.4011,4.4062,4.3452,4.311,4.2499,4.1826,4.3937,4.5612,4.6903,4.8677,4.9734,5.034,5.007,4.8881,4.739,4.7939,4.8303,4.8737,5.0381,5.2461,5.4419,5.3515,5.3803,5.4544,5.4037,5.3875,5.4097,5.5236,5.5584,5.5705,5.5936,5.6219,5.6578,5.7182,5.7409,5.7536,5.7835,5.791,5.791,5.791,5.791,5.7986,5.8186,5.9005,5.9878,6.0478,6.0566,6.0571,6.0571,6.1103,6.1463,6.1463,6.1847,6.2061,6.2061,6.2061,6.2061,6.2061,6.2274,6.2345,6.2345,6.2672,6.283,6.2944,6.3362,6.3778,6.4123,6.4929,6.5633,6.6273,6.6895,6.7483,6.8193,6.8542,6.8825,6.9015,6.9146,6.9275,0.0,0.0,3.2966,0.0,3.801,3.8855,0.0,0.0,4.2664,0.0,4.3482,4.3494,4.2904,4.2428,4.1545,4.0067,3.9604,3.9001,3.7553,3.7813,3.7931,3.7442,3.8373,3.8785,3.8195,3.8914,3.972,4.0494,4.1445,4.2188,4.2888,4.3527,4.3771,4.3786,4.3869,4.3585,4.2868,4.3329,4.314,4.2297,4.3525,4.514,4.6962,4.804,4.9017,4.9793,4.8923,4.8193,4.7655,4.7512,4.7989,4.878,4.9907,5.1648,5.3527,5.2277,5.262,5.3589,5.3102,5.3103,5.3476,5.4916,5.5548,5.5759,5.5551,5.6143,5.6882,5.6601,5.7106,5.766,5.7811,5.7835,5.7835,5.791,5.791,5.791,5.791,5.8261,5.861,5.8957,5.9622,6.016,6.016,6.0571,6.0861,6.0861,6.1201,6.1443,6.1443,6.1443,6.1443,6.1443,6.1704,6.1918,6.1989,6.2345,6.2672,6.2874,6.2944,6.3293,6.3985,6.4452,6.516,6.6073,6.65,6.7064,6.7714,6.81,6.8542,6.8952,6.8952,6.9083,0.0,0.0,3.4003,3.7427,3.8752,0.0,4.0161,4.1741,4.2943,4.2746,4.2901,4.2921,4.2428,4.1835,4.1308,4.0604,3.924,3.8439,3.8743,3.8362,3.8258,3.8658,3.9335,3.9664,3.9542,4.0023,4.0662,4.1166,4.1364,4.1905,4.2904,4.3019,4.3051,4.2956,4.3619,4.3763,4.3424,4.3788,4.3935,4.3755,4.4243,4.5378,4.7175,4.6933,4.7709,4.9206,4.8009,4.688,4.589,4.734,4.7924,4.8036,5.0354,5.2297,5.3588,5.2886,5.2598,5.2584,5.2496,5.2475,5.2614,5.3543,5.4343,5.5141,5.5682,5.5759,5.5782,5.6396,5.6473,5.6449,5.7133,5.7285,5.7361,5.7835,5.791,5.791,5.791,5.8261,5.8536,5.861,5.9229,5.9745,5.9745,6.0379,6.0861,6.0861,6.1201,6.1443,6.1443,6.1443,6.1443,6.1443,6.1515,6.1658,6.1989,6.2061,6.2274,6.2601,6.283,6.3014,6.3153,6.4177,6.4821,6.4984,6.5605,6.6273,6.7027,6.7649,6.8193,6.8542,6.8542,6.8732,0.0,0.0,0.0,3.5827,0.0,3.8895,3.9361,4.0717,4.1824,4.1506,4.1541,4.1683,4.1771,4.0859,4.0045,3.99,3.8906,3.822,3.8211,3.8193,3.8319,3.8613,3.936,3.9891,3.9891,4.0275,4.0758,4.0957,4.1256,4.1637,4.2132,4.2428,4.2659,4.282,4.3247,4.3374,4.3138,4.3971,4.4054,4.3267,4.4254,4.4923,4.5461,4.6229,4.7264,4.8514,4.6988,4.5667,4.4799,4.6173,4.7079,4.7808,4.9965,5.1834,5.3241,5.251,5.2257,5.219,5.1506,5.1896,5.2669,5.3022,5.3892,5.4931,5.5474,5.5705,5.5782,5.6143,5.6296,5.6372,5.6754,5.6958,5.7185,5.746,5.7536,5.756,5.7835,5.8061,5.8261,5.8461,5.8858,5.9229,5.9598,5.994,6.0306,6.0499,6.0669,6.084,6.084,6.084,6.084,6.084,6.0985,6.1175,6.1391,6.1775,6.2061,6.2274,6.2601,6.283,6.3014,6.3528,6.4039,6.4452,6.4766,6.5443,6.6538,6.6867,6.739,6.81,6.8542,6.8732,2.9247,3.1336,0.0,3.4383,3.6264,3.8048,3.8283,3.9354,4.019,4.0133,4.0305,4.0604,4.113,4.0029,3.9073,3.8955,3.8456,3.7966,3.7475,3.7865,3.8254,3.8154,3.9074,3.9675,3.9475,4.0075,4.0475,4.0475,4.0957,4.1256,4.1454,4.1835,4.2265,4.2692,4.3035,4.3066,4.2964,4.4037,4.4107,4.2935,4.4038,4.4509,4.4294,4.6024,4.7045,4.736,4.5713,4.4642,4.4023,4.4995,4.6181,4.7503,4.9228,5.0989,5.242,5.1715,5.151,5.1412,5.0525,5.1045,5.224,5.2449,5.3476,5.4597,5.511,5.5551,5.5836,5.5836,5.609,5.632,5.6372,5.6678,5.6882,5.7034,5.7109,5.7285,5.7811,5.791,5.8061,5.8336,5.8461,5.8709,5.9303,5.9525,5.9745,5.994,6.0087,6.016,6.016,6.0233,6.0233,6.0233,6.0499,6.0716,6.0861,6.1463,6.1918,6.1989,6.2416,6.2742,6.2944,6.2944,6.3223,6.3848,6.3985,6.4671,6.594,6.6206,6.6801,6.7807,6.8478,6.8669,3.0171,3.245,3.5137,3.5165,3.6004,3.7093,3.7767,3.8258,3.8543,3.8763,0.0,4.0522,4.0635,4.0229,3.9415,3.8542,3.7952,3.7374,3.6882,3.7663,3.8154,3.7678,3.8556,3.8944,3.8456,3.9375,3.9891,3.9891,4.0375,4.0858,4.1355,4.1454,4.1663,4.2104,4.3066,4.3552,4.3441,4.4231,4.4519,4.4497,4.3903,4.4399,4.5913,4.6811,4.6603,4.5507,4.4152,4.349,4.349,4.4572,4.5491,4.6539,4.8374,4.9722,5.0626,5.0546,4.9955,4.9337,4.9668,4.9812,5.0074,5.1266,5.2526,5.3735,5.462,5.5164,5.5497,5.5497,5.5497,5.5574,5.5913,5.6066,5.6196,5.6525,5.6906,5.7285,5.7811,5.791,5.791,5.7986,5.8261,5.8536,5.861,5.9229,5.9598,5.9253,5.95,5.9745,5.9745,6.0014,6.0233,6.0233,6.0306,6.0451,6.0789,6.1273,6.1658,6.1989,6.2416,6.2742,6.2944,6.2716,6.2786,6.3083,6.3432,6.4012,6.4821,6.5806,6.667,6.7512,6.7807,6.8321,2.899,3.0966,3.3182,3.3289,3.4861,3.6497,3.6974,0.0,0.0,0.0,3.8702,3.9218,3.9563,3.8463,0.0,3.7837,3.7374,3.6983,3.678,3.7663,3.8254,3.7952,3.8642,3.9029,3.8743,3.9475,3.9891,3.9891,4.0375,4.0774,4.0957,4.0957,4.1328,4.2041,4.2872,4.3476,4.3793,4.3914,4.375,4.3558,4.3369,4.4234,4.5956,4.556,4.5724,4.6106,4.4563,4.3399,4.2741,4.3912,4.5014,4.6074,4.8169,4.9209,4.9544,5.0141,4.9941,4.9446,4.9316,4.9785,5.0458,5.0709,5.1865,5.3262,5.4173,5.4721,5.5086,5.5342,5.542,5.542,5.5628,5.5836,5.6066,5.6473,5.6702,5.7006,5.776,5.791,5.791,5.791,5.8061,5.8261,5.8461,5.8759,5.8982,5.9105,5.9253,5.9426,5.9672,5.9819,6.0014,6.0233,6.0233,6.0306,6.0451,6.0887,6.1273,6.1658,6.1989,6.2248,6.2363,6.2531,6.2672,6.2716,6.2927,6.3346,6.4012,6.5173,6.6073,6.6764,6.8001,6.8449,2.7864,2.9771,3.1903,3.1874,0.0,0.0,0.0,3.586,0.0,0.0,3.7613,3.7956,3.828,3.7042,0.0,3.7106,3.6803,3.6484,3.6766,3.7663,3.8254,3.8053,3.8542,3.8743,3.8642,3.926,3.9575,3.9575,4.0275,4.0674,4.0674,4.0758,4.1256,4.2132,4.2806,4.3412,4.3919,4.3491,4.3138,4.2756,4.2503,4.3223,4.4913,4.4602,4.4995,4.5737,4.4454,4.3149,4.1844,4.2936,4.4137,4.5435,4.7335,4.8093,4.8268,4.8926,4.9032,4.8906,4.8547,4.922,5.0167,5.0158,5.1061,5.2446,5.3521,5.4252,5.4721,5.5086,5.5342,5.542,5.542,5.5628,5.5913,5.632,5.6396,5.6625,5.7357,5.7584,5.7735,5.7735,5.7835,5.7986,5.8261,5.8536,5.8759,5.8883,5.9031,5.9179,5.9426,5.9377,5.9525,6.0014,6.016,6.0233,6.0233,6.0571,6.0933,6.1201,6.1704,6.1989,6.1989,6.2274,6.2531,6.2742,6.2742,6.304,6.3778,6.4671,6.551,6.6339,6.7613,6.8129,2.7148,2.9512,3.2338,3.1672,0.0,0.0,3.5586,3.51,3.4787,3.5881,3.6585,3.6982,3.7107,3.6255,0.0,3.6423,3.6156,3.5983,3.6595,3.7663,3.8053,3.7562,3.7966,3.8053,3.7562,3.8456,3.9029,3.9029,4.006,4.0674,4.0674,4.1156,4.1637,4.2132,4.3199,4.3804,4.3919,4.3122,4.2756,4.2739,4.1166,4.1283,4.2847,4.4475,4.4584,4.3401,4.3526,4.2514,4.0902,4.1391,4.2711,4.4412,4.5367,4.596,4.6278,4.6278,4.6634,4.7073,4.7053,4.7618,4.8594,4.9314,5.0192,5.1142,5.2526,5.3521,5.4275,5.4698,5.5086,5.542,5.542,5.542,5.5497,5.5913,5.5966,5.6143,5.6473,5.6906,5.7185,5.7185,5.756,5.791,5.791,5.8536,5.8957,5.8536,5.8809,5.9105,5.9105,5.8759,5.8858,5.9598,6.0014,6.0233,6.0233,6.0571,6.0861,6.0861,6.1606,6.1989,6.1989,6.1989,6.2318,6.2944,6.3014,6.3362,6.4123,6.4534,6.5308,6.6273,6.6339,6.7064,2.6046,2.7823,2.9614,2.8868,0.0,0.0,3.2938,3.3893,3.4737,3.4799,3.5442,3.6118,3.6441,0.0,0.0,0.0,3.6208,3.6456,3.6752,3.7663,3.8254,3.8053,3.8154,3.8254,3.8053,3.8355,3.8642,3.9044,3.966,4.0275,4.0559,4.1156,4.1637,4.2132,4.2806,4.3216,4.3314,4.2913,4.23,4.141,4.2064,4.2745,4.3567,4.381,4.4116,4.415,4.2443,4.1232,4.0482,4.1234,4.2104,4.302,4.4904,4.5498,4.5394,4.6005,4.6342,4.6511,4.695,4.7618,4.849,4.8985,4.9805,5.0721,5.1646,5.2605,5.342,5.4173,5.4721,5.511,5.5342,5.542,5.5497,5.5913,5.5966,5.6143,5.6473,5.6906,5.7185,5.7185,5.756,5.791,5.791,5.8111,5.8261,5.8111,5.8186,5.8261,5.8261,5.8685,5.8908,5.8833,5.9451,5.9966,6.0233,6.0379,6.0571,6.0789,6.1077,6.1221,6.1221,6.1678,6.2203,6.2742,6.29,6.3223,6.3778,6.4397,6.5078,6.5912,6.6405,6.7092,2.5607,2.7124,2.8268,2.7909,2.9554,0.0,0.0,3.2422,3.3265,3.3394,3.3775,0.0,0.0,0.0,3.4307,3.5231,3.5633,3.5966,3.659,3.742,3.7966,3.792,3.8009,3.8067,3.8254,3.8254,3.8542,3.9029,3.9575,4.0075,4.0575,4.1355,4.1835,4.2132,4.2921,4.3314,4.3314,4.2913,4.2333,4.157,4.2689,4.354,4.4357,4.3539,4.3469,4.4031,4.1665,4.0482,4.0324,4.1234,4.1931,4.2607,4.4222,4.4819,4.4734,4.5498,4.6005,4.6342,4.6614,4.7348,4.818,4.8573,4.9253,4.9989,5.0781,5.1829,5.2866,5.3702,5.4385,5.4853,5.5086,5.5265,5.5497,5.5705,5.5759,5.5859,5.609,5.6525,5.6906,5.6906,5.7485,5.791,5.791,5.8061,5.8111,5.8111,5.8111,5.8111,5.8111,5.8461,5.8685,5.8759,5.9204,5.9647,6.0233,6.0233,6.0379,6.0571,6.0644,6.0716,6.0861,6.1319,6.1821,6.2345,6.2645,6.304,6.3362,6.3848,6.4466,6.5146,6.5778,6.6153,2.5722,2.7042,2.7978,2.8412,2.9031,0.0,3.0847,3.0835,0.0,3.1646,0.0,0.0,0.0,3.1587,3.1991,3.4301,3.4483,3.4842,3.6339,3.712,3.7478,3.727,3.7477,3.775,3.8182,3.8225,3.8542,3.9029,3.9575,4.0075,4.0575,4.1653,4.223,4.223,4.3232,4.3821,4.3821,4.3026,4.266,4.2835,4.3072,4.3818,4.499,4.3406,4.2819,4.2935,4.1042,4.0236,4.0324,4.1216,4.2104,4.2952,4.3451,4.388,4.4393,4.4734,4.5498,4.6258,4.6258,4.6846,4.7701,4.8263,4.8656,4.915,5.001,5.1148,5.2353,5.3104,5.3971,5.4674,5.4775,5.5086,5.5342,5.542,5.542,5.542,5.542,5.6037,5.6549,5.6549,5.7282,5.791,5.791,5.8186,5.8461,5.8461,5.8461,5.8461,5.8461,5.8186,5.8261,5.8957,5.9105,5.9401,6.016,6.0233,6.0233,6.0233,6.0233,6.0379,6.0789,6.0789,6.1175,6.1989,6.2416,6.2742,6.3014,6.3014,6.3362,6.4165,6.4452,6.4564,2.482,2.6217,2.7184,2.7576,0.0,0.0,0.0,0.0,0.0,0.0,0.0,0.0,0.0,3.0299,3.1511,3.3222,3.4486,3.5507,3.6437,3.7032,3.7159,3.6734,3.7577,3.7765,3.6991,3.7764,3.8542,3.9029,3.9575,4.0075,4.0575,4.1653,4.223,4.223,4.2428,4.2822,4.3216,4.2139,4.2181,4.3329,4.3695,4.4043,4.4182,4.2781,4.218,4.2194,4.036,3.9884,4.0324,4.1547,4.2173,4.252,4.3708,4.4241,4.4393,4.4734,4.5498,4.6258,4.6258,4.6846,4.7701,4.8263,4.8656,4.9067,4.9683,5.0499,5.139,5.2353,5.2945,5.3555,5.4519,5.4853,5.5009,5.5342,5.542,5.542,5.542,5.6037,5.6549,5.6549,5.7282,5.791,5.791,5.7986,5.8061,5.8061,5.8061,5.8061,5.8061,5.8261,5.8336,5.8186,5.9007,5.95,5.9401,5.9647,5.9966,6.0233,5.994,5.994,6.0379,6.0716,6.1077,6.158,6.2248,6.2742,6.3014,6.3014,6.3362,6.4096,6.3311,6.3368,2.4659,2.5853,2.6552,2.7032,2.7888,2.8579,0.0,0.0,0.0,0.0,0.0,0.0,0.0,0.0,2.9636,3.0923,3.2808,3.4279,3.4805,3.5823,3.6356,3.6068,0.0,3.739,3.7255,3.7691,3.8355,3.936,3.946,3.986,4.0575,4.1339,4.1835,4.1835,4.2329,4.2707,4.2904,4.1701,4.1836,4.3519,4.3618,4.369,4.3533,4.2513,4.1914,4.1593,0.0,3.9477,4.0535,4.1162,4.1836,4.2607,4.3383,4.3813,4.3965,4.4222,4.4734,4.5414,4.609,4.6846,4.7701,4.7931,4.849,4.9067,4.9335,5.0092,5.1169,5.2033,5.241,5.2786,5.3735,5.4362,5.4853,5.5086,5.5241,5.542,5.542,5.5859,5.6296,5.6296,5.7006,5.756,5.756,5.7735,5.791,5.791,5.791,5.791,5.791,5.8136,5.8261,5.8186,5.8908,5.9426,5.9352,5.972,5.9966,5.994,5.9647,5.9647,6.0233,6.0451,6.0644,6.0861,6.1437,6.1937,6.2292,6.2434,6.2565,6.2586,6.2256,6.1899,2.453,2.5419,2.5858,2.6479,2.7083,2.7622,2.8222,0.0,0.0,0.0,0.0,0.0,0.0,2.6941,2.727,2.8449,3.0358,3.2095,3.3041,3.452,3.5466,3.53,0.0,3.7032,3.783,3.7791,3.837,3.9791,3.956,3.9645,4.0475,4.0957,4.1256,4.1256,4.2118,4.2643,4.2856,4.1646,4.1935,4.3519,4.319,4.3038,4.29,4.2069,4.1563,4.1153,0.0,3.9382,4.0763,4.0658,4.1483,4.2866,4.2952,4.3125,4.3451,4.3537,4.388,4.4497,4.5752,4.6782,4.7535,4.7618,4.8263,4.8985,4.8985,4.9826,5.1007,5.1872,5.2033,5.2193,5.2786,5.3712,5.4597,5.4752,5.5086,5.542,5.542,5.5705,5.5966,5.5966,5.6578,5.7185,5.7185,5.756,5.791,5.791,5.791,5.791,5.791,5.791,5.8061,5.8411,5.8809,5.9253,5.9598,5.9867,5.994,5.9672,5.9426,5.9548,6.016,6.0233,6.0233,6.0233,6.0644,6.1005,6.1345,6.1775,6.1626,6.0748,6.126,6.0442,2.3616,2.4112,2.4337,2.5544,2.5393,2.5265,2.6103,0.0,0.0,0.0,0.0,0.0,0.0,2.4741,2.5751,2.6783,2.828,3.0344,3.3123,3.4693,3.5349,3.4881,3.6354,0.0,3.6777,3.8061,3.9159,3.9791,4.0175,4.026,3.9991,4.0475,4.0758,4.0758,4.0774,4.1251,4.2153,4.2307,4.283,4.3519,4.2817,4.2396,4.2125,4.1012,4.0494,4.0406,3.9641,0.0,4.0902,4.1269,4.1738,4.2347,4.2779,4.2952,4.3125,4.3451,4.388,4.4497,4.5433,4.6362,4.7201,4.7535,4.8263,4.8985,4.8985,4.9662,5.0521,5.1007,5.1148,5.139,5.2526,5.3239,5.3892,5.462,5.5086,5.542,5.542,5.5705,5.5966,5.5966,5.6578,5.7185,5.7185,5.756,5.791,5.791,5.791,5.791,5.791,5.791,5.791,5.7986,5.8685,5.9105,5.9179,5.9253,5.9426,5.9672,5.994,6.0014,5.9745,6.0087,6.0233,6.0233,6.0644,6.0861,6.0959,6.1678,6.1485,6.0334,6.0031,5.9402,2.3565,2.3914,2.401,2.5279,2.5557,2.5781,2.661,0.0,0.0,0.0,0.0,0.0,0.0,2.4072,2.4752,2.6069,2.708,2.8679,3.154,3.3398,3.45,3.4285,3.5786,3.6746,3.6523,3.8076,3.9445,4.0175,3.996,3.996,4.0275,3.996,3.9893,4.0134,4.0281,4.0898,4.1989,4.2072,4.2451,4.3138,4.3076,4.2772,4.2117,4.1322,4.0968,4.0813,3.9386,3.9209,3.9884,4.0436,4.0866,4.1312,4.2168,4.252,4.2607,4.3279,4.3708,4.4051,4.5263,4.6109,4.6698,4.7368,4.8097,4.8738,4.8903,4.9499,5.0113,5.0255,5.0581,5.1148,5.2011,5.2707,5.342,5.433,5.4799,5.5187,5.5342,5.5551,5.5705,5.5705,5.6143,5.6501,5.6501,5.7058,5.746,5.746,5.7735,5.791,5.791,5.791,5.791,5.791,5.8411,5.8883,5.9105,5.9105,5.9179,5.9352,5.972,5.9892,5.9672,5.9457,5.9318,5.9318,5.9462,5.9677,5.9865,6.0246,5.9718,5.8383,5.8099,5.7726,2.3883,0.0,2.4164,2.5384,2.5928,2.6378,0.0,2.6671,0.0,0.0,0.0,0.0,0.0,2.3874,2.434,2.5785,2.6599,2.7841,2.9995,3.1943,0.0,3.3798,3.5295,3.6487,3.6648,3.8128,3.948,4.0559,3.976,3.956,4.026,3.9195,3.8881,3.9363,3.962,4.042,4.1689,4.1378,4.1455,4.2051,4.2667,4.2428,4.1476,4.1291,4.0983,4.0635,3.9306,3.8772,3.881,3.9764,4.0225,4.0545,4.1595,4.2087,4.2347,4.3193,4.3537,4.3708,4.5074,4.5837,4.6342,4.7117,4.7765,4.849,4.8738,4.9088,4.952,4.9683,5.0174,5.0824,5.139,5.2171,5.2945,5.3702,5.433,5.4775,5.5032,5.5187,5.5265,5.5265,5.5605,5.5966,5.5966,5.6578,5.7034,5.7109,5.746,5.7811,5.791,5.791,5.791,5.791,5.8261,5.861,5.8957,5.8957,5.9031,5.9105,5.9352,5.9473,5.9269,5.8933,5.8592,5.813,5.8384,5.85,5.8597,5.8667,5.7959,5.6527,5.6658,5.6419,0.0,2.482,2.4722,2.6058,2.5854,2.5623,2.6658,2.5994,0.0,2.4438,2.3919,2.3408,2.3057,2.3679,2.459,2.5714,2.7038,2.8264,2.9276,3.0922,0.0,0.0,3.5323,3.6627,3.7223,3.8222,3.9391,4.0513,4.0075,3.9575,3.9245,3.807,3.7815,3.8749,3.8043,3.8694,4.0742,4.0187,3.9988,4.0054,4.0325,3.9937,3.9006,3.9619,3.943,0.0,3.9652,3.9284,3.8182,3.9988,4.0591,4.0545,4.1371,4.1844,4.2347,4.3193,4.3537,4.3708,4.463,4.5498,4.6258,4.6342,4.7264,4.8408,4.8408,4.849,4.8656,4.952,4.9786,5.001,5.0764,5.1631,5.2433,5.2866,5.36,5.4297,5.4297,5.4565,5.4853,5.4853,5.545,5.5966,5.5966,5.6296,5.6678,5.7109,5.7185,5.7361,5.7835,5.791,5.791,5.791,5.8261,5.8536,5.8536,5.8536,5.8685,5.9105,5.9105,5.8778,5.8112,5.9018,5.8807,5.7083,5.8048,5.8073,5.7101,5.7488,5.7009,5.5894,5.6462,5.6355,0.0,2.3609,2.3995,2.4906,2.5047,2.5269,2.6263,2.5671,2.4854,2.4396,2.3859,2.3378,2.3016,2.3225,2.4022,2.5709,2.661,2.7776,0.0,0.0,0.0,3.3469,3.5899,3.7419,3.7434,3.9001,4.0099,4.0544,3.986,3.9365,3.9452,3.782,3.7317,3.8559,3.7924,3.8573,4.0872,4.0317,4.0435,4.1156,4.0241,4.0074,4.0535,3.9731,3.9792,4.0596,4.0321,3.9387,0.0,4.0022,4.0005,3.9025,4.0919,4.1844,4.2347,4.3193,4.3794,4.4137,4.4734,4.5329,4.5921,4.6174,4.6846,4.7618,4.7848,4.7931,4.8014,4.8759,4.9088,4.9499,5.0337,5.0824,5.1368,5.2605,5.3183,5.3521,5.4118,5.4565,5.4853,5.4853,5.5241,5.5628,5.5628,5.5913,5.6219,5.6425,5.6806,5.7185,5.746,5.7735,5.7811,5.746,5.7861,5.8036,5.7662,5.7662,5.7837,5.8312,5.861,5.8709,5.8628,5.7728,5.7249,5.7145,5.6287,5.61,5.6585,5.5989,5.5387,5.4723,5.4918,5.5136,2.3483,2.3895,2.435,2.4721,2.5038,2.5428,2.5975,2.5529,2.4876,2.4383,2.3859,2.3438,2.3197,2.3298,2.4021,2.5847,2.6693,0.0,0.0,0.0,0.0,3.2769,3.475,3.6259,3.6793,3.8337,3.9414,3.9642,3.8847,3.8441,3.8681,3.7302,3.7203,3.8667,3.7771,3.8261,4.0365,3.9692,3.9727,4.0491,3.9406,3.9525,4.0759,3.9731,4.0006,4.1263,4.09,3.9645,3.8097,4.0022,3.9816,3.847,4.054,4.1739,4.2347,4.3193,4.388,4.4326,4.4649,4.5159,4.5687,4.5837,4.6362,4.7137,4.7368,4.7535,4.7701,4.8097,4.849,4.8985,4.9744,5.001,5.0478,5.1887,5.2366,5.2685,5.3645,5.4252,5.4643,5.4643,5.5032,5.542,5.542,5.5628,5.5836,5.5989,5.6425,5.6806,5.6982,5.7333,5.7409,5.7185,5.7385,5.7333,5.6982,5.7034,5.7285,5.7636,5.7912,5.7992,5.7889,5.7094,5.6523,5.627,5.5245,5.5078,5.5848,5.4556,5.3867,5.3759,5.3759,5.4146,2.6002,2.6242,2.6153,2.5932,2.6023,2.6185,0.0,0.0,2.5054,2.4383,2.3859,2.3513,2.3513,2.4049,2.4862,2.6033,0.0,0.0,2.8556,3.0025,3.1162,0.0,3.1538,3.2549,3.5278,3.6049,3.6709,3.7477,3.6931,3.6621,3.6775,3.6506,3.7241,3.9219,3.7506,3.7374,3.9069,3.793,3.7313,3.7313,3.7582,3.8006,3.8664,3.9349,3.9694,3.9883,4.1076,4.0176,0.0,4.0022,4.0124,3.9217,4.0348,4.1356,4.2347,4.3193,4.388,4.4326,4.4326,4.4923,4.5583,4.5074,4.5837,4.7053,4.7053,4.7304,4.7618,4.7618,4.8014,4.849,4.8903,4.9232,4.9784,5.0657,5.1244,5.1727,5.2672,5.3566,5.4219,5.4219,5.49,5.542,5.542,5.542,5.5551,5.5913,5.5966,5.6143,5.6473,5.6549,5.6678,5.7109,5.6754,5.6525,5.6525,5.6858,5.7085,5.7137,5.7137,5.654,5.5284,5.7302,5.7125,5.4106,5.5195,5.5359,5.4598,5.3186,5.2703,5.3071,5.3071,5.3616,2.5159,2.507,2.496,2.5353,2.5125,2.4905,0.0,0.0,2.4219,2.3859,2.3619,2.3513,2.3513,2.3864,2.4528,0.0,0.0,2.8044,2.8879,2.957,3.0422,3.139,0.0,3.2684,3.5468,3.6503,3.7673,3.9031,3.8663,3.8257,3.8305,3.7375,3.753,3.896,3.7956,3.7848,3.878,3.7632,3.7201,3.7551,3.6879,3.728,3.8664,3.8609,3.9455,4.1076,4.1095,4.0539,0.0,4.0505,4.0124,3.9217,4.0348,4.1356,4.2347,4.3193,4.4051,4.4734,4.4412,4.4649,4.5074,4.4989,4.5668,4.6511,4.6511,4.7033,4.7535,4.7284,4.7535,4.7848,4.7701,4.818,4.8985,4.9784,5.0517,5.1244,5.1829,5.2866,5.3758,5.4118,5.4643,5.5086,5.5342,5.542,5.542,5.5551,5.5836,5.6066,5.6143,5.6396,5.6625,5.6678,5.5503,5.4492,5.401,5.3815,5.3962,5.4477,5.455,5.4987,5.5835,5.5785,5.6078,5.6739,5.4872,5.4225,5.5017,5.3066,5.2415,5.3071,5.3071,5.3331,2.4985,2.4817,2.4679,2.4976,2.4692,2.4347,2.4602,0.0,2.3739,2.3559,2.3513,2.3513,2.3513,2.3787,2.4513,0.0,0.0,0.0,2.8817,2.9202,2.9876,3.1354,3.1472,0.0,0.0,0.0,3.6787,3.8728,3.8375,3.8316,3.8861,3.7813,3.7931,3.9535,3.8032,3.7586,3.8321,3.7139,3.6667,3.7033,3.6453,3.715,3.9002,3.8753,3.9742,4.1583,4.1094,4.0384,0.0,4.0331,3.9778,3.8686,4.0175,4.1356,4.2347,4.3193,4.4137,4.4819,4.4478,4.4564,4.4904,4.4734,4.5329,4.609,4.6258,4.6762,4.7388,4.7284,4.7451,4.7535,4.7137,4.7535,4.8345,4.915,5.005,5.0862,5.1405,5.2526,5.3578,5.3859,5.4252,5.4721,5.511,5.5164,5.5265,5.5342,5.5628,5.5759,5.5759,5.5936,5.6024,5.5726,5.4551,5.3529,5.3158,5.2917,5.2917,5.3423,5.3805,5.4431,5.5278,5.5739,5.6348,5.7227,5.4884,5.4216,5.5185,5.2901,5.2018,5.2612,5.2743,5.29,2.522,2.5085,2.5021,2.4755,2.4527,2.4329,2.4259,0.0,0.0,2.3453,2.3438,2.3513,2.3513,2.4014,0.0,0.0,0.0,2.762,2.8669,2.8934,2.9647,3.1359,0.0,0.0,3.5299,3.4633,3.4981,3.731,3.6945,3.7274,3.9,3.7887,3.8171,4.0429,3.7987,3.6942,3.7862,3.6483,3.5834,3.5924,3.6254,3.7492,3.9356,3.9356,4.0165,4.1495,4.1007,4.0002,0.0,3.9773,3.9306,3.8151,4.0105,4.1443,4.2329,4.3279,4.4137,4.4819,4.4393,4.4478,4.4819,4.4393,4.4923,4.5771,4.609,4.6614,4.7033,4.7368,4.7535,4.7451,4.7033,4.7304,4.7785,4.8594,4.9499,5.0418,5.1266,5.2366,5.3341,5.342,5.3859,5.4275,5.4698,5.4775,5.4931,5.5265,5.5342,5.5396,5.5202,5.5202,5.4988,5.419,5.3538,5.3161,5.3065,5.3041,5.3137,5.3137,5.4115,5.4526,5.407,5.6396,5.725,5.6324,5.5154,5.4782,5.5185,5.2697,5.1619,5.1861,5.2307,5.253,2.5276,2.4975,2.4815,2.5096,2.4903,2.4499,2.3949,2.3765,0.0,0.0,2.2895,2.3137,2.3438,0.0,2.5311,0.0,2.7577,2.8826,2.9151,2.9422,2.9764,0.0,3.0781,0.0,3.4358,3.4206,0.0,3.8434,3.7388,3.7274,3.9,3.8317,3.8356,3.9315,3.7771,3.6952,3.7306,3.5563,3.4991,3.5353,3.5864,3.703,3.8825,3.8825,3.962,4.092,4.057,4.038,4.033,4.0256,4.0205,4.0243,4.0659,4.1617,4.2866,4.3365,4.3965,4.4412,4.388,4.4051,4.4393,4.388,4.4649,4.5687,4.5771,4.609,4.6426,4.6511,4.6866,4.7053,4.6511,4.6782,4.7221,4.7368,4.8428,4.9478,5.0397,5.1266,5.2207,5.3239,5.3578,5.3758,5.4275,5.4643,5.4775,5.4509,5.5055,5.4962,5.3842,5.3977,5.348,5.173,5.1403,5.0957,5.0159,5.0366,5.0666,5.0966,5.2014,5.3017,5.3998,5.5375,5.6392,5.6922,5.5447,5.464,5.4711,5.2536,5.1619,5.1861,5.2307,5.2637,2.4553,2.4268,2.4206,2.464,2.4276,2.3727,2.3349,0.0,0.0,0.0,2.2653,2.3001,2.3197,2.4331,0.0,2.6435,2.7704,2.8924,2.9915,2.9452,2.9402,3.0328,3.0758,3.1862,3.3904,3.4397,3.572,3.8855,3.7247,3.6453,3.7063,3.7775,3.8272,3.8599,3.7171,3.645,3.6249,3.5555,3.5157,3.5157,3.6403,3.7565,3.8648,3.8914,3.9604,4.0482,4.006,3.9666,3.9363,3.9996,4.0015,3.9796,4.1025,4.1895,4.2693,4.3279,4.3708,4.388,4.3622,4.388,4.4241,4.3708,4.4308,4.5329,4.5602,4.5837,4.6005,4.6174,4.6426,4.653,4.609,4.6362,4.6614,4.6446,4.7284,4.8345,4.9253,5.0538,5.1807,5.2707,5.3047,5.3284,5.3758,5.4252,5.4486,5.4486,5.4614,5.4409,5.3645,5.3157,5.2115,5.0231,5.0136,5.0064,4.9524,4.9637,4.9934,5.0298,5.1345,5.2467,5.3687,5.5157,5.6271,5.7161,5.5327,5.4402,5.464,5.2356,5.1443,5.1861,5.2084,5.2481,2.3744,2.3592,2.3717,2.4007,2.3572,2.3039,2.2853,2.2917,0.0,0.0,2.2505,2.2933,2.2918,2.4229,2.5632,2.6888,2.7821,2.8892,3.0447,2.9494,2.9111,0.0,3.1183,3.2235,3.4275,3.4935,0.0,3.8522,3.6779,3.5548,3.5474,3.6962,3.7864,3.7928,3.6818,3.6009,3.5549,3.5636,3.5609,3.5338,3.703,3.8011,3.8471,3.9019,3.9444,3.9884,3.9356,3.8761,3.7973,3.9457,3.9601,3.9112,4.1215,4.2173,4.2433,4.3193,4.3451,4.3451,4.3451,4.3794,4.4137,4.3708,4.4137,4.497,4.5348,4.5498,4.5602,4.5921,4.609,4.609,4.5771,4.5921,4.609,4.5771,4.6278,4.7117,4.8014,4.9702,5.1427,5.2193,5.2592,5.299,5.3262,5.378,5.4196,5.4463,5.4159,5.3791,5.3442,5.2266,5.0826,4.932,4.9477,4.9637,4.9637,4.9705,4.9934,5.0298,5.1276,5.2254,5.3256,5.4988,5.6101,5.648,5.4842,5.4092,5.4277,5.2078,5.1309,5.1885,5.1952,5.2349,2.3375,2.3786,2.4262,2.3882,2.3843,2.3785,2.3052,2.3154,2.3203,2.2426,0.0,2.289,2.275,2.4617,2.6295,2.7072,0.0,3.0117,3.0451,2.9825,2.9778,3.1355,3.2099,3.3466,3.5945,3.6283,3.6537,3.7003,3.5859,3.5756,3.7103,3.6494,3.6546,3.7408,3.7244,3.6807,3.6058,3.5119,3.5006,3.5834,3.6434,3.703,3.7476,3.8043,3.8342,3.8326,3.8342,3.835,3.8606,3.9323,3.9993,4.059,4.1356,4.2191,4.2866,4.2952,4.3038,4.3038,4.3038,4.3297,4.3622,4.3518,4.4137,4.4819,4.4582,4.4734,4.4989,4.5074,4.5414,4.5771,4.5687,4.5687,4.5771,4.5687,4.6005,4.6511,4.7117,4.8594,5.0294,5.1953,5.2592,5.2933,5.291,5.3284,5.342,5.3148,5.369,5.3505,5.1718,5.0836,5.0039,4.925,4.9202,4.9271,4.9271,4.9568,4.9934,5.0298,5.0975,5.178,5.2602,5.3924,5.4445,5.3998,5.4023,5.3611,5.2784,5.1869,5.151,5.1552,5.2109,5.2439,2.3173,2.3213,2.3321,2.3625,2.3543,2.3219,2.2825,2.3338,2.3579,2.2734,2.3288,0.0,2.3587,2.4575,2.6025,0.0,0.0,0.0,3.0449,2.9607,2.9393,0.0,3.1643,0.0,3.44,3.5496,3.6198,3.6494,3.53,3.4643,3.4817,3.5028,3.5692,3.669,3.6121,3.5596,3.5144,3.5215,3.5533,3.6014,3.6987,3.7419,3.7298,3.7881,3.8075,3.8075,3.8326,3.8664,3.9179,3.9956,4.0657,4.1303,4.2087,4.2433,4.252,4.2866,4.2779,4.252,4.252,4.2952,4.3537,4.3537,4.4137,4.4885,4.4734,4.4734,4.4885,4.4885,4.5074,4.5244,4.5244,4.5244,4.5244,4.5244,4.5583,4.6025,4.6193,4.7264,4.8594,5.0131,5.1529,5.2614,5.2853,5.3205,5.342,5.3205,5.3327,5.2772,5.1065,5.0548,4.9901,4.872,4.8812,4.895,4.895,4.9294,4.9637,5.0002,5.0268,5.0858,5.1755,5.2779,5.3687,5.4282,5.3951,5.3903,5.4215,5.3106,5.2494,5.2297,5.2889,5.3037,2.2532,2.2537,2.259,2.3309,2.321,2.2902,2.2638,2.3352,2.3805,2.2893,2.3646,2.427,0.0,0.0,0.0,2.7756,2.7704,0.0,3.0067,2.9183,0.0,3.0027,0.0,3.1969,3.3171,3.4635,0.0,3.6267,3.4884,3.3832,3.3492,3.4137,3.4951,3.5848,3.5075,3.4425,3.4175,3.5233,3.5879,3.6104,3.7092,3.7345,3.6956,3.7345,3.7629,3.7702,3.8116,3.8648,3.9356,4.0307,4.092,4.1478,4.2433,4.2433,4.2087,4.2433,4.2365,4.2,4.2173,4.2761,4.3537,4.3537,4.4137,4.4904,4.4819,4.4734,4.4734,4.4734,4.4734,4.4819,4.4904,4.4885,4.4885,4.4885,4.5329,4.5687,4.5687,4.6446,4.7535,4.8573,5.0478,5.1953,5.2353,5.2809,5.3183,5.3183,5.2912,5.2252,5.0932,5.0594,5.0004,4.8688,4.8603,4.8813,4.9113,4.909,4.9388,5.0083,4.9778,5.0059,5.1047,5.1658,5.2682,5.4163,5.3686,5.3879,5.4794,5.4095,5.337,5.2497,5.3344,5.3374,2.1382,2.1869,2.2643,2.2863,2.3246,2.3349,2.2842,2.3365,2.364,2.2723,2.3208,2.356,0.0,0.0,2.5338,2.6706,2.7711,2.8578,2.9343,2.8496,2.8373,0.0,0.0,0.0,0.0,0.0,0.0,3.6121,3.4359,3.391,3.5578,3.4647,3.4235,3.4702,3.4645,3.4332,3.3692,3.4691,3.5609,3.6508,3.6179,3.6014,3.6014,3.6014,3.6269,3.6687,3.7119,3.7922,3.8825,3.9884,4.0482,4.099,4.1895,4.2,4.1687,4.167,4.167,4.167,4.2087,4.2761,4.3537,4.3537,4.4137,4.48,4.4478,4.4326,4.4326,4.4326,4.4326,4.4393,4.48,4.4885,4.4885,4.4885,4.5329,4.5687,4.5687,4.6698,4.7785,4.8325,4.9499,5.0581,5.1002,5.177,5.2353,5.2353,5.265,5.2486,5.1438,5.0848,5.0253,4.96,4.8735,4.8716,4.9989,4.9322,4.9508,5.1121,4.9948,4.9592,5.0369,5.065,5.1216,5.2016,5.2946,5.316,5.2666,5.3941,5.3566,5.1608,5.2999,5.3239,2.1252,2.1554,2.1686,2.2072,2.2596,2.293,2.2443,2.361,2.4558,2.3794,2.4645,2.521,2.4529,2.4864,2.5623,2.6774,2.7029,2.7641,2.9115,2.8776,2.8788,3.0009,3.0454,3.1494,0.0,0.0,0.0,3.4216,3.2994,3.2705,3.3564,3.2834,3.2873,3.4083,3.3798,3.3567,3.3587,3.4691,3.5338,3.5699,3.5819,3.5819,3.5443,3.5834,3.6179,3.6598,3.7419,3.8309,3.9267,4.0219,4.092,4.1391,4.167,4.1844,4.1913,4.167,4.1757,4.1913,4.1443,4.1878,4.2761,4.3038,4.3537,4.4118,4.4564,4.4478,4.4412,4.4649,4.4478,4.4412,4.48,4.4885,4.4885,4.4885,4.5329,4.5687,4.5687,4.6278,4.7014,4.7765,4.8759,4.9744,5.0397,5.1287,5.1953,5.1953,5.2273,5.2136,5.1117,5.0491,5.0077,4.9844,4.914,4.9153,5.0343,5.058,5.0666,5.0579,5.0324,4.9973,4.9592,5.0197,5.1234,5.285,5.3519,5.4336,5.5495,5.6029,5.5545,5.4114,5.4507,5.4166,2.0276,2.0502,2.0569,2.115,2.1812,2.225,2.2033,2.3396,2.4565,2.4156,2.5028,2.5639,2.516,2.5134,2.5583,2.6601,2.678,2.731,2.8676,2.8499,2.8635,2.9547,2.9629,0.0,0.0,0.0,3.2562,3.3934,3.3088,3.2681,3.294,3.2043,3.2173,3.3496,3.3214,3.3356,3.3874,3.4796,3.5157,3.5157,3.5729,3.5548,3.4977,3.5624,3.6254,3.6866,3.7865,3.8753,3.9532,4.0465,4.092,4.1129,4.1495,4.1583,4.1547,4.1391,4.1652,4.1913,4.1286,4.1547,4.226,4.2607,4.3038,4.3537,4.4478,4.4308,4.3984,4.4564,4.4308,4.3965,4.4564,4.4564,4.446,4.4649,4.5074,4.5433,4.5244,4.5752,4.6426,4.7014,4.7931,4.8841,4.9744,5.0581,5.1148,5.139,5.1631,5.1552,5.0875,5.0421,5.0304,5.0478,4.9786,4.9754,5.0939,5.1214,5.1104,5.0488,5.0852,5.0439,4.9135,4.999,5.1234,5.2874,5.3184,5.4167,5.5738,5.6465,5.6077,5.4745,5.4953,5.4524,1.8349,1.8789,1.9373,2.0158,2.0938,2.1503,2.1587,2.2612,2.3546,2.3733,2.4175,2.4507,2.4692,2.4813,2.5164,2.6098,2.706,2.7766,2.7816,2.7842,2.7984,2.849,2.775,2.8477,3.2081,3.3523,3.4601,3.5408,3.4674,3.4124,3.3877,3.2323,3.1997,3.3005,3.3005,3.3462,3.4462,3.4886,3.5157,3.5157,3.5729,3.5383,3.4448,3.5413,3.6403,3.7387,3.8293,3.9002,3.9532,4.0465,4.057,4.0324,4.1234,4.1042,4.0324,4.064,4.1112,4.1583,4.1583,4.1844,4.2173,4.2173,4.252,4.3125,4.3984,4.3641,4.3125,4.407,4.3641,4.3125,4.407,4.388,4.3708,4.4155,4.4564,4.4819,4.4393,4.5329,4.6258,4.6258,4.7033,4.7931,4.882,4.9417,5.001,5.0764,5.0926,5.0905,5.0926,5.0861,5.0973,5.1482,5.0612,5.0562,5.1986,5.1195,5.0757,5.1089,5.1458,5.08,4.8905,5.002,5.1075,5.1849,5.1918,5.2291,5.3147,5.5177,5.5104,5.3103,5.4128,5.4241,1.7799,0.0,0.0,1.9367,2.0189,2.0869,2.1444,2.2697,2.3669,2.3822,2.4287,2.4627,2.4672,2.4459,2.4633,2.5658,2.6343,2.7218,2.82,2.872,2.8961,2.9108,2.9236,3.0126,3.237,3.32,3.366,3.3839,3.3664,3.2894,3.1656,3.1221,3.1616,3.3005,3.2717,3.3251,3.4977,3.5067,3.5157,3.5157,3.5338,3.5082,3.4462,3.472,3.5789,3.7387,3.7954,3.8753,3.9532,4.0465,4.057,4.0324,4.0832,4.092,4.064,4.0815,4.0902,4.1007,4.1007,4.1094,4.1269,4.1652,4.1844,4.2191,4.3365,4.3106,4.2607,4.3537,4.3106,4.2589,4.3537,4.3622,4.3622,4.3708,4.4137,4.4478,4.4308,4.5074,4.5837,4.5837,4.6782,4.7848,4.849,4.9253,4.9929,5.0418,5.0499,5.0602,5.0926,5.1232,5.1695,5.243,5.1638,5.1224,5.1647,5.1675,5.1188,5.0057,5.035,5.0109,4.9135,4.969,5.0623,5.1918,5.2174,5.2908,5.4201,5.4787,5.4787,5.4177,5.3688,5.3392,1.6871,0.0,0.0,0.0,1.9212,1.9837,2.0678,2.1777,2.284,2.3435,2.3991,2.4582,2.5192,2.5148,2.5219,0.0,2.689,2.7833,2.8224,2.8842,2.9319,2.904,2.9891,3.0979,3.217,3.312,3.3614,3.337,3.309,3.2424,3.1164,3.0904,3.1327,3.2717,3.2429,3.3055,3.4796,3.4886,3.4886,3.4886,3.4886,3.4615,3.407,3.4524,3.5518,3.6851,3.7865,3.8753,3.9532,4.0465,4.0482,3.9956,4.0553,4.0553,4.029,4.0728,4.0728,4.057,4.0728,4.0815,4.0902,4.1199,4.1391,4.1757,4.2693,4.252,4.2,4.2607,4.2347,4.2087,4.2761,4.2934,4.3106,4.3451,4.3794,4.3965,4.3965,4.4582,4.5178,4.5329,4.6005,4.6846,4.7931,4.8676,4.9417,5.001,4.9929,4.9929,5.0418,5.0824,5.147,5.2273,5.2082,5.1728,5.1559,5.1768,5.112,4.9452,5.0087,5.0105,4.9066,4.9761,5.0437,5.0973,5.1387,5.2114,5.3114,5.3692,5.3957,5.3957,5.3322,5.2854,1.5764,0.0,0.0,1.7744,1.8086,1.8433,0.0,0.0,2.1311,2.2598,2.3303,2.4115,2.5575,2.5947,2.6039,2.6256,2.7816,2.8769,2.7875,2.8644,2.9121,2.8644,3.003,3.1145,3.1535,3.3029,3.3825,3.325,3.2711,3.2092,3.1541,3.1047,3.1104,3.2045,3.2205,3.2949,3.4256,3.4328,3.4357,3.4357,3.4357,3.4175,3.3678,3.4691,3.5518,3.6044,3.7849,3.8914,3.9444,4.0377,4.0219,3.9532,4.0377,4.0219,3.962,4.0465,4.0657,4.0412,4.0832,4.0902,4.0902,4.0902,4.1199,4.167,4.2087,4.1826,4.1495,4.1583,4.1583,4.1583,4.2,4.2173,4.2433,4.3193,4.3346,4.3346,4.3346,4.3794,4.4326,4.463,4.4904,4.5564,4.7368,4.8097,4.8717,4.9394,4.919,4.915,4.9683,5.0092,5.0662,5.1631,5.2033,5.2035,5.1527,5.1314,5.0526,4.8982,5.007,5.0209,4.8905,4.995,5.0277,4.9797,5.0138,5.0501,5.0863,5.2259,5.2859,5.2859,5.2859,5.2341,0.0,0.0,0.0,0.0,0.0,0.0,0.0,0.0,1.9892,2.086,2.1695,2.2705,2.4479,2.4579,2.4761,2.6039,2.7042,2.7667,2.7735,2.8644,2.9121,2.8644,2.9591,3.0558,3.1011,3.2113,3.245,3.1502,3.1666,3.1437,3.0492,3.0642,3.0828,3.0986,3.1792,3.2559,3.3131,3.4006,3.4357,3.4357,3.4357,3.4175,3.3678,3.4691,3.5518,3.6028,3.7508,3.8414,3.8914,3.9956,3.9972,3.9532,4.0131,4.0219,4.0148,4.064,4.1007,4.1321,4.1408,4.1408,4.1408,4.1408,4.1495,4.167,4.2087,4.1634,4.1094,4.1495,4.1303,4.1094,4.1565,4.1913,4.226,4.2416,4.2416,4.2416,4.2416,4.2866,4.3383,4.3708,4.497,4.6323,4.7475,4.8305,4.8573,4.7731,4.8388,4.915,4.9683,5.0092,5.0662,5.1631,5.2033,5.2035,5.1527,4.9942,4.8828,4.8389,4.8574,4.8833,4.9088,4.932,4.955,4.9797,5.0138,5.0365,5.0433,5.137,5.1626,5.138,5.1693,5.1374,0.0,0.0,0.0,0.0,0.0,0.0,0.0,0.0,0.0,0.0,0.0,2.0744,2.2416,0.0,2.408,2.5371,2.687,2.7912,2.7804,2.8644,2.9226,2.904,2.9694,3.0396,3.1239,3.1987,3.2135,3.136,3.1466,3.1272,3.0418,3.059,3.0593,3.0289,3.1556,3.2232,3.2162,3.3394,3.3979,3.3979,3.3303,3.3227,3.3664,3.3905,3.4742,3.6044,3.7224,3.8116,3.8737,3.9019,3.9107,3.9091,3.962,3.9972,4.0307,4.064,4.1007,4.1147,4.1023,4.1176,4.1262,4.1072,4.1244,4.1572,4.1512,4.0556,3.9542,3.985,3.9491,3.9044,3.988,4.0774,4.1636,4.191,4.2043,4.226,4.252,4.2283,4.2274,4.312,4.3653,4.4448,4.5765,4.6717,4.7097,4.6428,4.6734,4.7261,4.7922,4.8141,4.8698,4.9859,5.035,5.0464,5.0211,4.9073,4.8319,4.8158,4.818,4.8512,4.9133,4.9202,4.9271,4.9477,4.9345,4.9376,4.9577,4.975,4.9808,4.9808,5.0428,5.0513,0.0,0.0,0.0,0.0,0.0,0.0,0.0,0.0,0.0,0.0,0.0,0.0,0.0,0.0,0.0,2.434,2.6565,2.8039,2.7755,2.8499,2.9103,2.9214,2.9789,3.0454,3.1287,3.1958,3.2079,3.157,3.1419,3.1156,3.0774,3.0682,3.0515,2.9943,3.128,3.1837,3.145,3.2726,3.3474,3.3587,3.2476,0.0,3.3664,3.3435,3.4282,3.6044,3.694,3.7849,3.8648,3.8237,3.8414,3.8809,3.8854,3.9144,3.9708,3.997,4.016,4.0263,4.0236,4.0516,4.0888,4.0591,4.0982,4.1564,4.1111,3.9799,0.0,3.8469,3.7999,3.768,3.8495,3.9938,4.1311,4.1571,4.1803,4.1975,4.2175,4.1449,4.1132,4.2383,4.2307,4.2607,4.416,4.4752,4.5039,4.5195,4.5044,4.5145,4.6084,4.6064,4.6587,4.7973,4.8355,4.8594,4.8647,4.815,4.7728,4.7479,4.7551,4.7845,4.8414,4.8204,4.8086,4.7943,4.7667,4.7712,4.7996,4.8175,4.8336,4.8499,4.8713,4.9019,0.0,0.0,0.0,0.0,0.0,0.0,0.0,0.0,0.0,0.0,0.0,0.0,0.0,0.0,0.0,0.0,2.5183,2.6858,2.7586,2.7852,2.8124,2.8595,2.9505,3.0209,3.0268,3.1239,3.1518,3.0904,3.08,3.0774,3.0682,3.0682,0.0,0.0,0.0,3.1085,3.145,3.1964,3.2704,3.3587,3.3425,3.3425,3.3678,3.4527,3.5249,3.6044,3.694,3.7849,3.8648,3.8237,3.8592,3.9201,3.7369,3.707,3.7598,3.7455,3.7833,3.8532,3.9163,0.0,0.0,4.09,4.1216,4.1564,4.151,4.0625,3.9541,3.9116,3.9286,3.9505,3.9676,4.0846,4.1922,4.1293,4.1102,4.0893,3.9903,3.9856,4.0246,4.1216,4.2293,4.3355,4.4651,4.3445,4.2627,4.3341,4.3802,4.4455,4.5615,4.5418,4.5846,4.7513,0.0,0.0,4.8054,4.6695,4.5686,4.5442,4.5425,4.5527,4.5734,4.4858,4.4064,4.3496,4.4527,4.5136,4.5144,4.7447,4.8399,4.8037,4.5947,4.5584,0.0,0.0,0.0,0.0,0.0,0.0,0.0,0.0,0.0,0.0,0.0,0.0,0.0,0.0,0.0,0.0,2.3877,2.5347,2.5955,2.6823,2.7658,2.8514,2.9226,2.9834,3.0418,3.1446,3.1684,3.0787,3.1314,3.1327,3.0761,3.0682,3.0515,2.9943,3.107,3.1534,3.145,3.251,3.3165,3.3587,3.2418,3.2446,3.365,3.2994,3.3885,3.6013,3.6254,3.7128,3.8237,3.7508,3.7938,3.8799,0.0,0.0,0.0,0.0,3.8353,3.912,3.9228,3.9808,4.047,4.0631,4.1066,4.1564,4.1614,3.9967,3.8241,3.8352,3.7455,3.662,3.7304,3.8726,3.9854,3.9151,3.9891,4.0415,3.9509,3.9226,3.9668,4.1235,4.1053,0.0,4.2202,4.1736,4.1481,4.2277,4.2385,4.2678,4.3669,4.3648,4.3855,4.4834,4.5507,4.5804,4.5473,4.5162,0.0,0.0,0.0,4.4874,4.4603,4.452,0.0,0.0,0.0,0.0,0.0,0.0,0.0,0.0,4.1637,4.1986,0.0,0.0,0.0,0.0,0.0,0.0,0.0,0.0,0.0,0.0,0.0,0.0,0.0,0.0,0.0,0.0,2.2066,2.346,2.4052,2.5218,2.6456,2.7451,2.8548,2.939,3.0138,3.1179,3.1454,3.0724,3.1216,3.1347,3.0749,3.0619,3.0515,3.0616,3.125,3.1701,3.2041,3.2676,3.3086,3.3422,3.191,3.1938,3.3379,3.2187,3.311,3.5744,3.5719,3.6608,3.8059,3.6858,3.7296,3.8399,3.6873,3.6666,3.735,3.7406,3.7902,3.8545,3.8613,3.9167,3.9838,3.991,4.0424,4.0917,4.0791,3.902,3.7138,3.7356,3.6199,3.5044,3.61,3.7594,3.8712,3.7954,3.8856,3.9628,3.8504,3.842,3.8909,4.0357,3.9333,3.8713,4.0378,4.0375,4.043,4.1518,4.1294,4.1294,4.2094,4.2094,4.2168,4.2592,4.3474,4.3912,4.3547,4.3828,4.3712,4.2991,4.3872,4.3938,4.2946,4.3636,4.3029,4.089,3.939,3.856,0.0,0.0,0.0,0.0,0.0,0.0,0.0,0.0,0.0,0.0,0.0,0.0,0.0,0.0,0.0,0.0,0.0,0.0,0.0,0.0,0.0,0.0,0.0,0.0,2.2112,2.305,2.4016,2.5058,2.7218,2.8728,2.8989,2.9987,3.0584,3.0494,3.0067,3.0062,3.071,3.0255,3.0642,3.2191,3.0674,3.0987,3.3545,3.1957,3.1764,3.2885,3.2842,3.2842,3.2885,3.3181,3.4061,3.5248,3.5714,3.6792,3.8027,3.6708,3.7016,3.8091,3.6171,3.5589,3.5737,3.4965,3.4997,3.5537,3.659,3.7549,3.8233,3.8632,3.9041,3.9246,3.8765,3.8092,3.7293,3.6489,3.6552,3.7027,3.7641,3.884,3.9607,3.8664,3.8526,3.8049,3.624,3.7078,3.7997,3.7666,3.7262,3.7786,4.0222,3.9606,3.9296,4.0995,4.0864,0.0,4.1742,4.1518,4.1369,4.1797,4.2168,4.2739,4.3474,4.272,4.2181,4.2057,4.2648,4.2071,3.9889,4.0805,4.012,3.7528,3.6819,3.6436,3.6464,0.0,0.0,0.0,0.0,0.0,0.0,0.0,0.0,0.0,0.0,0.0,0.0,0.0,0.0,0.0,0.0,0.0,0.0,0.0,0.0,0.0,0.0,0.0,0.0,2.1281,2.2959,2.4951,2.5744,2.6921,2.9059,2.943,2.9636,2.9961,3.0151,3.0117,2.9721,2.9476,2.9891,3.1048,3.058,3.1194,3.3067,3.2566,3.2467,3.2842,3.2429,3.2215,3.22,3.1696,3.2391,3.3909,3.3921,3.4752,3.6116,3.5692,3.6073,3.6731,3.5362,3.5091,3.5303,3.477,3.5193,3.5952,3.5797,3.681,3.8095,3.828,3.8413,3.851,3.857,3.8063,3.7454,3.7116,3.6199,3.5404,3.5812,3.6511,3.6797,3.5966,3.6569,3.6913,3.552,3.6132,3.7245,3.8227,3.842,3.878,3.9686,3.9177,3.9144,4.0638,4.0469,4.0449,4.092,4.1164,4.1294,4.1369,4.2242,4.2887,4.3107,4.2622,4.2022,4.1258,4.159,4.0651,3.8237,3.9053,3.8439,3.6082,3.5122,3.4719,3.4766,0.0,0.0,0.0,0.0,0.0,0.0,0.0,0.0,0.0,0.0,0.0,0.0,0.0,0.0,0.0,0.0,0.0,0.0,0.0,0.0,0.0,0.0,0.0,0.0,0.0,0.0,2.3826,2.4372,0.0,2.7442,2.7361,2.7496,2.8325,2.8611,2.8823,2.8994,2.8679,2.9087,3.0163,3.0146,3.0854,3.2164,3.23,3.2273,3.2186,3.1858,3.1658,3.1474,3.1062,3.1762,3.324,3.316,3.4059,3.5441,3.4926,3.4914,3.5179,3.4785,3.4765,3.4993,3.5017,3.5377,3.5897,3.5543,3.6069,3.6884,3.7039,3.6845,3.6575,3.7087,3.6234,3.5287,3.609,3.499,3.3988,3.5076,3.5559,3.5629,3.5135,3.5799,3.627,3.5453,3.6149,3.7018,3.7151,3.7312,3.7369,3.7233,3.7106,3.7327,3.8302,3.8841,3.9367,3.9746,4.0501,4.107,4.1144,4.1722,4.2316,4.2665,4.2235,4.152,4.0707,4.0555,3.9567,3.7403,3.7605,3.6968,3.5288,3.4589,3.393,0.0,0.0,0.0,0.0,0.0,0.0,0.0,0.0,0.0,0.0,0.0,0.0,0.0,0.0,0.0,0.0,0.0,0.0,0.0,0.0,0.0,0.0,0.0,0.0,0.0,0.0,0.0,2.1698,2.3065,0.0,0.0,0.0,0.0,2.5788,2.553,2.6233,2.823,2.7641,2.7946,2.9424,2.9421,2.9982,3.1057,3.1315,3.1278,3.0933,3.1278,3.1278,3.0891,3.1206,3.2025,3.3166,3.3575,3.4489,3.5671,3.4329,3.3569,3.3445,3.4051,3.4288,3.4379,3.5078,3.5167,3.4935,3.5346,3.5042,3.4627,3.4862,3.4294,3.3606,3.4114,3.2591,0.0,0.0,3.2996,3.2806,3.5238,3.5932,3.6016,3.6016,3.6049,3.6123,3.5716,3.6878,3.7192,3.4511,3.3972,3.3841,3.3255,0.0,3.397,3.4248,3.6185,3.7757,3.817,3.9689,4.0789,4.1219,4.1014,4.1219,4.2256,4.1545,4.0782,4.0109,3.9539,3.8535,3.7153,3.645,3.5726,3.4886,3.4848,0.0,0.0,0.0,0.0,0.0,0.0,0.0,0.0,0.0,0.0,0.0,0.0,0.0,0.0,0.0,0.0,0.0,0.0,0.0,0.0,0.0,0.0,0.0,0.0,0.0,0.0,1.7589,1.9485,2.2026,2.1659,2.1912,0.0,0.0,0.0,0.0,0.0,0.0,2.2999,2.3985,2.4869,2.5657,2.6925,2.8519,3.0667,3.0754,3.0995,3.1307,3.0981,3.0519,3.0194,2.9571,3.0218,3.1812,3.2027,3.259,3.3406,3.2592,3.2542,3.2846,3.1201,3.0301,2.9923,2.9635,2.998,3.0599,3.0916,3.2303,3.3736,3.1903,3.1602,3.1755,3.0259,0.0,0.0,0.0,0.0,2.9946,3.0862,3.239,3.3666,3.3666,3.5029,3.5934,3.4598,3.5381,3.5868,3.4097,3.3621,3.3256,3.2235,3.2129,0.0,3.2375,3.4548,3.6325,3.6914,3.9601,4.1518,4.1667,4.2592,4.2841,4.197,4.1899,4.0725,3.8102,3.8249,3.7094,3.4133,3.4831,3.4572,3.3168,0.0,0.0,0.0,0.0,0.0,0.0,0.0,0.0,0.0,0.0,0.0,0.0,0.0,0.0,0.0,0.0,0.0,0.0,0.0,0.0,0.0,0.0,0.0,0.0,0.0,0.0,0.0,1.6087,1.8137,1.9852,1.9476,1.9526,0.0,0.0,0.0,0.0,0.0,0.0,0.0,0.0,0.0,2.2857,2.4802,2.6709,2.8379,2.9479,3.0166,3.0437,3.0323,2.9941,2.9299,2.9196,2.9652,3.0474,3.1086,3.1365,3.1404,3.0746,3.0939,3.127,0.0,0.0,0.0,0.0,2.6527,2.6934,2.7008,2.8046,2.9047,2.7693,0.0,0.0,0.0,0.0,0.0,0.0,0.0,2.7229,2.861,3.0525,3.2254,3.2503,3.3878,3.4819,3.3835,3.3411,3.2731,3.1091,3.0166,2.9274,2.8267,2.8146,0.0,0.0,0.0,3.4093,3.5275,3.828,4.0593,4.1315,4.1726,4.1715,4.1154,4.0606,3.9363,3.72,3.705,3.5926,3.3486,3.4108,3.4006,0.0,0.0,0.0,0.0,0.0,0.0,0.0,0.0,0.0,0.0,0.0,0.0,0.0,0.0,0.0,0.0,0.0,0.0,0.0,0.0,0.0,0.0,0.0,0.0,0.0,0.0,0.0,0.0,0.0,1.6468,1.6776,0.0,0.0,0.0,0.0,0.0,0.0,0.0,0.0,0.0,0.0,0.0,0.0,0.0,2.4381,2.5073,2.7372,2.8615,2.869,2.9089,2.8972,2.8387,2.9031,2.9268,2.924,2.996,0.0,2.9527,2.8908,0.0,0.0,0.0,0.0,0.0,0.0,0.0,0.0,0.0,0.0,0.0,0.0,0.0,0.0,0.0,0.0,0.0,0.0,0.0,0.0,0.0,0.0,3.088,3.1457,3.2493,3.3127,3.246,3.0697,2.8674,2.7043,2.549,2.4092,0.0,0.0,0.0,0.0,0.0,0.0,3.3436,3.6569,3.9178,4.0515,3.9853,3.9585,4.0015,3.8729,3.7605,3.6817,3.6041,3.5044,3.3657,3.3801,0.0,0.0,0.0,0.0,0.0,0.0,0.0,0.0,0.0,0.0,0.0,0.0,0.0,0.0,0.0,0.0,0.0,0.0,0.0,0.0,0.0,0.0,0.0,0.0,0.0,0.0,0.0,0.0,0.0,0.0,0.0,0.0,0.0,0.0,0.0,0.0,0.0,0.0,0.0,0.0,0.0,0.0,0.0,0.0,0.0,0.0,0.0,0.0,0.0,0.0,2.5974,2.6466,2.7453,2.6583,2.7083,2.845,2.6702,2.6569,2.7494,2.7042,0.0,0.0,0.0,0.0,0.0,0.0,0.0,0.0,0.0,0.0,0.0,0.0,0.0,0.0,0.0,0.0,0.0,0.0,0.0,0.0,0.0,0.0,2.7835,2.8047,3.0443,3.1545,2.7429,0.0,0.0,0.0,0.0,0.0,0.0,0.0,0.0,0.0,0.0,0.0,3.1618,3.6311,3.9576,3.9853,4.0522,4.0555,3.9361,3.8547,3.7443,3.6079,3.5312,3.3871,0.0,0.0,0.0,0.0,0.0,0.0,0.0,0.0,0.0,0.0,0.0,0.0,0.0,0.0,0.0,0.0,0.0,0.0,0.0,0.0,0.0,0.0,0.0,0.0,0.0,0.0,0.0,0.0,0.0,0.0,0.0,0.0,0.0,0.0,0.0,0.0,0.0,0.0,0.0,0.0,0.0,0.0,0.0,0.0,0.0,0.0,0.0,0.0,0.0,0.0,0.0,0.0,0.0,0.0,0.0,0.0,0.0,0.0,2.338,2.347,0.0,0.0,0.0,0.0,0.0,0.0,0.0,0.0,0.0,0.0,0.0,0.0,0.0,0.0,0.0,0.0,0.0,0.0,0.0,0.0,0.0,0.0,0.0,0.0,0.0,0.0,0.0,0.0,0.0,0.0,0.0,0.0,0.0,0.0,0.0,0.0,0.0,0.0,0.0,0.0,3.0659,3.518,3.848,3.8814,3.9126,3.8953,3.7832,3.7486,3.6677,3.5248,3.4357,0.0,0.0,0.0,0.0,0.0,0.0,0.0,0.0,0.0,0.0,0.0,0.0,0.0,0.0,0.0,0.0,0.0,0.0,0.0,0.0,0.0,0.0,0.0,0.0,0.0,0.0,0.0,0.0,0.0,0.0,0.0,0.0,0.0,0.0,0.0,0.0,0.0,0.0,0.0,0.0,0.0,0.0,0.0,0.0,0.0,0.0,0.0,0.0,0.0,0.0,0.0,0.0,0.0,0.0,0.0,0.0,0.0,0.0,0.0,2.0728,2.1286,0.0,0.0,0.0,0.0,0.0,0.0,0.0,0.0,0.0,0.0,0.0,0.0,0.0,0.0,0.0,0.0,0.0,0.0,0.0,0.0,0.0,0.0,0.0,0.0,0.0,0.0,0.0,0.0,0.0,0.0,0.0,0.0,0.0,0.0,0.0,0.0,0.0,0.0,0.0,0.0,2.9737,3.4091,3.7337,3.7852,3.7595,3.7271,3.6888,3.668,3.6038,3.4803,3.3945,0.0,0.0,0.0,0.0,0.0,0.0,0.0,0.0,0.0,0.0,0.0,0.0,0.0,0.0,0.0,0.0,0.0,0.0,0.0,0.0,0.0,0.0,0.0,0.0,0.0,0.0,0.0,0.0,0.0,0.0,0.0,0.0,0.0,0.0,0.0,0.0,0.0,0.0,0.0,0.0,0.0,0.0,0.0,0.0,0.0,0.0,0.0,0.0,0.0,0.0,0.0,0.0,0.0,0.0,0.0,0.0,0.0,0.0,0.0,0.0,0.0,0.0,0.0,0.0,0.0,0.0,0.0,0.0,0.0,0.0,0.0,0.0,0.0,0.0,0.0,0.0,0.0,0.0,0.0,0.0,0.0,0.0,0.0,0.0,0.0,0.0,0.0,0.0,0.0,0.0,0.0,0.0,0.0,0.0,0.0,0.0,0.0,0.0,0.0,0.0,0.0,2.8317,3.3474,3.7123,3.7188,3.7188,3.7399,3.789,3.7098,3.6217,3.5373,0.0,0.0,0.0,0.0,0.0,0.0,0.0,0.0,0.0,0.0,0.0,0.0,0.0,0.0,0.0,0.0,0.0,0.0,0.0,0.0,0.0,0.0,0.0,0.0,0.0,0.0,0.0,0.0,0.0,0.0,0.0,0.0,0.0,0.0,0.0,0.0,0.0,0.0,0.0,0.0,0.0,0.0,0.0,0.0,0.0,0.0,0.0,0.0,0.0,0.0,0.0,0.0,0.0,0.0,0.0,0.0,0.0,0.0,0.0,0.0,0.0,0.0,0.0,0.0,0.0,0.0,0.0,0.0,0.0,0.0,0.0,0.0,0.0,0.0,0.0,0.0,0.0,0.0,0.0,0.0,0.0,0.0,0.0,0.0,0.0,0.0,0.0,0.0,0.0,0.0,0.0,0.0,0.0,0.0,0.0,0.0,0.0,0.0,0.0,0.0,0.0,0.0,2.7951,3.2892,3.6401,3.6631,3.661,3.6497,3.6367,3.5983,3.5395,3.4612,0.0,0.0,0.0,0.0,0.0,0.0,0.0,0.0,0.0,0.0,0.0,0.0,0.0,0.0,0.0,0.0,0.0,0.0,0.0,0.0,0.0,0.0,0.0,0.0,0.0,0.0,0.0,0.0,0.0,0.0,0.0,0.0,0.0,0.0,0.0,0.0,0.0,0.0,0.0,0.0,0.0,0.0,0.0,0.0,0.0,0.0,0.0,0.0,0.0,0.0,0.0,0.0,0.0,0.0,0.0,0.0,0.0,0.0,0.0,0.0,0.0,0.0,0.0,0.0,0.0,0.0,0.0,0.0,0.0,0.0,0.0,0.0,0.0,0.0,0.0,0.0,0.0,0.0,0.0,0.0,0.0,0.0,0.0,0.0,0.0,0.0,0.0,0.0,0.0,0.0,0.0,0.0,0.0,0.0,0.0,0.0,0.0,0.0,0.0,0.0,0.0,0.0,2.7052,3.1926,3.541,3.582,3.58,3.5689,3.5482,3.5481,3.4919,3.3669,0.0,0.0,0.0,0.0,0.0,0.0,0.0,0.0,0.0,0.0,0.0,0.0,0.0,0.0,0.0,0.0,0.0,0.0,0.0,0.0,0.0,0.0,0.0,0.0,0.0,0.0,0.0,0.0,0.0,0.0,0.0,0.0,0.0,0.0,0.0,0.0,0.0,0.0,0.0,0.0,0.0,0.0,0.0,0.0,0.0,0.0,0.0,0.0,0.0,0.0,0.0,0.0,0.0,0.0,0.0,0.0,0.0,0.0,0.0,0.0,0.0,0.0,0.0,0.0,0.0,0.0,0.0,0.0,0.0,0.0,0.0,0.0,0.0,0.0,0.0,0.0,0.0,0.0,0.0,0.0,0.0,0.0,0.0,0.0,0.0,0.0,0.0,0.0,0.0,0.0,0.0,0.0,0.0,0.0,0.0,0.0,0.0,0.0,0.0,0.0,0.0,0.0,2.5226,3.043,3.4202,3.4783,3.4843,3.5183,3.6077,3.6124,3.5159,0.0,0.0,0.0,0.0,0.0,0.0,0.0,0.0,0.0,0.0,0.0,0.0,0.0,0.0,0.0,0.0,0.0,0.0,0.0,0.0,0.0,0.0,0.0,0.0,0.0,0.0,0.0,0.0,0.0,0.0,0.0,0.0,0.0,0.0,0.0,0.0,0.0,0.0,0.0,0.0,0.0,0.0,0.0,0.0,0.0,0.0,0.0,0.0,0.0,0.0,0.0,0.0,0.0,0.0,0.0,0.0,0.0,0.0,0.0,0.0,0.0,0.0,0.0,0.0,0.0,0.0,0.0,0.0,0.0,0.0,0.0,0.0,0.0,0.0,0.0,0.0,0.0,0.0,0.0,0.0,0.0,0.0,0.0,0.0,0.0,0.0,0.0,0.0,0.0,0.0,0.0,0.0,0.0,0.0,0.0,0.0,0.0,0.0,0.0,0.0,0.0,0.0,0.0,2.5347,2.9384,3.2624,3.4114,3.4275,3.4169,3.3918,3.4324,3.3678,3.1616,0.0,0.0,0.0,0.0,0.0,0.0,0.0,0.0,0.0,0.0,0.0,0.0,0.0,0.0,0.0,0.0,0.0,0.0,0.0,0.0,0.0,0.0,0.0,0.0,0.0,0.0,0.0,0.0,0.0,0.0,0.0,0.0,0.0,0.0,0.0,0.0,0.0,0.0,0.0,0.0,0.0,0.0,0.0,0.0,0.0,0.0,0.0,0.0,0.0,0.0,0.0,0.0,0.0,0.0,0.0,0.0,0.0,0.0,0.0,0.0,0.0,0.0,0.0,0.0,0.0,0.0,0.0,0.0,0.0,0.0,0.0,0.0,0.0,0.0,0.0,0.0,0.0,0.0,0.0,0.0,0.0,0.0,0.0,0.0,0.0,0.0,0.0,0.0,0.0,0.0,0.0,0.0,0.0,0.0,0.0,0.0,0.0,0.0,0.0,0.0,0.0,0.0,0.0,2.7869,3.0824,3.2531,3.289,3.2782,3.2207,3.2655,3.2337,3.0875,0.0,0.0,0.0,0.0,0.0,0.0,0.0,0.0,0.0,0.0,0.0,0.0,0.0,0.0,0.0,0.0,0.0,0.0,0.0,0.0,0.0,0.0,0.0,0.0,0.0,0.0,0.0,0.0,0.0,0.0,0.0,0.0,0.0,0.0,0.0,0.0,0.0,0.0,0.0,0.0,0.0,0.0,0.0,0.0,0.0,0.0,0.0,0.0,0.0,0.0,0.0,0.0,0.0,0.0,0.0,0.0,0.0,0.0,0.0,0.0,0.0,0.0,0.0,0.0,0.0,0.0,0.0,0.0,0.0,0.0,0.0,0.0,0.0,0.0,0.0,0.0,0.0,0.0,0.0,0.0,0.0,0.0,0.0,0.0,0.0,0.0,0.0,0.0,0.0,0.0,0.0,0.0,0.0,0.0,0.0,0.0,0.0,0.0,0.0,0.0,0.0,0.0,0.0,2.5946,2.8781,3.03,3.0896,3.1089,3.0996,3.1259,3.1148,3.0489,3.0845,0.0,0.0,0.0,0.0,0.0,0.0,0.0,0.0,0.0,0.0,0.0,0.0,0.0,0.0,0.0,0.0,0.0,0.0,0.0,0.0,0.0,0.0,0.0,0.0,0.0,0.0,0.0,0.0,0.0,0.0,0.0,0.0,0.0,0.0,0.0,0.0,0.0,0.0,0.0,0.0,0.0,0.0,0.0,0.0,0.0,0.0,0.0,0.0,0.0,0.0,0.0,0.0,0.0,0.0,0.0,0.0,0.0,0.0,0.0,0.0,0.0,0.0,0.0,0.0,0.0,0.0,0.0,0.0,0.0,0.0,0.0,0.0,0.0,0.0,0.0,0.0,0.0,0.0,0.0,0.0,0.0,0.0,0.0,0.0,0.0,0.0,0.0,0.0,0.0,0.0,0.0,0.0,0.0,0.0,0.0,0.0,0.0,0.0,0.0,0.0,0.0,0.0,2.4031,2.6104,2.9835,2.9856,2.9728,2.9919,3.0697,3.0736,2.9685,3.0351,0.0,0.0,0.0,0.0,0.0,0.0,0.0,0.0,0.0,0.0,0.0,0.0,0.0,0.0,0.0,0.0,0.0,0.0,0.0,0.0,0.0,0.0,0.0,0.0,0.0,0.0,0.0,0.0,0.0,0.0,0.0,0.0,0.0,0.0,0.0,0.0,0.0,0.0,0.0,0.0,0.0,0.0,0.0,0.0,0.0,0.0,0.0,0.0,0.0,0.0,0.0,0.0,0.0,0.0,0.0,0.0,0.0,0.0,0.0,0.0,0.0,0.0,0.0,0.0,0.0,0.0,0.0,0.0,0.0,0.0,0.0,0.0,0.0,0.0,0.0,0.0,0.0,0.0,0.0,0.0,0.0,0.0,0.0,0.0,0.0,0.0,0.0,0.0,0.0,0.0,0.0,0.0,0.0,0.0,0.0,0.0,0.0,0.0,0.0,0.0,0.0,0.0,2.0407,2.3433,2.8004,2.8629,2.8705,2.8678,2.9119,2.9288,2.9029,2.885,0.0,0.0,0.0,0.0,0.0,0.0,0.0,0.0,0.0,0.0,0.0,0.0,0.0,0.0,0.0,0.0,0.0,0.0,0.0,0.0,0.0,0.0,0.0,0.0,0.0,0.0,0.0,0.0,0.0,0.0,0.0,0.0,0.0,0.0,0.0,0.0,0.0,0.0,0.0,0.0,0.0,0.0,0.0,0.0,0.0,0.0,0.0,0.0,0.0,0.0,0.0,0.0,0.0,0.0,0.0,0.0,0.0,0.0,0.0,0.0,0.0,0.0,0.0,0.0,0.0,0.0,0.0,0.0,0.0,0.0,0.0,0.0,0.0,0.0,0.0,0.0,0.0,0.0,0.0,0.0,0.0,0.0,0.0,0.0,0.0,0.0,0.0,0.0,0.0,0.0,0.0,0.0,0.0,0.0,0.0,0.0,0.0,0.0,0.0,0.0,0.0,0.0,0.0,2.0762,2.496,2.6882,2.7715,2.7384,2.7397,2.7619,2.8083,0.0,0.0,0.0,0.0,0.0,0.0,0.0,0.0,0.0,0.0,0.0,0.0,0.0,0.0,0.0,0.0,0.0,0.0,0.0,0.0,0.0,0.0,0.0,0.0,0.0,0.0,0.0,0.0,0.0,0.0,0.0,0.0,0.0,0.0,0.0,0.0,0.0,0.0,0.0,0.0,0.0,0.0,0.0,0.0,0.0,0.0,0.0,0.0,0.0,0.0,0.0,0.0,0.0,0.0,0.0,0.0,0.0,0.0,0.0,0.0,0.0,0.0,0.0,0.0,0.0,0.0,0.0,0.0,0.0,0.0,0.0,0.0,0.0,0.0,0.0,0.0,0.0,0.0,0.0,0.0,0.0,0.0,0.0,0.0,0.0,0.0,0.0,0.0,0.0,0.0,0.0,0.0,0.0,0.0,0.0,0.0,0.0,0.0,0.0,0.0,0.0,0.0,0.0,0.0,1.8408,1.9592,2.3707,2.6361,2.6312,2.6987,2.6992,2.6022,0.0,0.0,0.0,0.0,0.0,0.0,0.0,0.0,0.0,0.0,0.0,0.0,0.0,0.0]}]]]